<?xml version="1.0" encoding="UTF-8" standalone="no" ?>
<gpx xmlns="http://www.topografix.com/GPX/1/1" xmlns:xsi="http://www.w3.org/2001/XMLSchema-instance" xsi:schemaLocation="http://www.topografix.com/GPX/1/1 http://www.topografix.com/GPX/1/1/gpx.xsd" version="1.1" creator="VisuGPX - https://www.visugpx.com">
  <metadata>
    <name>11185678-Tour du Queyras</name>
    <desc><![CDATA[Tracé fait par Véro! Je ne connais pas le passage vers l'Italie? ]]></desc>
  </metadata>
  <wpt lat="44.66785" lon="6.75525">
    <ele>1606.4</ele>
  </wpt>
  <trk>
    <name><![CDATA[11185678-Tour du Queyras]]></name>
    <trkseg>
      <trkpt lat="44.69023" lon="6.62094">
        <ele>977</ele>
        <time>2020-04-09T12:18:14Z</time>
      </trkpt>
      <trkpt lat="44.68974" lon="6.62201">
        <ele>978</ele>
        <time>2020-04-09T12:19:26Z</time>
      </trkpt>
      <trkpt lat="44.68984" lon="6.62225">
        <ele>980</ele>
        <time>2020-04-09T12:19:42Z</time>
      </trkpt>
      <trkpt lat="44.68908" lon="6.62324">
        <ele>984</ele>
        <time>2020-04-09T12:21:05Z</time>
      </trkpt>
      <trkpt lat="44.68808" lon="6.62339">
        <ele>983</ele>
        <time>2020-04-09T12:22:26Z</time>
      </trkpt>
      <trkpt lat="44.68754" lon="6.62342">
        <ele>986</ele>
        <time>2020-04-09T12:23:09Z</time>
      </trkpt>
      <trkpt lat="44.68688" lon="6.62335">
        <ele>987</ele>
        <time>2020-04-09T12:24:02Z</time>
      </trkpt>
      <trkpt lat="44.6856" lon="6.62341">
        <ele>988</ele>
        <time>2020-04-09T12:25:45Z</time>
      </trkpt>
      <trkpt lat="44.68505" lon="6.62382">
        <ele>993</ele>
        <time>2020-04-09T12:26:34Z</time>
      </trkpt>
      <trkpt lat="44.68426" lon="6.62483">
        <ele>1001</ele>
        <time>2020-04-09T12:28:00Z</time>
      </trkpt>
      <trkpt lat="44.68389" lon="6.62514">
        <ele>1003</ele>
        <time>2020-04-09T12:28:34Z</time>
      </trkpt>
      <trkpt lat="44.68367" lon="6.62553">
        <ele>1007</ele>
        <time>2020-04-09T12:29:03Z</time>
      </trkpt>
      <trkpt lat="44.68368" lon="6.62584">
        <ele>1011</ele>
        <time>2020-04-09T12:29:20Z</time>
      </trkpt>
      <trkpt lat="44.68362" lon="6.62612">
        <ele>1012</ele>
        <time>2020-04-09T12:29:37Z</time>
      </trkpt>
      <trkpt lat="44.68335" lon="6.62652">
        <ele>1012</ele>
        <time>2020-04-09T12:30:08Z</time>
      </trkpt>
      <trkpt lat="44.68327" lon="6.62691">
        <ele>1011</ele>
        <time>2020-04-09T12:30:32Z</time>
      </trkpt>
      <trkpt lat="44.68318" lon="6.62764">
        <ele>1012</ele>
        <time>2020-04-09T12:31:14Z</time>
      </trkpt>
      <trkpt lat="44.68305" lon="6.62841">
        <ele>1013</ele>
        <time>2020-04-09T12:31:59Z</time>
      </trkpt>
      <trkpt lat="44.68268" lon="6.62945">
        <ele>1013</ele>
        <time>2020-04-09T12:33:05Z</time>
      </trkpt>
      <trkpt lat="44.6827" lon="6.63001">
        <ele>1022</ele>
        <time>2020-04-09T12:33:37Z</time>
      </trkpt>
      <trkpt lat="44.68287" lon="6.63048">
        <ele>1031</ele>
        <time>2020-04-09T12:34:07Z</time>
      </trkpt>
      <trkpt lat="44.68262" lon="6.63052">
        <ele>1027</ele>
        <time>2020-04-09T12:34:27Z</time>
      </trkpt>
      <trkpt lat="44.68214" lon="6.63028">
        <ele>1021</ele>
        <time>2020-04-09T12:35:08Z</time>
      </trkpt>
      <trkpt lat="44.68169" lon="6.62986">
        <ele>1016</ele>
        <time>2020-04-09T12:35:51Z</time>
      </trkpt>
      <trkpt lat="44.68137" lon="6.62989">
        <ele>1014</ele>
        <time>2020-04-09T12:36:17Z</time>
      </trkpt>
      <trkpt lat="44.68135" lon="6.63051">
        <ele>1022</ele>
        <time>2020-04-09T12:36:52Z</time>
      </trkpt>
      <trkpt lat="44.68128" lon="6.63089">
        <ele>1025</ele>
        <time>2020-04-09T12:37:14Z</time>
      </trkpt>
      <trkpt lat="44.68096" lon="6.63128">
        <ele>1025</ele>
        <time>2020-04-09T12:37:48Z</time>
      </trkpt>
      <trkpt lat="44.6807" lon="6.63184">
        <ele>1027</ele>
        <time>2020-04-09T12:38:26Z</time>
      </trkpt>
      <trkpt lat="44.68025" lon="6.63241">
        <ele>1025</ele>
        <time>2020-04-09T12:39:15Z</time>
      </trkpt>
      <trkpt lat="44.67976" lon="6.63335">
        <ele>1028</ele>
        <time>2020-04-09T12:40:21Z</time>
      </trkpt>
      <trkpt lat="44.67957" lon="6.63339">
        <ele>1025</ele>
        <time>2020-04-09T12:40:37Z</time>
      </trkpt>
      <trkpt lat="44.6793" lon="6.63364">
        <ele>1024</ele>
        <time>2020-04-09T12:41:03Z</time>
      </trkpt>
      <trkpt lat="44.67897" lon="6.63373">
        <ele>1023</ele>
        <time>2020-04-09T12:41:29Z</time>
      </trkpt>
      <trkpt lat="44.67891" lon="6.63411">
        <ele>1027</ele>
        <time>2020-04-09T12:41:52Z</time>
      </trkpt>
      <trkpt lat="44.67834" lon="6.6342">
        <ele>1028</ele>
        <time>2020-04-09T12:42:38Z</time>
      </trkpt>
      <trkpt lat="44.67782" lon="6.63443">
        <ele>1029</ele>
        <time>2020-04-09T12:43:21Z</time>
      </trkpt>
      <trkpt lat="44.67758" lon="6.63439">
        <ele>1028</ele>
        <time>2020-04-09T12:43:41Z</time>
      </trkpt>
      <trkpt lat="44.67706" lon="6.63411">
        <ele>1028</ele>
        <time>2020-04-09T12:44:25Z</time>
      </trkpt>
      <trkpt lat="44.67665" lon="6.63408">
        <ele>1030</ele>
        <time>2020-04-09T12:44:58Z</time>
      </trkpt>
      <trkpt lat="44.6765" lon="6.63426">
        <ele>1031</ele>
        <time>2020-04-09T12:45:14Z</time>
      </trkpt>
      <trkpt lat="44.67631" lon="6.63413">
        <ele>1029</ele>
        <time>2020-04-09T12:45:31Z</time>
      </trkpt>
      <trkpt lat="44.67619" lon="6.63451">
        <ele>1029</ele>
        <time>2020-04-09T12:45:54Z</time>
      </trkpt>
      <trkpt lat="44.67592" lon="6.63512">
        <ele>1026</ele>
        <time>2020-04-09T12:46:35Z</time>
      </trkpt>
      <trkpt lat="44.67566" lon="6.63595">
        <ele>1014</ele>
        <time>2020-04-09T12:47:27Z</time>
      </trkpt>
      <trkpt lat="44.67559" lon="6.63675">
        <ele>1011</ele>
        <time>2020-04-09T12:48:13Z</time>
      </trkpt>
      <trkpt lat="44.67533" lon="6.63716">
        <ele>998</ele>
        <time>2020-04-09T12:48:44Z</time>
      </trkpt>
      <trkpt lat="44.67503" lon="6.6379">
        <ele>984</ele>
        <time>2020-04-09T12:49:33Z</time>
      </trkpt>
      <trkpt lat="44.675" lon="6.6385">
        <ele>982</ele>
        <time>2020-04-09T12:50:07Z</time>
      </trkpt>
      <trkpt lat="44.67494" lon="6.63891">
        <ele>978</ele>
        <time>2020-04-09T12:50:31Z</time>
      </trkpt>
      <trkpt lat="44.67468" lon="6.63942">
        <ele>965</ele>
        <time>2020-04-09T12:51:06Z</time>
      </trkpt>
      <trkpt lat="44.67462" lon="6.63995">
        <ele>963</ele>
        <time>2020-04-09T12:51:37Z</time>
      </trkpt>
      <trkpt lat="44.67446" lon="6.64034">
        <ele>958</ele>
        <time>2020-04-09T12:52:03Z</time>
      </trkpt>
      <trkpt lat="44.67441" lon="6.64099">
        <ele>958</ele>
        <time>2020-04-09T12:52:40Z</time>
      </trkpt>
      <trkpt lat="44.67416" lon="6.64166">
        <ele>954</ele>
        <time>2020-04-09T12:53:23Z</time>
      </trkpt>
      <trkpt lat="44.67401" lon="6.64192">
        <ele>949</ele>
        <time>2020-04-09T12:53:42Z</time>
      </trkpt>
      <trkpt lat="44.67389" lon="6.64272">
        <ele>947</ele>
        <time>2020-04-09T12:54:28Z</time>
      </trkpt>
      <trkpt lat="44.67388" lon="6.64317">
        <ele>946</ele>
        <time>2020-04-09T12:54:54Z</time>
      </trkpt>
      <trkpt lat="44.67352" lon="6.6436">
        <ele>939</ele>
        <time>2020-04-09T12:55:32Z</time>
      </trkpt>
      <trkpt lat="44.67317" lon="6.64418">
        <ele>936</ele>
        <time>2020-04-09T12:56:15Z</time>
      </trkpt>
      <trkpt lat="44.67307" lon="6.64447">
        <ele>936</ele>
        <time>2020-04-09T12:56:34Z</time>
      </trkpt>
      <trkpt lat="44.67281" lon="6.64436">
        <ele>931</ele>
        <time>2020-04-09T12:56:55Z</time>
      </trkpt>
      <trkpt lat="44.67257" lon="6.64456">
        <ele>928</ele>
        <time>2020-04-09T12:57:18Z</time>
      </trkpt>
      <trkpt lat="44.67226" lon="6.64519">
        <ele>926</ele>
        <time>2020-04-09T12:58:01Z</time>
      </trkpt>
      <trkpt lat="44.67205" lon="6.64547">
        <ele>924</ele>
        <time>2020-04-09T12:58:24Z</time>
      </trkpt>
      <trkpt lat="44.6713" lon="6.64526">
        <ele>925</ele>
        <time>2020-04-09T12:59:26Z</time>
      </trkpt>
      <trkpt lat="44.67111" lon="6.64524">
        <ele>929</ele>
        <time>2020-04-09T12:59:41Z</time>
      </trkpt>
      <trkpt lat="44.67086" lon="6.64428">
        <ele>934</ele>
        <time>2020-04-09T13:00:39Z</time>
      </trkpt>
      <trkpt lat="44.67067" lon="6.64413">
        <ele>941</ele>
        <time>2020-04-09T13:00:57Z</time>
      </trkpt>
      <trkpt lat="44.67055" lon="6.64357">
        <ele>950</ele>
        <time>2020-04-09T13:01:30Z</time>
      </trkpt>
      <trkpt lat="44.67069" lon="6.64328">
        <ele>946</ele>
        <time>2020-04-09T13:01:50Z</time>
      </trkpt>
      <trkpt lat="44.67078" lon="6.64276">
        <ele>947</ele>
        <time>2020-04-09T13:02:20Z</time>
      </trkpt>
      <trkpt lat="44.67083" lon="6.64237">
        <ele>949</ele>
        <time>2020-04-09T13:02:43Z</time>
      </trkpt>
      <trkpt lat="44.67079" lon="6.64216">
        <ele>953</ele>
        <time>2020-04-09T13:02:55Z</time>
      </trkpt>
      <trkpt lat="44.67019" lon="6.64357">
        <ele>967</ele>
        <time>2020-04-09T13:04:29Z</time>
      </trkpt>
      <trkpt lat="44.66989" lon="6.64457">
        <ele>972</ele>
        <time>2020-04-09T13:05:31Z</time>
      </trkpt>
      <trkpt lat="44.66991" lon="6.64498">
        <ele>969</ele>
        <time>2020-04-09T13:05:54Z</time>
      </trkpt>
      <trkpt lat="44.66999" lon="6.6452">
        <ele>966</ele>
        <time>2020-04-09T13:06:08Z</time>
      </trkpt>
      <trkpt lat="44.66988" lon="6.6454">
        <ele>972</ele>
        <time>2020-04-09T13:06:23Z</time>
      </trkpt>
      <trkpt lat="44.66994" lon="6.64653">
        <ele>975</ele>
        <time>2020-04-09T13:07:27Z</time>
      </trkpt>
      <trkpt lat="44.66984" lon="6.64677">
        <ele>982</ele>
        <time>2020-04-09T13:07:43Z</time>
      </trkpt>
      <trkpt lat="44.6698" lon="6.64709">
        <ele>985</ele>
        <time>2020-04-09T13:08:01Z</time>
      </trkpt>
      <trkpt lat="44.66994" lon="6.64757">
        <ele>978</ele>
        <time>2020-04-09T13:08:31Z</time>
      </trkpt>
      <trkpt lat="44.66955" lon="6.64827">
        <ele>1002</ele>
        <time>2020-04-09T13:09:22Z</time>
      </trkpt>
      <trkpt lat="44.66952" lon="6.64954">
        <ele>1017</ele>
        <time>2020-04-09T13:10:34Z</time>
      </trkpt>
      <trkpt lat="44.66973" lon="6.65003">
        <ele>1014</ele>
        <time>2020-04-09T13:11:07Z</time>
      </trkpt>
      <trkpt lat="44.66995" lon="6.6503">
        <ele>1004</ele>
        <time>2020-04-09T13:11:30Z</time>
      </trkpt>
      <trkpt lat="44.66994" lon="6.65095">
        <ele>1010</ele>
        <time>2020-04-09T13:12:07Z</time>
      </trkpt>
      <trkpt lat="44.66979" lon="6.65097">
        <ele>1020</ele>
        <time>2020-04-09T13:12:19Z</time>
      </trkpt>
      <trkpt lat="44.66979" lon="6.65034">
        <ele>1014</ele>
        <time>2020-04-09T13:12:55Z</time>
      </trkpt>
      <trkpt lat="44.66951" lon="6.65086">
        <ele>1038</ele>
        <time>2020-04-09T13:13:32Z</time>
      </trkpt>
      <trkpt lat="44.66955" lon="6.65128">
        <ele>1038</ele>
        <time>2020-04-09T13:13:56Z</time>
      </trkpt>
      <trkpt lat="44.66955" lon="6.65185">
        <ele>1042</ele>
        <time>2020-04-09T13:14:29Z</time>
      </trkpt>
      <trkpt lat="44.66978" lon="6.65252">
        <ele>1032</ele>
        <time>2020-04-09T13:15:11Z</time>
      </trkpt>
      <trkpt lat="44.66941" lon="6.65407">
        <ele>1039</ele>
        <time>2020-04-09T13:16:44Z</time>
      </trkpt>
      <trkpt lat="44.66924" lon="6.65422">
        <ele>1048</ele>
        <time>2020-04-09T13:17:00Z</time>
      </trkpt>
      <trkpt lat="44.66909" lon="6.65424">
        <ele>1053</ele>
        <time>2020-04-09T13:17:12Z</time>
      </trkpt>
      <trkpt lat="44.66904" lon="6.65472">
        <ele>1054</ele>
        <time>2020-04-09T13:17:40Z</time>
      </trkpt>
      <trkpt lat="44.66888" lon="6.65516">
        <ele>1054</ele>
        <time>2020-04-09T13:18:08Z</time>
      </trkpt>
      <trkpt lat="44.66911" lon="6.65563">
        <ele>1043</ele>
        <time>2020-04-09T13:18:40Z</time>
      </trkpt>
      <trkpt lat="44.66904" lon="6.65631">
        <ele>1022</ele>
        <time>2020-04-09T13:19:20Z</time>
      </trkpt>
      <trkpt lat="44.66892" lon="6.6566">
        <ele>1018</ele>
        <time>2020-04-09T13:19:39Z</time>
      </trkpt>
      <trkpt lat="44.66887" lon="6.65689">
        <ele>1013</ele>
        <time>2020-04-09T13:19:56Z</time>
      </trkpt>
      <trkpt lat="44.66839" lon="6.65733">
        <ele>1044</ele>
        <time>2020-04-09T13:20:42Z</time>
      </trkpt>
      <trkpt lat="44.66779" lon="6.65766">
        <ele>1064</ele>
        <time>2020-04-09T13:21:33Z</time>
      </trkpt>
      <trkpt lat="44.66693" lon="6.65902">
        <ele>1082</ele>
        <time>2020-04-09T13:23:17Z</time>
      </trkpt>
      <trkpt lat="44.66657" lon="6.65916">
        <ele>1085</ele>
        <time>2020-04-09T13:23:47Z</time>
      </trkpt>
      <trkpt lat="44.66643" lon="6.65968">
        <ele>1090</ele>
        <time>2020-04-09T13:24:18Z</time>
      </trkpt>
      <trkpt lat="44.66647" lon="6.66">
        <ele>1092</ele>
        <time>2020-04-09T13:24:37Z</time>
      </trkpt>
      <trkpt lat="44.66629" lon="6.66056">
        <ele>1105</ele>
        <time>2020-04-09T13:25:12Z</time>
      </trkpt>
      <trkpt lat="44.66634" lon="6.66168">
        <ele>1107</ele>
        <time>2020-04-09T13:26:16Z</time>
      </trkpt>
      <trkpt lat="44.6661" lon="6.66242">
        <ele>1104</ele>
        <time>2020-04-09T13:27:02Z</time>
      </trkpt>
      <trkpt lat="44.66598" lon="6.66328">
        <ele>1098</ele>
        <time>2020-04-09T13:27:52Z</time>
      </trkpt>
      <trkpt lat="44.66577" lon="6.66347">
        <ele>1101</ele>
        <time>2020-04-09T13:28:12Z</time>
      </trkpt>
      <trkpt lat="44.6656" lon="6.6633">
        <ele>1104</ele>
        <time>2020-04-09T13:28:29Z</time>
      </trkpt>
      <trkpt lat="44.66539" lon="6.66316">
        <ele>1107</ele>
        <time>2020-04-09T13:28:47Z</time>
      </trkpt>
      <trkpt lat="44.66508" lon="6.6632">
        <ele>1108</ele>
        <time>2020-04-09T13:29:12Z</time>
      </trkpt>
      <trkpt lat="44.66501" lon="6.66355">
        <ele>1105</ele>
        <time>2020-04-09T13:29:33Z</time>
      </trkpt>
      <trkpt lat="44.66441" lon="6.66335">
        <ele>1100</ele>
        <time>2020-04-09T13:30:22Z</time>
      </trkpt>
      <trkpt lat="44.664" lon="6.6638">
        <ele>1104</ele>
        <time>2020-04-09T13:31:04Z</time>
      </trkpt>
      <trkpt lat="44.66313" lon="6.66392">
        <ele>1108</ele>
        <time>2020-04-09T13:32:14Z</time>
      </trkpt>
      <trkpt lat="44.66259" lon="6.66441">
        <ele>1118</ele>
        <time>2020-04-09T13:33:05Z</time>
      </trkpt>
      <trkpt lat="44.66205" lon="6.66495">
        <ele>1126</ele>
        <time>2020-04-09T13:33:58Z</time>
      </trkpt>
      <trkpt lat="44.66178" lon="6.66494">
        <ele>1122</ele>
        <time>2020-04-09T13:34:20Z</time>
      </trkpt>
      <trkpt lat="44.66169" lon="6.66517">
        <ele>1127</ele>
        <time>2020-04-09T13:34:35Z</time>
      </trkpt>
      <trkpt lat="44.66119" lon="6.66554">
        <ele>1134</ele>
        <time>2020-04-09T13:35:20Z</time>
      </trkpt>
      <trkpt lat="44.66085" lon="6.66565">
        <ele>1133</ele>
        <time>2020-04-09T13:35:48Z</time>
      </trkpt>
      <trkpt lat="44.66063" lon="6.66556">
        <ele>1133</ele>
        <time>2020-04-09T13:36:06Z</time>
      </trkpt>
      <trkpt lat="44.66009" lon="6.66489">
        <ele>1130</ele>
        <time>2020-04-09T13:37:04Z</time>
      </trkpt>
      <trkpt lat="44.65921" lon="6.66415">
        <ele>1137</ele>
        <time>2020-04-09T13:38:26Z</time>
      </trkpt>
      <trkpt lat="44.65881" lon="6.66395">
        <ele>1139</ele>
        <time>2020-04-09T13:39:00Z</time>
      </trkpt>
      <trkpt lat="44.65841" lon="6.66389">
        <ele>1142</ele>
        <time>2020-04-09T13:39:32Z</time>
      </trkpt>
      <trkpt lat="44.65831" lon="6.66497">
        <ele>1158</ele>
        <time>2020-04-09T13:40:34Z</time>
      </trkpt>
      <trkpt lat="44.65803" lon="6.66559">
        <ele>1170</ele>
        <time>2020-04-09T13:41:16Z</time>
      </trkpt>
      <trkpt lat="44.65796" lon="6.66617">
        <ele>1182</ele>
        <time>2020-04-09T13:41:50Z</time>
      </trkpt>
      <trkpt lat="44.6574" lon="6.66708">
        <ele>1202</ele>
        <time>2020-04-09T13:42:58Z</time>
      </trkpt>
      <trkpt lat="44.65688" lon="6.66813">
        <ele>1227</ele>
        <time>2020-04-09T13:44:11Z</time>
      </trkpt>
      <trkpt lat="44.65667" lon="6.66848">
        <ele>1233</ele>
        <time>2020-04-09T13:44:37Z</time>
      </trkpt>
      <trkpt lat="44.65692" lon="6.66888">
        <ele>1247</ele>
        <time>2020-04-09T13:45:08Z</time>
      </trkpt>
      <trkpt lat="44.65715" lon="6.66874">
        <ele>1246</ele>
        <time>2020-04-09T13:45:28Z</time>
      </trkpt>
      <trkpt lat="44.65713" lon="6.66934">
        <ele>1265</ele>
        <time>2020-04-09T13:46:02Z</time>
      </trkpt>
      <trkpt lat="44.65828" lon="6.66902">
        <ele>1279</ele>
        <time>2020-04-09T13:47:36Z</time>
      </trkpt>
      <trkpt lat="44.65882" lon="6.66955">
        <ele>1302</ele>
        <time>2020-04-09T13:48:28Z</time>
      </trkpt>
      <trkpt lat="44.65953" lon="6.67056">
        <ele>1335</ele>
        <time>2020-04-09T13:49:49Z</time>
      </trkpt>
      <trkpt lat="44.65986" lon="6.67244">
        <ele>1371</ele>
        <time>2020-04-09T13:51:40Z</time>
      </trkpt>
      <trkpt lat="44.66046" lon="6.67411">
        <ele>1404</ele>
        <time>2020-04-09T13:53:26Z</time>
      </trkpt>
      <trkpt lat="44.66095" lon="6.67445">
        <ele>1401</ele>
        <time>2020-04-09T13:54:10Z</time>
      </trkpt>
      <trkpt lat="44.66134" lon="6.67493">
        <ele>1404</ele>
        <time>2020-04-09T13:54:51Z</time>
      </trkpt>
      <trkpt lat="44.66129" lon="6.6757">
        <ele>1420</ele>
        <time>2020-04-09T13:55:35Z</time>
      </trkpt>
      <trkpt lat="44.66116" lon="6.67669">
        <ele>1445</ele>
        <time>2020-04-09T13:56:33Z</time>
      </trkpt>
      <trkpt lat="44.66152" lon="6.67785">
        <ele>1445</ele>
        <time>2020-04-09T13:57:45Z</time>
      </trkpt>
      <trkpt lat="44.66146" lon="6.67824">
        <ele>1457</ele>
        <time>2020-04-09T13:58:08Z</time>
      </trkpt>
      <trkpt lat="44.66169" lon="6.67911">
        <ele>1454</ele>
        <time>2020-04-09T13:59:00Z</time>
      </trkpt>
      <trkpt lat="44.66192" lon="6.68018">
        <ele>1462</ele>
        <time>2020-04-09T14:00:04Z</time>
      </trkpt>
      <trkpt lat="44.66241" lon="6.68077">
        <ele>1453</ele>
        <time>2020-04-09T14:00:56Z</time>
      </trkpt>
      <trkpt lat="44.66247" lon="6.68136">
        <ele>1467</ele>
        <time>2020-04-09T14:01:30Z</time>
      </trkpt>
      <trkpt lat="44.66342" lon="6.68302">
        <ele>1476</ele>
        <time>2020-04-09T14:03:31Z</time>
      </trkpt>
      <trkpt lat="44.66344" lon="6.68388">
        <ele>1482</ele>
        <time>2020-04-09T14:04:20Z</time>
      </trkpt>
      <trkpt lat="44.66437" lon="6.6848">
        <ele>1481</ele>
        <time>2020-04-09T14:05:51Z</time>
      </trkpt>
      <trkpt lat="44.66462" lon="6.68545">
        <ele>1479</ele>
        <time>2020-04-09T14:06:33Z</time>
      </trkpt>
      <trkpt lat="44.66445" lon="6.68599">
        <ele>1486</ele>
        <time>2020-04-09T14:07:07Z</time>
      </trkpt>
      <trkpt lat="44.66517" lon="6.68684">
        <ele>1482</ele>
        <time>2020-04-09T14:08:22Z</time>
      </trkpt>
      <trkpt lat="44.66522" lon="6.68761">
        <ele>1495</ele>
        <time>2020-04-09T14:09:06Z</time>
      </trkpt>
      <trkpt lat="44.66555" lon="6.68827">
        <ele>1494</ele>
        <time>2020-04-09T14:09:52Z</time>
      </trkpt>
      <trkpt lat="44.66641" lon="6.6888">
        <ele>1479</ele>
        <time>2020-04-09T14:11:07Z</time>
      </trkpt>
      <trkpt lat="44.66637" lon="6.689">
        <ele>1476</ele>
        <time>2020-04-09T14:11:19Z</time>
      </trkpt>
      <trkpt lat="44.66598" lon="6.68918">
        <ele>1480</ele>
        <time>2020-04-09T14:11:52Z</time>
      </trkpt>
      <trkpt lat="44.6659" lon="6.68933">
        <ele>1484</ele>
        <time>2020-04-09T14:12:03Z</time>
      </trkpt>
      <trkpt lat="44.66635" lon="6.68992">
        <ele>1471</ele>
        <time>2020-04-09T14:12:52Z</time>
      </trkpt>
      <trkpt lat="44.66647" lon="6.69075">
        <ele>1470</ele>
        <time>2020-04-09T14:13:40Z</time>
      </trkpt>
      <trkpt lat="44.6667" lon="6.69122">
        <ele>1463</ele>
        <time>2020-04-09T14:14:13Z</time>
      </trkpt>
      <trkpt lat="44.66666" lon="6.69177">
        <ele>1471</ele>
        <time>2020-04-09T14:14:44Z</time>
      </trkpt>
      <trkpt lat="44.66726" lon="6.69348">
        <ele>1463</ele>
        <time>2020-04-09T14:16:33Z</time>
      </trkpt>
      <trkpt lat="44.66711" lon="6.69505">
        <ele>1472</ele>
        <time>2020-04-09T14:18:03Z</time>
      </trkpt>
      <trkpt lat="44.66731" lon="6.69556">
        <ele>1471</ele>
        <time>2020-04-09T14:18:36Z</time>
      </trkpt>
      <trkpt lat="44.66795" lon="6.69637">
        <ele>1460</ele>
        <time>2020-04-09T14:19:45Z</time>
      </trkpt>
      <trkpt lat="44.66774" lon="6.69705">
        <ele>1476</ele>
        <time>2020-04-09T14:20:27Z</time>
      </trkpt>
      <trkpt lat="44.66769" lon="6.69741">
        <ele>1479</ele>
        <time>2020-04-09T14:20:48Z</time>
      </trkpt>
      <trkpt lat="44.66735" lon="6.69776">
        <ele>1490</ele>
        <time>2020-04-09T14:21:22Z</time>
      </trkpt>
      <trkpt lat="44.66731" lon="6.69833">
        <ele>1492</ele>
        <time>2020-04-09T14:21:54Z</time>
      </trkpt>
      <trkpt lat="44.66749" lon="6.69964">
        <ele>1507</ele>
        <time>2020-04-09T14:23:10Z</time>
      </trkpt>
      <trkpt lat="44.66831" lon="6.70085">
        <ele>1512</ele>
        <time>2020-04-09T14:24:46Z</time>
      </trkpt>
      <trkpt lat="44.66869" lon="6.70123">
        <ele>1508</ele>
        <time>2020-04-09T14:25:23Z</time>
      </trkpt>
      <trkpt lat="44.66878" lon="6.70191">
        <ele>1527</ele>
        <time>2020-04-09T14:26:02Z</time>
      </trkpt>
      <trkpt lat="44.66871" lon="6.70237">
        <ele>1545</ele>
        <time>2020-04-09T14:26:29Z</time>
      </trkpt>
      <trkpt lat="44.66888" lon="6.70265">
        <ele>1547</ele>
        <time>2020-04-09T14:26:50Z</time>
      </trkpt>
      <trkpt lat="44.66957" lon="6.70292">
        <ele>1537</ele>
        <time>2020-04-09T14:27:47Z</time>
      </trkpt>
      <trkpt lat="44.66994" lon="6.70333">
        <ele>1542</ele>
        <time>2020-04-09T14:28:25Z</time>
      </trkpt>
      <trkpt lat="44.66991" lon="6.70371">
        <ele>1550</ele>
        <time>2020-04-09T14:28:47Z</time>
      </trkpt>
      <trkpt lat="44.67022" lon="6.70419">
        <ele>1536</ele>
        <time>2020-04-09T14:29:24Z</time>
      </trkpt>
      <trkpt lat="44.67024" lon="6.70437">
        <ele>1534</ele>
        <time>2020-04-09T14:29:34Z</time>
      </trkpt>
      <trkpt lat="44.67011" lon="6.70456">
        <ele>1543</ele>
        <time>2020-04-09T14:29:49Z</time>
      </trkpt>
      <trkpt lat="44.67011" lon="6.70485">
        <ele>1542</ele>
        <time>2020-04-09T14:30:06Z</time>
      </trkpt>
      <trkpt lat="44.66967" lon="6.70557">
        <ele>1554</ele>
        <time>2020-04-09T14:31:00Z</time>
      </trkpt>
      <trkpt lat="44.66938" lon="6.70629">
        <ele>1550</ele>
        <time>2020-04-09T14:31:47Z</time>
      </trkpt>
      <trkpt lat="44.66916" lon="6.70672">
        <ele>1549</ele>
        <time>2020-04-09T14:32:17Z</time>
      </trkpt>
      <trkpt lat="44.669" lon="6.70727">
        <ele>1541</ele>
        <time>2020-04-09T14:32:51Z</time>
      </trkpt>
      <trkpt lat="44.66864" lon="6.70749">
        <ele>1550</ele>
        <time>2020-04-09T14:33:22Z</time>
      </trkpt>
      <trkpt lat="44.66852" lon="6.70788">
        <ele>1543</ele>
        <time>2020-04-09T14:33:47Z</time>
      </trkpt>
      <trkpt lat="44.66814" lon="6.70807">
        <ele>1548</ele>
        <time>2020-04-09T14:34:19Z</time>
      </trkpt>
      <trkpt lat="44.668" lon="6.70843">
        <ele>1539</ele>
        <time>2020-04-09T14:34:42Z</time>
      </trkpt>
      <trkpt lat="44.66756" lon="6.70829">
        <ele>1553</ele>
        <time>2020-04-09T14:35:18Z</time>
      </trkpt>
      <trkpt lat="44.66674" lon="6.70872">
        <ele>1554</ele>
        <time>2020-04-09T14:36:28Z</time>
      </trkpt>
      <trkpt lat="44.66646" lon="6.70897">
        <ele>1555</ele>
        <time>2020-04-09T14:36:55Z</time>
      </trkpt>
      <trkpt lat="44.66607" lon="6.70922">
        <ele>1565</ele>
        <time>2020-04-09T14:37:29Z</time>
      </trkpt>
      <trkpt lat="44.66565" lon="6.70982">
        <ele>1559</ele>
        <time>2020-04-09T14:38:17Z</time>
      </trkpt>
      <trkpt lat="44.66551" lon="6.71033">
        <ele>1547</ele>
        <time>2020-04-09T14:38:48Z</time>
      </trkpt>
      <trkpt lat="44.66449" lon="6.71059">
        <ele>1576</ele>
        <time>2020-04-09T14:40:11Z</time>
      </trkpt>
      <trkpt lat="44.66388" lon="6.71087">
        <ele>1584</ele>
        <time>2020-04-09T14:41:03Z</time>
      </trkpt>
      <trkpt lat="44.66333" lon="6.71125">
        <ele>1597</ele>
        <time>2020-04-09T14:41:52Z</time>
      </trkpt>
      <trkpt lat="44.66301" lon="6.7118">
        <ele>1599</ele>
        <time>2020-04-09T14:42:32Z</time>
      </trkpt>
      <trkpt lat="44.66323" lon="6.71218">
        <ele>1587</ele>
        <time>2020-04-09T14:43:00Z</time>
      </trkpt>
      <trkpt lat="44.66309" lon="6.71286">
        <ele>1584</ele>
        <time>2020-04-09T14:43:40Z</time>
      </trkpt>
      <trkpt lat="44.66288" lon="6.71296">
        <ele>1590</ele>
        <time>2020-04-09T14:43:58Z</time>
      </trkpt>
      <trkpt lat="44.6627" lon="6.71245">
        <ele>1602</ele>
        <time>2020-04-09T14:44:31Z</time>
      </trkpt>
      <trkpt lat="44.66231" lon="6.71226">
        <ele>1623</ele>
        <time>2020-04-09T14:45:04Z</time>
      </trkpt>
      <trkpt lat="44.66154" lon="6.71254">
        <ele>1657</ele>
        <time>2020-04-09T14:46:07Z</time>
      </trkpt>
      <trkpt lat="44.66193" lon="6.71343">
        <ele>1634</ele>
        <time>2020-04-09T14:47:07Z</time>
      </trkpt>
      <trkpt lat="44.6619" lon="6.71416">
        <ele>1639</ele>
        <time>2020-04-09T14:47:49Z</time>
      </trkpt>
      <trkpt lat="44.6617" lon="6.71457">
        <ele>1657</ele>
        <time>2020-04-09T14:48:17Z</time>
      </trkpt>
      <trkpt lat="44.66217" lon="6.71515">
        <ele>1650</ele>
        <time>2020-04-09T14:49:07Z</time>
      </trkpt>
      <trkpt lat="44.66222" lon="6.71614">
        <ele>1678</ele>
        <time>2020-04-09T14:50:03Z</time>
      </trkpt>
      <trkpt lat="44.66253" lon="6.71618">
        <ele>1668</ele>
        <time>2020-04-09T14:50:28Z</time>
      </trkpt>
      <trkpt lat="44.66377" lon="6.71581">
        <ele>1659</ele>
        <time>2020-04-09T14:52:10Z</time>
      </trkpt>
      <trkpt lat="44.66449" lon="6.71551">
        <ele>1652</ele>
        <time>2020-04-09T14:53:10Z</time>
      </trkpt>
      <trkpt lat="44.66505" lon="6.71537">
        <ele>1648</ele>
        <time>2020-04-09T14:53:56Z</time>
      </trkpt>
      <trkpt lat="44.66546" lon="6.71549">
        <ele>1638</ele>
        <time>2020-04-09T14:54:29Z</time>
      </trkpt>
      <trkpt lat="44.66571" lon="6.71584">
        <ele>1646</ele>
        <time>2020-04-09T14:54:57Z</time>
      </trkpt>
      <trkpt lat="44.66573" lon="6.71616">
        <ele>1656</ele>
        <time>2020-04-09T14:55:16Z</time>
      </trkpt>
      <trkpt lat="44.66625" lon="6.71641">
        <ele>1646</ele>
        <time>2020-04-09T14:56:00Z</time>
      </trkpt>
      <trkpt lat="44.66648" lon="6.71676">
        <ele>1651</ele>
        <time>2020-04-09T14:56:27Z</time>
      </trkpt>
      <trkpt lat="44.66697" lon="6.71675">
        <ele>1635</ele>
        <time>2020-04-09T14:57:06Z</time>
      </trkpt>
      <trkpt lat="44.6672" lon="6.717">
        <ele>1633</ele>
        <time>2020-04-09T14:57:29Z</time>
      </trkpt>
      <trkpt lat="44.66734" lon="6.71735">
        <ele>1633</ele>
        <time>2020-04-09T14:57:52Z</time>
      </trkpt>
      <trkpt lat="44.66742" lon="6.71846">
        <ele>1638</ele>
        <time>2020-04-09T14:58:56Z</time>
      </trkpt>
      <trkpt lat="44.66792" lon="6.71891">
        <ele>1619</ele>
        <time>2020-04-09T14:59:43Z</time>
      </trkpt>
      <trkpt lat="44.66824" lon="6.71943">
        <ele>1614</ele>
        <time>2020-04-09T15:00:22Z</time>
      </trkpt>
      <trkpt lat="44.66833" lon="6.71985">
        <ele>1615</ele>
        <time>2020-04-09T15:00:47Z</time>
      </trkpt>
      <trkpt lat="44.66862" lon="6.72019">
        <ele>1599</ele>
        <time>2020-04-09T15:01:18Z</time>
      </trkpt>
      <trkpt lat="44.66864" lon="6.72079">
        <ele>1598</ele>
        <time>2020-04-09T15:01:52Z</time>
      </trkpt>
      <trkpt lat="44.66852" lon="6.72106">
        <ele>1599</ele>
        <time>2020-04-09T15:02:10Z</time>
      </trkpt>
      <trkpt lat="44.66847" lon="6.72136">
        <ele>1595</ele>
        <time>2020-04-09T15:02:27Z</time>
      </trkpt>
      <trkpt lat="44.66813" lon="6.72198">
        <ele>1605</ele>
        <time>2020-04-09T15:03:12Z</time>
      </trkpt>
      <trkpt lat="44.66812" lon="6.72255">
        <ele>1596</ele>
        <time>2020-04-09T15:03:44Z</time>
      </trkpt>
      <trkpt lat="44.66827" lon="6.72329">
        <ele>1578</ele>
        <time>2020-04-09T15:04:28Z</time>
      </trkpt>
      <trkpt lat="44.66831" lon="6.72255">
        <ele>1580</ele>
        <time>2020-04-09T15:05:11Z</time>
      </trkpt>
      <trkpt lat="44.66837" lon="6.72217">
        <ele>1583</ele>
        <time>2020-04-09T15:05:33Z</time>
      </trkpt>
      <trkpt lat="44.66854" lon="6.72305">
        <ele>1558</ele>
        <time>2020-04-09T15:06:25Z</time>
      </trkpt>
      <trkpt lat="44.66843" lon="6.72351">
        <ele>1562</ele>
        <time>2020-04-09T15:06:52Z</time>
      </trkpt>
      <trkpt lat="44.66848" lon="6.72407">
        <ele>1550</ele>
        <time>2020-04-09T15:07:24Z</time>
      </trkpt>
      <trkpt lat="44.66824" lon="6.72539">
        <ele>1534</ele>
        <time>2020-04-09T15:08:42Z</time>
      </trkpt>
      <trkpt lat="44.66797" lon="6.72595">
        <ele>1540</ele>
        <time>2020-04-09T15:09:21Z</time>
      </trkpt>
      <trkpt lat="44.66816" lon="6.72736">
        <ele>1514</ele>
        <time>2020-04-09T15:10:42Z</time>
      </trkpt>
      <trkpt lat="44.668" lon="6.72828">
        <ele>1517</ele>
        <time>2020-04-09T15:11:36Z</time>
      </trkpt>
      <trkpt lat="44.66827" lon="6.72809">
        <ele>1503</ele>
        <time>2020-04-09T15:12:00Z</time>
      </trkpt>
      <trkpt lat="44.66849" lon="6.72765">
        <ele>1497</ele>
        <time>2020-04-09T15:12:31Z</time>
      </trkpt>
      <trkpt lat="44.66855" lon="6.72887">
        <ele>1493</ele>
        <time>2020-04-09T15:13:41Z</time>
      </trkpt>
      <trkpt lat="44.66915" lon="6.7292">
        <ele>1477</ele>
        <time>2020-04-09T15:14:32Z</time>
      </trkpt>
      <trkpt lat="44.66962" lon="6.72915">
        <ele>1467</ele>
        <time>2020-04-09T15:15:10Z</time>
      </trkpt>
      <trkpt lat="44.67007" lon="6.7293">
        <ele>1457</ele>
        <time>2020-04-09T15:15:47Z</time>
      </trkpt>
      <trkpt lat="44.67043" lon="6.72921">
        <ele>1443</ele>
        <time>2020-04-09T15:16:16Z</time>
      </trkpt>
      <trkpt lat="44.67045" lon="6.72956">
        <ele>1442</ele>
        <time>2020-04-09T15:16:36Z</time>
      </trkpt>
      <trkpt lat="44.67012" lon="6.73034">
        <ele>1451</ele>
        <time>2020-04-09T15:17:28Z</time>
      </trkpt>
      <trkpt lat="44.6699" lon="6.73108">
        <ele>1450</ele>
        <time>2020-04-09T15:18:14Z</time>
      </trkpt>
      <trkpt lat="44.6695" lon="6.73214">
        <ele>1452</ele>
        <time>2020-04-09T15:19:22Z</time>
      </trkpt>
      <trkpt lat="44.66979" lon="6.73262">
        <ele>1442</ele>
        <time>2020-04-09T15:19:58Z</time>
      </trkpt>
      <trkpt lat="44.67002" lon="6.73285">
        <ele>1438</ele>
        <time>2020-04-09T15:20:20Z</time>
      </trkpt>
      <trkpt lat="44.6699" lon="6.73321">
        <ele>1442</ele>
        <time>2020-04-09T15:20:43Z</time>
      </trkpt>
      <trkpt lat="44.6697" lon="6.73341">
        <ele>1448</ele>
        <time>2020-04-09T15:21:03Z</time>
      </trkpt>
      <trkpt lat="44.66988" lon="6.73425">
        <ele>1457</ele>
        <time>2020-04-09T15:21:53Z</time>
      </trkpt>
      <trkpt lat="44.66963" lon="6.73522">
        <ele>1473</ele>
        <time>2020-04-09T15:22:51Z</time>
      </trkpt>
      <trkpt lat="44.66958" lon="6.73584">
        <ele>1481</ele>
        <time>2020-04-09T15:23:27Z</time>
      </trkpt>
      <trkpt lat="44.6692" lon="6.73648">
        <ele>1490</ele>
        <time>2020-04-09T15:24:14Z</time>
      </trkpt>
      <trkpt lat="44.66911" lon="6.73654">
        <ele>1493</ele>
        <time>2020-04-09T15:24:22Z</time>
      </trkpt>
      <trkpt lat="44.66906" lon="6.73739">
        <ele>1493</ele>
        <time>2020-04-09T15:25:11Z</time>
      </trkpt>
      <trkpt lat="44.6688" lon="6.73857">
        <ele>1504</ele>
        <time>2020-04-09T15:26:21Z</time>
      </trkpt>
      <trkpt lat="44.66842" lon="6.73978">
        <ele>1508</ele>
        <time>2020-04-09T15:27:37Z</time>
      </trkpt>
      <trkpt lat="44.66879" lon="6.73984">
        <ele>1505</ele>
        <time>2020-04-09T15:28:06Z</time>
      </trkpt>
      <trkpt lat="44.6691" lon="6.73968">
        <ele>1502</ele>
        <time>2020-04-09T15:28:33Z</time>
      </trkpt>
      <trkpt lat="44.669" lon="6.74069">
        <ele>1518</ele>
        <time>2020-04-09T15:29:31Z</time>
      </trkpt>
      <trkpt lat="44.66851" lon="6.74151">
        <ele>1517</ele>
        <time>2020-04-09T15:30:32Z</time>
      </trkpt>
      <trkpt lat="44.66857" lon="6.74189">
        <ele>1523</ele>
        <time>2020-04-09T15:30:54Z</time>
      </trkpt>
      <trkpt lat="44.66839" lon="6.74215">
        <ele>1521</ele>
        <time>2020-04-09T15:31:15Z</time>
      </trkpt>
      <trkpt lat="44.66842" lon="6.74299">
        <ele>1527</ele>
        <time>2020-04-09T15:32:03Z</time>
      </trkpt>
      <trkpt lat="44.66858" lon="6.74332">
        <ele>1533</ele>
        <time>2020-04-09T15:32:25Z</time>
      </trkpt>
      <trkpt lat="44.66863" lon="6.74453">
        <ele>1540</ele>
        <time>2020-04-09T15:33:34Z</time>
      </trkpt>
      <trkpt lat="44.66877" lon="6.74491">
        <ele>1545</ele>
        <time>2020-04-09T15:33:59Z</time>
      </trkpt>
      <trkpt lat="44.66862" lon="6.74566">
        <ele>1543</ele>
        <time>2020-04-09T15:34:43Z</time>
      </trkpt>
      <trkpt lat="44.66844" lon="6.74608">
        <ele>1540</ele>
        <time>2020-04-09T15:35:11Z</time>
      </trkpt>
      <trkpt lat="44.6685" lon="6.74692">
        <ele>1547</ele>
        <time>2020-04-09T15:35:59Z</time>
      </trkpt>
      <trkpt lat="44.6685" lon="6.74773">
        <ele>1554</ele>
        <time>2020-04-09T15:36:45Z</time>
      </trkpt>
      <trkpt lat="44.66837" lon="6.74789">
        <ele>1553</ele>
        <time>2020-04-09T15:36:59Z</time>
      </trkpt>
      <trkpt lat="44.66789" lon="6.74755">
        <ele>1551</ele>
        <time>2020-04-09T15:37:42Z</time>
      </trkpt>
      <trkpt lat="44.66751" lon="6.74775">
        <ele>1556</ele>
        <time>2020-04-09T15:38:15Z</time>
      </trkpt>
      <trkpt lat="44.66729" lon="6.74843">
        <ele>1570</ele>
        <time>2020-04-09T15:38:57Z</time>
      </trkpt>
      <trkpt lat="44.66736" lon="6.74889">
        <ele>1580</ele>
        <time>2020-04-09T15:39:24Z</time>
      </trkpt>
      <trkpt lat="44.6681" lon="6.74969">
        <ele>1585</ele>
        <time>2020-04-09T15:40:39Z</time>
      </trkpt>
      <trkpt lat="44.66811" lon="6.75048">
        <ele>1597</ele>
        <time>2020-04-09T15:41:24Z</time>
      </trkpt>
      <trkpt lat="44.66805" lon="6.75148">
        <ele>1605</ele>
        <time>2020-04-09T15:42:21Z</time>
      </trkpt>
      <trkpt lat="44.66797" lon="6.75183">
        <ele>1609</ele>
        <time>2020-04-09T15:42:42Z</time>
      </trkpt>
      <trkpt lat="44.66818" lon="6.75286">
        <ele>1610</ele>
        <time>2020-04-09T15:43:43Z</time>
      </trkpt>
      <trkpt lat="44.66813" lon="6.75348">
        <ele>1611</ele>
        <time>2020-04-09T15:44:18Z</time>
      </trkpt>
      <trkpt lat="44.66801" lon="6.75389">
        <ele>1611</ele>
        <time>2020-04-09T15:44:44Z</time>
      </trkpt>
      <trkpt lat="44.66801" lon="6.75506">
        <ele>1607</ele>
        <time>2020-04-09T15:45:50Z</time>
      </trkpt>
      <trkpt lat="44.66781" lon="6.75529">
        <ele>1607</ele>
        <time>2020-04-09T15:46:11Z</time>
      </trkpt>
      <trkpt lat="44.66733" lon="6.75518">
        <ele>1614</ele>
        <time>2020-04-09T15:46:50Z</time>
      </trkpt>
      <trkpt lat="44.66702" lon="6.75547">
        <ele>1622</ele>
        <time>2020-04-09T15:47:20Z</time>
      </trkpt>
      <trkpt lat="44.66708" lon="6.75867">
        <ele>1624</ele>
        <time>2020-04-09T15:50:22Z</time>
      </trkpt>
      <trkpt lat="44.66693" lon="6.75949">
        <ele>1632</ele>
        <time>2020-04-09T15:51:10Z</time>
      </trkpt>
      <trkpt lat="44.66745" lon="6.76016">
        <ele>1617</ele>
        <time>2020-04-09T15:52:07Z</time>
      </trkpt>
      <trkpt lat="44.66774" lon="6.76103">
        <ele>1618</ele>
        <time>2020-04-09T15:53:01Z</time>
      </trkpt>
      <trkpt lat="44.66753" lon="6.76145">
        <ele>1622</ele>
        <time>2020-04-09T15:53:31Z</time>
      </trkpt>
      <trkpt lat="44.6673" lon="6.7626">
        <ele>1624</ele>
        <time>2020-04-09T15:54:39Z</time>
      </trkpt>
      <trkpt lat="44.66689" lon="6.76318">
        <ele>1628</ele>
        <time>2020-04-09T15:55:25Z</time>
      </trkpt>
      <trkpt lat="44.66688" lon="6.76395">
        <ele>1621</ele>
        <time>2020-04-09T15:56:09Z</time>
      </trkpt>
      <trkpt lat="44.66658" lon="6.7647">
        <ele>1628</ele>
        <time>2020-04-09T15:56:58Z</time>
      </trkpt>
      <trkpt lat="44.66662" lon="6.76514">
        <ele>1627</ele>
        <time>2020-04-09T15:57:23Z</time>
      </trkpt>
      <trkpt lat="44.66678" lon="6.76562">
        <ele>1624</ele>
        <time>2020-04-09T15:57:53Z</time>
      </trkpt>
      <trkpt lat="44.66671" lon="6.76629">
        <ele>1626</ele>
        <time>2020-04-09T15:58:32Z</time>
      </trkpt>
      <trkpt lat="44.66672" lon="6.7667">
        <ele>1625</ele>
        <time>2020-04-09T15:58:55Z</time>
      </trkpt>
      <trkpt lat="44.66665" lon="6.76743">
        <ele>1628</ele>
        <time>2020-04-09T15:59:37Z</time>
      </trkpt>
      <trkpt lat="44.66674" lon="6.76825">
        <ele>1630</ele>
        <time>2020-04-09T16:00:25Z</time>
      </trkpt>
      <trkpt lat="44.66624" lon="6.77019">
        <ele>1640</ele>
        <time>2020-04-09T16:02:22Z</time>
      </trkpt>
      <trkpt lat="44.66615" lon="6.77089">
        <ele>1640</ele>
        <time>2020-04-09T16:03:03Z</time>
      </trkpt>
      <trkpt lat="44.666" lon="6.77166">
        <ele>1638</ele>
        <time>2020-04-09T16:03:48Z</time>
      </trkpt>
      <trkpt lat="44.66592" lon="6.77238">
        <ele>1634</ele>
        <time>2020-04-09T16:04:29Z</time>
      </trkpt>
      <trkpt lat="44.66563" lon="6.77329">
        <ele>1637</ele>
        <time>2020-04-09T16:05:26Z</time>
      </trkpt>
      <trkpt lat="44.66537" lon="6.77385">
        <ele>1638</ele>
        <time>2020-04-09T16:06:04Z</time>
      </trkpt>
      <trkpt lat="44.66496" lon="6.77485">
        <ele>1636</ele>
        <time>2020-04-09T16:07:10Z</time>
      </trkpt>
      <trkpt lat="44.6647" lon="6.77562">
        <ele>1637</ele>
        <time>2020-04-09T16:07:59Z</time>
      </trkpt>
      <trkpt lat="44.66381" lon="6.77662">
        <ele>1645</ele>
        <time>2020-04-09T16:09:30Z</time>
      </trkpt>
      <trkpt lat="44.6632" lon="6.77794">
        <ele>1645</ele>
        <time>2020-04-09T16:11:00Z</time>
      </trkpt>
      <trkpt lat="44.66321" lon="6.77846">
        <ele>1640</ele>
        <time>2020-04-09T16:11:29Z</time>
      </trkpt>
      <trkpt lat="44.66283" lon="6.77835">
        <ele>1646</ele>
        <time>2020-04-09T16:12:00Z</time>
      </trkpt>
      <trkpt lat="44.66231" lon="6.77882">
        <ele>1651</ele>
        <time>2020-04-09T16:12:50Z</time>
      </trkpt>
      <trkpt lat="44.66215" lon="6.77934">
        <ele>1648</ele>
        <time>2020-04-09T16:13:22Z</time>
      </trkpt>
      <trkpt lat="44.66185" lon="6.77972">
        <ele>1649</ele>
        <time>2020-04-09T16:13:54Z</time>
      </trkpt>
      <trkpt lat="44.6614" lon="6.77992">
        <ele>1658</ele>
        <time>2020-04-09T16:14:32Z</time>
      </trkpt>
      <trkpt lat="44.66096" lon="6.78077">
        <ele>1652</ele>
        <time>2020-04-09T16:15:32Z</time>
      </trkpt>
      <trkpt lat="44.66048" lon="6.78118">
        <ele>1660</ele>
        <time>2020-04-09T16:16:17Z</time>
      </trkpt>
      <trkpt lat="44.66034" lon="6.7819">
        <ele>1652</ele>
        <time>2020-04-09T16:16:59Z</time>
      </trkpt>
      <trkpt lat="44.65998" lon="6.78228">
        <ele>1655</ele>
        <time>2020-04-09T16:17:35Z</time>
      </trkpt>
      <trkpt lat="44.65959" lon="6.7825">
        <ele>1657</ele>
        <time>2020-04-09T16:18:09Z</time>
      </trkpt>
      <trkpt lat="44.65896" lon="6.78322">
        <ele>1658</ele>
        <time>2020-04-09T16:19:14Z</time>
      </trkpt>
      <trkpt lat="44.65852" lon="6.78395">
        <ele>1659</ele>
        <time>2020-04-09T16:20:09Z</time>
      </trkpt>
      <trkpt lat="44.65789" lon="6.78486">
        <ele>1659</ele>
        <time>2020-04-09T16:21:21Z</time>
      </trkpt>
      <trkpt lat="44.65721" lon="6.78511">
        <ele>1667</ele>
        <time>2020-04-09T16:22:17Z</time>
      </trkpt>
      <trkpt lat="44.65689" lon="6.78566">
        <ele>1666</ele>
        <time>2020-04-09T16:22:58Z</time>
      </trkpt>
      <trkpt lat="44.65631" lon="6.78632">
        <ele>1668</ele>
        <time>2020-04-09T16:23:57Z</time>
      </trkpt>
      <trkpt lat="44.65575" lon="6.78675">
        <ele>1669</ele>
        <time>2020-04-09T16:24:49Z</time>
      </trkpt>
      <trkpt lat="44.65507" lon="6.78703">
        <ele>1675</ele>
        <time>2020-04-09T16:25:45Z</time>
      </trkpt>
      <trkpt lat="44.65447" lon="6.78706">
        <ele>1685</ele>
        <time>2020-04-09T16:26:33Z</time>
      </trkpt>
      <trkpt lat="44.65361" lon="6.78691">
        <ele>1703</ele>
        <time>2020-04-09T16:27:43Z</time>
      </trkpt>
      <trkpt lat="44.65318" lon="6.78747">
        <ele>1700</ele>
        <time>2020-04-09T16:28:30Z</time>
      </trkpt>
      <trkpt lat="44.65291" lon="6.78789">
        <ele>1700</ele>
        <time>2020-04-09T16:29:02Z</time>
      </trkpt>
      <trkpt lat="44.65262" lon="6.78825">
        <ele>1701</ele>
        <time>2020-04-09T16:29:33Z</time>
      </trkpt>
      <trkpt lat="44.6523" lon="6.78854">
        <ele>1702</ele>
        <time>2020-04-09T16:30:03Z</time>
      </trkpt>
      <trkpt lat="44.65202" lon="6.78905">
        <ele>1696</ele>
        <time>2020-04-09T16:30:40Z</time>
      </trkpt>
      <trkpt lat="44.65156" lon="6.78962">
        <ele>1694</ele>
        <time>2020-04-09T16:31:29Z</time>
      </trkpt>
      <trkpt lat="44.65125" lon="6.78985">
        <ele>1693</ele>
        <time>2020-04-09T16:31:57Z</time>
      </trkpt>
      <trkpt lat="44.65097" lon="6.78998">
        <ele>1692</ele>
        <time>2020-04-09T16:32:21Z</time>
      </trkpt>
      <trkpt lat="44.65073" lon="6.79026">
        <ele>1692</ele>
        <time>2020-04-09T16:32:46Z</time>
      </trkpt>
      <trkpt lat="44.65065" lon="6.79068">
        <ele>1689</ele>
        <time>2020-04-09T16:33:11Z</time>
      </trkpt>
      <trkpt lat="44.65054" lon="6.79097">
        <ele>1689</ele>
        <time>2020-04-09T16:33:29Z</time>
      </trkpt>
      <trkpt lat="44.65022" lon="6.79121">
        <ele>1693</ele>
        <time>2020-04-09T16:33:58Z</time>
      </trkpt>
      <trkpt lat="44.64969" lon="6.79139">
        <ele>1696</ele>
        <time>2020-04-09T16:34:42Z</time>
      </trkpt>
      <trkpt lat="44.64891" lon="6.79186">
        <ele>1697</ele>
        <time>2020-04-09T16:35:50Z</time>
      </trkpt>
      <trkpt lat="44.64829" lon="6.79196">
        <ele>1705</ele>
        <time>2020-04-09T16:36:40Z</time>
      </trkpt>
      <trkpt lat="44.64819" lon="6.7923">
        <ele>1704</ele>
        <time>2020-04-09T16:37:01Z</time>
      </trkpt>
      <trkpt lat="44.64781" lon="6.79283">
        <ele>1707</ele>
        <time>2020-04-09T16:37:44Z</time>
      </trkpt>
      <trkpt lat="44.6474" lon="6.79326">
        <ele>1709</ele>
        <time>2020-04-09T16:38:25Z</time>
      </trkpt>
      <trkpt lat="44.64703" lon="6.79411">
        <ele>1714</ele>
        <time>2020-04-09T16:39:21Z</time>
      </trkpt>
      <trkpt lat="44.64699" lon="6.79494">
        <ele>1720</ele>
        <time>2020-04-09T16:40:09Z</time>
      </trkpt>
      <trkpt lat="44.64661" lon="6.79596">
        <ele>1732</ele>
        <time>2020-04-09T16:41:14Z</time>
      </trkpt>
      <trkpt lat="44.64668" lon="6.79662">
        <ele>1738</ele>
        <time>2020-04-09T16:41:52Z</time>
      </trkpt>
      <trkpt lat="44.64669" lon="6.79728">
        <ele>1745</ele>
        <time>2020-04-09T16:42:30Z</time>
      </trkpt>
      <trkpt lat="44.64659" lon="6.7979">
        <ele>1754</ele>
        <time>2020-04-09T16:43:06Z</time>
      </trkpt>
      <trkpt lat="44.64622" lon="6.79894">
        <ele>1773</ele>
        <time>2020-04-09T16:44:12Z</time>
      </trkpt>
      <trkpt lat="44.6458" lon="6.79989">
        <ele>1780</ele>
        <time>2020-04-09T16:45:16Z</time>
      </trkpt>
      <trkpt lat="44.64551" lon="6.80008">
        <ele>1785</ele>
        <time>2020-04-09T16:45:42Z</time>
      </trkpt>
      <trkpt lat="44.6446" lon="6.80025">
        <ele>1807</ele>
        <time>2020-04-09T16:46:55Z</time>
      </trkpt>
      <trkpt lat="44.6441" lon="6.80099">
        <ele>1815</ele>
        <time>2020-04-09T16:47:53Z</time>
      </trkpt>
      <trkpt lat="44.6438" lon="6.80148">
        <ele>1823</ele>
        <time>2020-04-09T16:48:30Z</time>
      </trkpt>
      <trkpt lat="44.64363" lon="6.80228">
        <ele>1822</ele>
        <time>2020-04-09T16:49:18Z</time>
      </trkpt>
      <trkpt lat="44.6433" lon="6.80305">
        <ele>1824</ele>
        <time>2020-04-09T16:50:09Z</time>
      </trkpt>
      <trkpt lat="44.64318" lon="6.80327">
        <ele>1828</ele>
        <time>2020-04-09T16:50:25Z</time>
      </trkpt>
      <trkpt lat="44.64312" lon="6.80351">
        <ele>1830</ele>
        <time>2020-04-09T16:50:39Z</time>
      </trkpt>
      <trkpt lat="44.64329" lon="6.80239">
        <ele>1829</ele>
        <time>2020-04-09T16:51:45Z</time>
      </trkpt>
      <trkpt lat="44.64356" lon="6.80006">
        <ele>1857</ele>
        <time>2020-04-09T16:53:59Z</time>
      </trkpt>
      <trkpt lat="44.64364" lon="6.79959">
        <ele>1856</ele>
        <time>2020-04-09T16:54:27Z</time>
      </trkpt>
      <trkpt lat="44.64318" lon="6.79833">
        <ele>1872</ele>
        <time>2020-04-09T16:55:47Z</time>
      </trkpt>
      <trkpt lat="44.64299" lon="6.79858">
        <ele>1881</ele>
        <time>2020-04-09T16:56:08Z</time>
      </trkpt>
      <trkpt lat="44.64292" lon="6.79885">
        <ele>1886</ele>
        <time>2020-04-09T16:56:24Z</time>
      </trkpt>
      <trkpt lat="44.64294" lon="6.79958">
        <ele>1890</ele>
        <time>2020-04-09T16:57:06Z</time>
      </trkpt>
      <trkpt lat="44.64279" lon="6.80006">
        <ele>1902</ele>
        <time>2020-04-09T16:57:36Z</time>
      </trkpt>
      <trkpt lat="44.64262" lon="6.80004">
        <ele>1913</ele>
        <time>2020-04-09T16:57:50Z</time>
      </trkpt>
      <trkpt lat="44.64252" lon="6.7993">
        <ele>1909</ele>
        <time>2020-04-09T16:58:33Z</time>
      </trkpt>
      <trkpt lat="44.64174" lon="6.79869">
        <ele>1942</ele>
        <time>2020-04-09T16:59:44Z</time>
      </trkpt>
      <trkpt lat="44.64155" lon="6.79796">
        <ele>1945</ele>
        <time>2020-04-09T17:00:28Z</time>
      </trkpt>
      <trkpt lat="44.64107" lon="6.79791">
        <ele>1970</ele>
        <time>2020-04-09T17:01:07Z</time>
      </trkpt>
      <trkpt lat="44.64074" lon="6.79773">
        <ele>1987</ele>
        <time>2020-04-09T17:01:35Z</time>
      </trkpt>
      <trkpt lat="44.64053" lon="6.79732">
        <ele>2002</ele>
        <time>2020-04-09T17:02:04Z</time>
      </trkpt>
      <trkpt lat="44.6403" lon="6.79769">
        <ele>2012</ele>
        <time>2020-04-09T17:02:32Z</time>
      </trkpt>
      <trkpt lat="44.64044" lon="6.79819">
        <ele>2003</ele>
        <time>2020-04-09T17:03:03Z</time>
      </trkpt>
      <trkpt lat="44.64033" lon="6.79899">
        <ele>2025</ele>
        <time>2020-04-09T17:03:49Z</time>
      </trkpt>
      <trkpt lat="44.6402" lon="6.79903">
        <ele>2032</ele>
        <time>2020-04-09T17:04:00Z</time>
      </trkpt>
      <trkpt lat="44.6395" lon="6.79813">
        <ele>2042</ele>
        <time>2020-04-09T17:05:16Z</time>
      </trkpt>
      <trkpt lat="44.63954" lon="6.79761">
        <ele>2042</ele>
        <time>2020-04-09T17:05:45Z</time>
      </trkpt>
      <trkpt lat="44.63903" lon="6.79717">
        <ele>2052</ele>
        <time>2020-04-09T17:06:33Z</time>
      </trkpt>
      <trkpt lat="44.6386" lon="6.79736">
        <ele>2062</ele>
        <time>2020-04-09T17:07:09Z</time>
      </trkpt>
      <trkpt lat="44.63827" lon="6.7974">
        <ele>2067</ele>
        <time>2020-04-09T17:07:36Z</time>
      </trkpt>
      <trkpt lat="44.63761" lon="6.79779">
        <ele>2070</ele>
        <time>2020-04-09T17:08:33Z</time>
      </trkpt>
      <trkpt lat="44.637" lon="6.79806">
        <ele>2072</ele>
        <time>2020-04-09T17:09:24Z</time>
      </trkpt>
      <trkpt lat="44.63699" lon="6.79834">
        <ele>2077</ele>
        <time>2020-04-09T17:09:40Z</time>
      </trkpt>
      <trkpt lat="44.63767" lon="6.79843">
        <ele>2080</ele>
        <time>2020-04-09T17:10:35Z</time>
      </trkpt>
      <trkpt lat="44.63767" lon="6.79869">
        <ele>2086</ele>
        <time>2020-04-09T17:10:50Z</time>
      </trkpt>
      <trkpt lat="44.6366" lon="6.79904">
        <ele>2101</ele>
        <time>2020-04-09T17:12:18Z</time>
      </trkpt>
      <trkpt lat="44.63619" lon="6.79935">
        <ele>2111</ele>
        <time>2020-04-09T17:12:55Z</time>
      </trkpt>
      <trkpt lat="44.63538" lon="6.79975">
        <ele>2119</ele>
        <time>2020-04-09T17:14:04Z</time>
      </trkpt>
      <trkpt lat="44.63464" lon="6.79994">
        <ele>2122</ele>
        <time>2020-04-09T17:15:04Z</time>
      </trkpt>
      <trkpt lat="44.63388" lon="6.80018">
        <ele>2139</ele>
        <time>2020-04-09T17:16:06Z</time>
      </trkpt>
      <trkpt lat="44.63368" lon="6.79987">
        <ele>2138</ele>
        <time>2020-04-09T17:16:30Z</time>
      </trkpt>
      <trkpt lat="44.63362" lon="6.79944">
        <ele>2138</ele>
        <time>2020-04-09T17:16:55Z</time>
      </trkpt>
      <trkpt lat="44.6334" lon="6.79908">
        <ele>2146</ele>
        <time>2020-04-09T17:17:22Z</time>
      </trkpt>
      <trkpt lat="44.63308" lon="6.79869">
        <ele>2156</ele>
        <time>2020-04-09T17:17:56Z</time>
      </trkpt>
      <trkpt lat="44.63272" lon="6.79784">
        <ele>2168</ele>
        <time>2020-04-09T17:18:53Z</time>
      </trkpt>
      <trkpt lat="44.63272" lon="6.79722">
        <ele>2174</ele>
        <time>2020-04-09T17:19:28Z</time>
      </trkpt>
      <trkpt lat="44.63263" lon="6.79698">
        <ele>2178</ele>
        <time>2020-04-09T17:19:43Z</time>
      </trkpt>
      <trkpt lat="44.63264" lon="6.79638">
        <ele>2185</ele>
        <time>2020-04-09T17:20:18Z</time>
      </trkpt>
      <trkpt lat="44.6326" lon="6.79607">
        <ele>2189</ele>
        <time>2020-04-09T17:20:36Z</time>
      </trkpt>
      <trkpt lat="44.63264" lon="6.79564">
        <ele>2194</ele>
        <time>2020-04-09T17:21:00Z</time>
      </trkpt>
      <trkpt lat="44.63252" lon="6.79534">
        <ele>2200</ele>
        <time>2020-04-09T17:21:20Z</time>
      </trkpt>
      <trkpt lat="44.63272" lon="6.79444">
        <ele>2218</ele>
        <time>2020-04-09T17:22:14Z</time>
      </trkpt>
      <trkpt lat="44.63284" lon="6.79361">
        <ele>2228</ele>
        <time>2020-04-09T17:23:02Z</time>
      </trkpt>
      <trkpt lat="44.6333" lon="6.79329">
        <ele>2226</ele>
        <time>2020-04-09T17:23:43Z</time>
      </trkpt>
      <trkpt lat="44.63362" lon="6.79286">
        <ele>2226</ele>
        <time>2020-04-09T17:24:18Z</time>
      </trkpt>
      <trkpt lat="44.63415" lon="6.79236">
        <ele>2228</ele>
        <time>2020-04-09T17:25:10Z</time>
      </trkpt>
      <trkpt lat="44.6354" lon="6.79169">
        <ele>2224</ele>
        <time>2020-04-09T17:26:57Z</time>
      </trkpt>
      <trkpt lat="44.63517" lon="6.79204">
        <ele>2228</ele>
        <time>2020-04-09T17:27:24Z</time>
      </trkpt>
      <trkpt lat="44.63453" lon="6.79232">
        <ele>2230</ele>
        <time>2020-04-09T17:28:17Z</time>
      </trkpt>
      <trkpt lat="44.63405" lon="6.79261">
        <ele>2230</ele>
        <time>2020-04-09T17:28:59Z</time>
      </trkpt>
      <trkpt lat="44.63334" lon="6.79297">
        <ele>2223</ele>
        <time>2020-04-09T17:30:00Z</time>
      </trkpt>
      <trkpt lat="44.6329" lon="6.79333">
        <ele>2229</ele>
        <time>2020-04-09T17:30:40Z</time>
      </trkpt>
      <trkpt lat="44.63274" lon="6.79406">
        <ele>2225</ele>
        <time>2020-04-09T17:31:24Z</time>
      </trkpt>
      <trkpt lat="44.63192" lon="6.79474">
        <ele>2222</ele>
        <time>2020-04-09T17:32:40Z</time>
      </trkpt>
      <trkpt lat="44.63184" lon="6.79574">
        <ele>2207</ele>
        <time>2020-04-09T17:33:38Z</time>
      </trkpt>
      <trkpt lat="44.63083" lon="6.79712">
        <ele>2208</ele>
        <time>2020-04-09T17:35:30Z</time>
      </trkpt>
      <trkpt lat="44.63067" lon="6.79745">
        <ele>2207</ele>
        <time>2020-04-09T17:35:53Z</time>
      </trkpt>
      <trkpt lat="44.63026" lon="6.79773">
        <ele>2217</ele>
        <time>2020-04-09T17:36:30Z</time>
      </trkpt>
      <trkpt lat="44.63018" lon="6.79805">
        <ele>2216</ele>
        <time>2020-04-09T17:36:49Z</time>
      </trkpt>
      <trkpt lat="44.62973" lon="6.79847">
        <ele>2221</ele>
        <time>2020-04-09T17:37:32Z</time>
      </trkpt>
      <trkpt lat="44.62942" lon="6.79902">
        <ele>2220</ele>
        <time>2020-04-09T17:38:12Z</time>
      </trkpt>
      <trkpt lat="44.62934" lon="6.79976">
        <ele>2221</ele>
        <time>2020-04-09T17:38:55Z</time>
      </trkpt>
      <trkpt lat="44.62911" lon="6.80049">
        <ele>2234</ele>
        <time>2020-04-09T17:39:40Z</time>
      </trkpt>
      <trkpt lat="44.6292" lon="6.80138">
        <ele>2248</ele>
        <time>2020-04-09T17:40:32Z</time>
      </trkpt>
      <trkpt lat="44.62921" lon="6.80197">
        <ele>2262</ele>
        <time>2020-04-09T17:41:05Z</time>
      </trkpt>
      <trkpt lat="44.6288" lon="6.80244">
        <ele>2282</ele>
        <time>2020-04-09T17:41:48Z</time>
      </trkpt>
      <trkpt lat="44.62829" lon="6.80329">
        <ele>2303</ele>
        <time>2020-04-09T17:42:51Z</time>
      </trkpt>
      <trkpt lat="44.62758" lon="6.80412">
        <ele>2316</ele>
        <time>2020-04-09T17:44:05Z</time>
      </trkpt>
      <trkpt lat="44.62725" lon="6.80463">
        <ele>2322</ele>
        <time>2020-04-09T17:44:44Z</time>
      </trkpt>
      <trkpt lat="44.62658" lon="6.80532">
        <ele>2340</ele>
        <time>2020-04-09T17:45:51Z</time>
      </trkpt>
      <trkpt lat="44.62629" lon="6.80537">
        <ele>2344</ele>
        <time>2020-04-09T17:46:14Z</time>
      </trkpt>
      <trkpt lat="44.62609" lon="6.80567">
        <ele>2352</ele>
        <time>2020-04-09T17:46:37Z</time>
      </trkpt>
      <trkpt lat="44.62482" lon="6.80718">
        <ele>2385</ele>
        <time>2020-04-09T17:48:51Z</time>
      </trkpt>
      <trkpt lat="44.62446" lon="6.80794">
        <ele>2403</ele>
        <time>2020-04-09T17:49:43Z</time>
      </trkpt>
      <trkpt lat="44.62409" lon="6.80819">
        <ele>2406</ele>
        <time>2020-04-09T17:50:16Z</time>
      </trkpt>
      <trkpt lat="44.6239" lon="6.80814">
        <ele>2407</ele>
        <time>2020-04-09T17:50:31Z</time>
      </trkpt>
      <trkpt lat="44.62357" lon="6.80843">
        <ele>2410</ele>
        <time>2020-04-09T17:51:02Z</time>
      </trkpt>
      <trkpt lat="44.6231" lon="6.80864">
        <ele>2413</ele>
        <time>2020-04-09T17:51:42Z</time>
      </trkpt>
      <trkpt lat="44.62293" lon="6.80946">
        <ele>2409</ele>
        <time>2020-04-09T17:52:30Z</time>
      </trkpt>
      <trkpt lat="44.62267" lon="6.80995">
        <ele>2407</ele>
        <time>2020-04-09T17:53:05Z</time>
      </trkpt>
      <trkpt lat="44.6224" lon="6.8102">
        <ele>2407</ele>
        <time>2020-04-09T17:53:31Z</time>
      </trkpt>
      <trkpt lat="44.62208" lon="6.81073">
        <ele>2402</ele>
        <time>2020-04-09T17:54:11Z</time>
      </trkpt>
      <trkpt lat="44.62172" lon="6.81072">
        <ele>2403</ele>
        <time>2020-04-09T17:54:40Z</time>
      </trkpt>
      <trkpt lat="44.62143" lon="6.81051">
        <ele>2405</ele>
        <time>2020-04-09T17:55:06Z</time>
      </trkpt>
      <trkpt lat="44.62119" lon="6.81069">
        <ele>2401</ele>
        <time>2020-04-09T17:55:27Z</time>
      </trkpt>
      <trkpt lat="44.62109" lon="6.81072">
        <ele>2400</ele>
        <time>2020-04-09T17:55:36Z</time>
      </trkpt>
      <trkpt lat="44.62095" lon="6.81099">
        <ele>2396</ele>
        <time>2020-04-09T17:55:55Z</time>
      </trkpt>
      <trkpt lat="44.62066" lon="6.81111">
        <ele>2397</ele>
        <time>2020-04-09T17:56:19Z</time>
      </trkpt>
      <trkpt lat="44.62056" lon="6.81124">
        <ele>2396</ele>
        <time>2020-04-09T17:56:30Z</time>
      </trkpt>
      <trkpt lat="44.6204" lon="6.8112">
        <ele>2400</ele>
        <time>2020-04-09T17:56:43Z</time>
      </trkpt>
      <trkpt lat="44.62023" lon="6.81146">
        <ele>2400</ele>
        <time>2020-04-09T17:57:03Z</time>
      </trkpt>
      <trkpt lat="44.61977" lon="6.81166">
        <ele>2404</ele>
        <time>2020-04-09T17:57:41Z</time>
      </trkpt>
      <trkpt lat="44.61898" lon="6.81192">
        <ele>2407</ele>
        <time>2020-04-09T17:58:46Z</time>
      </trkpt>
      <trkpt lat="44.61901" lon="6.81245">
        <ele>2405</ele>
        <time>2020-04-09T17:59:17Z</time>
      </trkpt>
      <trkpt lat="44.61923" lon="6.81279">
        <ele>2400</ele>
        <time>2020-04-09T17:59:43Z</time>
      </trkpt>
      <trkpt lat="44.61927" lon="6.81295">
        <ele>2396</ele>
        <time>2020-04-09T17:59:53Z</time>
      </trkpt>
      <trkpt lat="44.61965" lon="6.81256">
        <ele>2392</ele>
        <time>2020-04-09T18:00:30Z</time>
      </trkpt>
      <trkpt lat="44.62021" lon="6.81273">
        <ele>2371</ele>
        <time>2020-04-09T18:01:16Z</time>
      </trkpt>
      <trkpt lat="44.62021" lon="6.813">
        <ele>2363</ele>
        <time>2020-04-09T18:01:32Z</time>
      </trkpt>
      <trkpt lat="44.61998" lon="6.81347">
        <ele>2356</ele>
        <time>2020-04-09T18:02:04Z</time>
      </trkpt>
      <trkpt lat="44.62009" lon="6.81425">
        <ele>2333</ele>
        <time>2020-04-09T18:02:49Z</time>
      </trkpt>
      <trkpt lat="44.62082" lon="6.81614">
        <ele>2290</ele>
        <time>2020-04-09T18:04:52Z</time>
      </trkpt>
      <trkpt lat="44.62138" lon="6.81642">
        <ele>2277</ele>
        <time>2020-04-09T18:05:39Z</time>
      </trkpt>
      <trkpt lat="44.62181" lon="6.81706">
        <ele>2270</ele>
        <time>2020-04-09T18:06:30Z</time>
      </trkpt>
      <trkpt lat="44.62256" lon="6.81739">
        <ele>2261</ele>
        <time>2020-04-09T18:07:33Z</time>
      </trkpt>
      <trkpt lat="44.62334" lon="6.81817">
        <ele>2254</ele>
        <time>2020-04-09T18:08:49Z</time>
      </trkpt>
      <trkpt lat="44.62358" lon="6.8186">
        <ele>2247</ele>
        <time>2020-04-09T18:09:20Z</time>
      </trkpt>
      <trkpt lat="44.62338" lon="6.81943">
        <ele>2250</ele>
        <time>2020-04-09T18:10:10Z</time>
      </trkpt>
      <trkpt lat="44.62314" lon="6.81969">
        <ele>2253</ele>
        <time>2020-04-09T18:10:35Z</time>
      </trkpt>
      <trkpt lat="44.62353" lon="6.82026">
        <ele>2237</ele>
        <time>2020-04-09T18:11:20Z</time>
      </trkpt>
      <trkpt lat="44.62357" lon="6.82078">
        <ele>2235</ele>
        <time>2020-04-09T18:11:49Z</time>
      </trkpt>
      <trkpt lat="44.62411" lon="6.82173">
        <ele>2222</ele>
        <time>2020-04-09T18:12:59Z</time>
      </trkpt>
      <trkpt lat="44.62455" lon="6.82182">
        <ele>2193</ele>
        <time>2020-04-09T18:13:34Z</time>
      </trkpt>
      <trkpt lat="44.62445" lon="6.82204">
        <ele>2199</ele>
        <time>2020-04-09T18:13:49Z</time>
      </trkpt>
      <trkpt lat="44.62475" lon="6.82198">
        <ele>2179</ele>
        <time>2020-04-09T18:14:13Z</time>
      </trkpt>
      <trkpt lat="44.62453" lon="6.82228">
        <ele>2194</ele>
        <time>2020-04-09T18:14:38Z</time>
      </trkpt>
      <trkpt lat="44.62449" lon="6.82306">
        <ele>2181</ele>
        <time>2020-04-09T18:15:23Z</time>
      </trkpt>
      <trkpt lat="44.62475" lon="6.82317">
        <ele>2168</ele>
        <time>2020-04-09T18:15:44Z</time>
      </trkpt>
      <trkpt lat="44.62429" lon="6.82387">
        <ele>2165</ele>
        <time>2020-04-09T18:16:39Z</time>
      </trkpt>
      <trkpt lat="44.62396" lon="6.82478">
        <ele>2156</ele>
        <time>2020-04-09T18:17:37Z</time>
      </trkpt>
      <trkpt lat="44.62327" lon="6.82586">
        <ele>2161</ele>
        <time>2020-04-09T18:18:59Z</time>
      </trkpt>
      <trkpt lat="44.62288" lon="6.82681">
        <ele>2173</ele>
        <time>2020-04-09T18:20:02Z</time>
      </trkpt>
      <trkpt lat="44.62266" lon="6.82722">
        <ele>2175</ele>
        <time>2020-04-09T18:20:31Z</time>
      </trkpt>
      <trkpt lat="44.62307" lon="6.82734">
        <ele>2179</ele>
        <time>2020-04-09T18:21:05Z</time>
      </trkpt>
      <trkpt lat="44.62385" lon="6.82686">
        <ele>2171</ele>
        <time>2020-04-09T18:22:13Z</time>
      </trkpt>
      <trkpt lat="44.6243" lon="6.82681">
        <ele>2167</ele>
        <time>2020-04-09T18:22:49Z</time>
      </trkpt>
      <trkpt lat="44.62481" lon="6.82715">
        <ele>2163</ele>
        <time>2020-04-09T18:23:34Z</time>
      </trkpt>
      <trkpt lat="44.62489" lon="6.82741">
        <ele>2166</ele>
        <time>2020-04-09T18:23:50Z</time>
      </trkpt>
      <trkpt lat="44.6252" lon="6.82752">
        <ele>2164</ele>
        <time>2020-04-09T18:24:16Z</time>
      </trkpt>
      <trkpt lat="44.6258" lon="6.82641">
        <ele>2124</ele>
        <time>2020-04-09T18:25:35Z</time>
      </trkpt>
      <trkpt lat="44.62594" lon="6.82636">
        <ele>2122</ele>
        <time>2020-04-09T18:25:47Z</time>
      </trkpt>
      <trkpt lat="44.62598" lon="6.82608">
        <ele>2113</ele>
        <time>2020-04-09T18:26:03Z</time>
      </trkpt>
      <trkpt lat="44.62621" lon="6.82598">
        <ele>2109</ele>
        <time>2020-04-09T18:26:23Z</time>
      </trkpt>
      <trkpt lat="44.6263" lon="6.82577">
        <ele>2101</ele>
        <time>2020-04-09T18:26:37Z</time>
      </trkpt>
      <trkpt lat="44.62616" lon="6.82562">
        <ele>2097</ele>
        <time>2020-04-09T18:26:51Z</time>
      </trkpt>
      <trkpt lat="44.6264" lon="6.82567">
        <ele>2097</ele>
        <time>2020-04-09T18:27:10Z</time>
      </trkpt>
      <trkpt lat="44.6264" lon="6.82556">
        <ele>2093</ele>
        <time>2020-04-09T18:27:16Z</time>
      </trkpt>
      <trkpt lat="44.62655" lon="6.82559">
        <ele>2093</ele>
        <time>2020-04-09T18:27:28Z</time>
      </trkpt>
      <trkpt lat="44.62644" lon="6.8254">
        <ele>2087</ele>
        <time>2020-04-09T18:27:42Z</time>
      </trkpt>
      <trkpt lat="44.62671" lon="6.82546">
        <ele>2086</ele>
        <time>2020-04-09T18:28:04Z</time>
      </trkpt>
      <trkpt lat="44.62689" lon="6.82535">
        <ele>2081</ele>
        <time>2020-04-09T18:28:20Z</time>
      </trkpt>
      <trkpt lat="44.62682" lon="6.82524">
        <ele>2077</ele>
        <time>2020-04-09T18:28:28Z</time>
      </trkpt>
      <trkpt lat="44.62694" lon="6.82509">
        <ele>2070</ele>
        <time>2020-04-09T18:28:41Z</time>
      </trkpt>
      <trkpt lat="44.62677" lon="6.82497">
        <ele>2066</ele>
        <time>2020-04-09T18:28:57Z</time>
      </trkpt>
      <trkpt lat="44.62688" lon="6.82472">
        <ele>2058</ele>
        <time>2020-04-09T18:29:13Z</time>
      </trkpt>
      <trkpt lat="44.62682" lon="6.82465">
        <ele>2056</ele>
        <time>2020-04-09T18:29:20Z</time>
      </trkpt>
      <trkpt lat="44.62699" lon="6.82455">
        <ele>2052</ele>
        <time>2020-04-09T18:29:34Z</time>
      </trkpt>
      <trkpt lat="44.62684" lon="6.82439">
        <ele>2048</ele>
        <time>2020-04-09T18:29:49Z</time>
      </trkpt>
      <trkpt lat="44.62716" lon="6.82398">
        <ele>2036</ele>
        <time>2020-04-09T18:30:24Z</time>
      </trkpt>
      <trkpt lat="44.62728" lon="6.82377">
        <ele>2031</ele>
        <time>2020-04-09T18:30:39Z</time>
      </trkpt>
      <trkpt lat="44.62716" lon="6.82358">
        <ele>2031</ele>
        <time>2020-04-09T18:30:54Z</time>
      </trkpt>
      <trkpt lat="44.62722" lon="6.82342">
        <ele>2028</ele>
        <time>2020-04-09T18:31:04Z</time>
      </trkpt>
      <trkpt lat="44.62744" lon="6.82328">
        <ele>2021</ele>
        <time>2020-04-09T18:31:24Z</time>
      </trkpt>
      <trkpt lat="44.62771" lon="6.82317">
        <ele>2017</ele>
        <time>2020-04-09T18:31:46Z</time>
      </trkpt>
      <trkpt lat="44.62841" lon="6.82238">
        <ele>2002</ele>
        <time>2020-04-09T18:32:58Z</time>
      </trkpt>
      <trkpt lat="44.62879" lon="6.82186">
        <ele>1995</ele>
        <time>2020-04-09T18:33:40Z</time>
      </trkpt>
      <trkpt lat="44.62917" lon="6.82147">
        <ele>1985</ele>
        <time>2020-04-09T18:34:18Z</time>
      </trkpt>
      <trkpt lat="44.62932" lon="6.82126">
        <ele>1981</ele>
        <time>2020-04-09T18:34:35Z</time>
      </trkpt>
      <trkpt lat="44.62949" lon="6.82125">
        <ele>1977</ele>
        <time>2020-04-09T18:34:49Z</time>
      </trkpt>
      <trkpt lat="44.62955" lon="6.82141">
        <ele>1977</ele>
        <time>2020-04-09T18:34:59Z</time>
      </trkpt>
      <trkpt lat="44.62976" lon="6.82135">
        <ele>1973</ele>
        <time>2020-04-09T18:35:16Z</time>
      </trkpt>
      <trkpt lat="44.62981" lon="6.82154">
        <ele>1974</ele>
        <time>2020-04-09T18:35:28Z</time>
      </trkpt>
      <trkpt lat="44.63" lon="6.82146">
        <ele>1970</ele>
        <time>2020-04-09T18:35:44Z</time>
      </trkpt>
      <trkpt lat="44.63035" lon="6.82154">
        <ele>1969</ele>
        <time>2020-04-09T18:36:12Z</time>
      </trkpt>
      <trkpt lat="44.63054" lon="6.82135">
        <ele>1966</ele>
        <time>2020-04-09T18:36:31Z</time>
      </trkpt>
      <trkpt lat="44.63067" lon="6.82142">
        <ele>1966</ele>
        <time>2020-04-09T18:36:42Z</time>
      </trkpt>
      <trkpt lat="44.6309" lon="6.82132">
        <ele>1965</ele>
        <time>2020-04-09T18:37:01Z</time>
      </trkpt>
      <trkpt lat="44.63127" lon="6.82072">
        <ele>1958</ele>
        <time>2020-04-09T18:37:46Z</time>
      </trkpt>
      <trkpt lat="44.63157" lon="6.82049">
        <ele>1957</ele>
        <time>2020-04-09T18:38:14Z</time>
      </trkpt>
      <trkpt lat="44.63222" lon="6.82048">
        <ele>1953</ele>
        <time>2020-04-09T18:39:06Z</time>
      </trkpt>
      <trkpt lat="44.63263" lon="6.82065">
        <ele>1953</ele>
        <time>2020-04-09T18:39:40Z</time>
      </trkpt>
      <trkpt lat="44.6329" lon="6.82059">
        <ele>1953</ele>
        <time>2020-04-09T18:40:02Z</time>
      </trkpt>
      <trkpt lat="44.6334" lon="6.82065">
        <ele>1955</ele>
        <time>2020-04-09T18:40:42Z</time>
      </trkpt>
      <trkpt lat="44.63364" lon="6.82034">
        <ele>1953</ele>
        <time>2020-04-09T18:41:08Z</time>
      </trkpt>
      <trkpt lat="44.63391" lon="6.81988">
        <ele>1947</ele>
        <time>2020-04-09T18:41:42Z</time>
      </trkpt>
      <trkpt lat="44.63473" lon="6.81911">
        <ele>1942</ele>
        <time>2020-04-09T18:43:01Z</time>
      </trkpt>
      <trkpt lat="44.63561" lon="6.81902">
        <ele>1950</ele>
        <time>2020-04-09T18:44:12Z</time>
      </trkpt>
      <trkpt lat="44.63613" lon="6.81887">
        <ele>1960</ele>
        <time>2020-04-09T18:44:54Z</time>
      </trkpt>
      <trkpt lat="44.63711" lon="6.81831">
        <ele>1973</ele>
        <time>2020-04-09T18:46:19Z</time>
      </trkpt>
      <trkpt lat="44.63785" lon="6.81822">
        <ele>1983</ele>
        <time>2020-04-09T18:47:18Z</time>
      </trkpt>
      <trkpt lat="44.63783" lon="6.8181">
        <ele>1981</ele>
        <time>2020-04-09T18:47:25Z</time>
      </trkpt>
      <trkpt lat="44.63802" lon="6.81806">
        <ele>1982</ele>
        <time>2020-04-09T18:47:41Z</time>
      </trkpt>
      <trkpt lat="44.63814" lon="6.81787">
        <ele>1980</ele>
        <time>2020-04-09T18:47:55Z</time>
      </trkpt>
      <trkpt lat="44.63814" lon="6.81737">
        <ele>1973</ele>
        <time>2020-04-09T18:48:24Z</time>
      </trkpt>
      <trkpt lat="44.63823" lon="6.81693">
        <ele>1968</ele>
        <time>2020-04-09T18:48:50Z</time>
      </trkpt>
      <trkpt lat="44.63813" lon="6.81685">
        <ele>1966</ele>
        <time>2020-04-09T18:48:59Z</time>
      </trkpt>
      <trkpt lat="44.63842" lon="6.8155">
        <ele>1950</ele>
        <time>2020-04-09T18:50:19Z</time>
      </trkpt>
      <trkpt lat="44.63834" lon="6.81553">
        <ele>1949</ele>
        <time>2020-04-09T18:50:26Z</time>
      </trkpt>
      <trkpt lat="44.63823" lon="6.81582">
        <ele>1952</ele>
        <time>2020-04-09T18:50:45Z</time>
      </trkpt>
      <trkpt lat="44.63811" lon="6.81581">
        <ele>1952</ele>
        <time>2020-04-09T18:50:54Z</time>
      </trkpt>
      <trkpt lat="44.63802" lon="6.81532">
        <ele>1947</ele>
        <time>2020-04-09T18:51:23Z</time>
      </trkpt>
      <trkpt lat="44.63812" lon="6.81461">
        <ele>1938</ele>
        <time>2020-04-09T18:52:04Z</time>
      </trkpt>
      <trkpt lat="44.63823" lon="6.8141">
        <ele>1928</ele>
        <time>2020-04-09T18:52:35Z</time>
      </trkpt>
      <trkpt lat="44.6382" lon="6.81359">
        <ele>1920</ele>
        <time>2020-04-09T18:53:04Z</time>
      </trkpt>
      <trkpt lat="44.63832" lon="6.8132">
        <ele>1914</ele>
        <time>2020-04-09T18:53:28Z</time>
      </trkpt>
      <trkpt lat="44.63852" lon="6.81276">
        <ele>1911</ele>
        <time>2020-04-09T18:53:58Z</time>
      </trkpt>
      <trkpt lat="44.63846" lon="6.81241">
        <ele>1908</ele>
        <time>2020-04-09T18:54:18Z</time>
      </trkpt>
      <trkpt lat="44.63904" lon="6.81192">
        <ele>1898</ele>
        <time>2020-04-09T18:55:13Z</time>
      </trkpt>
      <trkpt lat="44.63829" lon="6.81165">
        <ele>1906</ele>
        <time>2020-04-09T18:56:15Z</time>
      </trkpt>
      <trkpt lat="44.63805" lon="6.81152">
        <ele>1913</ele>
        <time>2020-04-09T18:56:35Z</time>
      </trkpt>
      <trkpt lat="44.63805" lon="6.81099">
        <ele>1915</ele>
        <time>2020-04-09T18:57:05Z</time>
      </trkpt>
      <trkpt lat="44.63816" lon="6.81024">
        <ele>1919</ele>
        <time>2020-04-09T18:57:49Z</time>
      </trkpt>
      <trkpt lat="44.6388" lon="6.80963">
        <ele>1905</ele>
        <time>2020-04-09T18:58:51Z</time>
      </trkpt>
      <trkpt lat="44.63897" lon="6.80898">
        <ele>1906</ele>
        <time>2020-04-09T18:59:30Z</time>
      </trkpt>
      <trkpt lat="44.63935" lon="6.80852">
        <ele>1902</ele>
        <time>2020-04-09T19:00:10Z</time>
      </trkpt>
      <trkpt lat="44.63963" lon="6.80838">
        <ele>1896</ele>
        <time>2020-04-09T19:00:34Z</time>
      </trkpt>
      <trkpt lat="44.64014" lon="6.80824">
        <ele>1882</ele>
        <time>2020-04-09T19:01:16Z</time>
      </trkpt>
      <trkpt lat="44.64136" lon="6.80761">
        <ele>1854</ele>
        <time>2020-04-09T19:03:00Z</time>
      </trkpt>
      <trkpt lat="44.64174" lon="6.80727">
        <ele>1846</ele>
        <time>2020-04-09T19:03:36Z</time>
      </trkpt>
      <trkpt lat="44.64187" lon="6.80702">
        <ele>1847</ele>
        <time>2020-04-09T19:03:54Z</time>
      </trkpt>
      <trkpt lat="44.64201" lon="6.80658">
        <ele>1846</ele>
        <time>2020-04-09T19:04:21Z</time>
      </trkpt>
      <trkpt lat="44.6422" lon="6.80613">
        <ele>1846</ele>
        <time>2020-04-09T19:04:51Z</time>
      </trkpt>
      <trkpt lat="44.64217" lon="6.80592">
        <ele>1848</ele>
        <time>2020-04-09T19:05:03Z</time>
      </trkpt>
      <trkpt lat="44.64218" lon="6.80568">
        <ele>1848</ele>
        <time>2020-04-09T19:05:17Z</time>
      </trkpt>
      <trkpt lat="44.64219" lon="6.80553">
        <ele>1847</ele>
        <time>2020-04-09T19:05:25Z</time>
      </trkpt>
      <trkpt lat="44.64225" lon="6.80534">
        <ele>1845</ele>
        <time>2020-04-09T19:05:37Z</time>
      </trkpt>
      <trkpt lat="44.64226" lon="6.80502">
        <ele>1843</ele>
        <time>2020-04-09T19:05:55Z</time>
      </trkpt>
      <trkpt lat="44.64241" lon="6.80466">
        <ele>1838</ele>
        <time>2020-04-09T19:06:19Z</time>
      </trkpt>
      <trkpt lat="44.64289" lon="6.80376">
        <ele>1835</ele>
        <time>2020-04-09T19:07:23Z</time>
      </trkpt>
      <trkpt lat="44.64305" lon="6.80357">
        <ele>1832</ele>
        <time>2020-04-09T19:07:40Z</time>
      </trkpt>
      <trkpt lat="44.64325" lon="6.8035">
        <ele>1826</ele>
        <time>2020-04-09T19:07:57Z</time>
      </trkpt>
      <trkpt lat="44.64353" lon="6.80352">
        <ele>1823</ele>
        <time>2020-04-09T19:08:19Z</time>
      </trkpt>
      <trkpt lat="44.64368" lon="6.80343">
        <ele>1823</ele>
        <time>2020-04-09T19:08:32Z</time>
      </trkpt>
      <trkpt lat="44.64391" lon="6.80368">
        <ele>1825</ele>
        <time>2020-04-09T19:08:55Z</time>
      </trkpt>
      <trkpt lat="44.6442" lon="6.80445">
        <ele>1834</ele>
        <time>2020-04-09T19:09:45Z</time>
      </trkpt>
      <trkpt lat="44.64448" lon="6.80561">
        <ele>1854</ele>
        <time>2020-04-09T19:10:55Z</time>
      </trkpt>
      <trkpt lat="44.64481" lon="6.80591">
        <ele>1862</ele>
        <time>2020-04-09T19:11:26Z</time>
      </trkpt>
      <trkpt lat="44.64491" lon="6.80709">
        <ele>1887</ele>
        <time>2020-04-09T19:12:34Z</time>
      </trkpt>
      <trkpt lat="44.64516" lon="6.80713">
        <ele>1895</ele>
        <time>2020-04-09T19:12:54Z</time>
      </trkpt>
      <trkpt lat="44.64558" lon="6.80663">
        <ele>1897</ele>
        <time>2020-04-09T19:13:38Z</time>
      </trkpt>
      <trkpt lat="44.64619" lon="6.80563">
        <ele>1888</ele>
        <time>2020-04-09T19:14:53Z</time>
      </trkpt>
      <trkpt lat="44.64641" lon="6.80546">
        <ele>1891</ele>
        <time>2020-04-09T19:15:13Z</time>
      </trkpt>
      <trkpt lat="44.64693" lon="6.80536">
        <ele>1909</ele>
        <time>2020-04-09T19:15:55Z</time>
      </trkpt>
      <trkpt lat="44.64708" lon="6.80456">
        <ele>1898</ele>
        <time>2020-04-09T19:16:42Z</time>
      </trkpt>
      <trkpt lat="44.64764" lon="6.80374">
        <ele>1895</ele>
        <time>2020-04-09T19:17:47Z</time>
      </trkpt>
      <trkpt lat="44.64794" lon="6.80373">
        <ele>1903</ele>
        <time>2020-04-09T19:18:11Z</time>
      </trkpt>
      <trkpt lat="44.64807" lon="6.80391">
        <ele>1913</ele>
        <time>2020-04-09T19:18:26Z</time>
      </trkpt>
      <trkpt lat="44.64833" lon="6.80399">
        <ele>1923</ele>
        <time>2020-04-09T19:18:47Z</time>
      </trkpt>
      <trkpt lat="44.64868" lon="6.80349">
        <ele>1917</ele>
        <time>2020-04-09T19:19:27Z</time>
      </trkpt>
      <trkpt lat="44.64875" lon="6.80286">
        <ele>1907</ele>
        <time>2020-04-09T19:20:03Z</time>
      </trkpt>
      <trkpt lat="44.64927" lon="6.80262">
        <ele>1922</ele>
        <time>2020-04-09T19:20:47Z</time>
      </trkpt>
      <trkpt lat="44.6495" lon="6.80181">
        <ele>1912</ele>
        <time>2020-04-09T19:21:37Z</time>
      </trkpt>
      <trkpt lat="44.65012" lon="6.80247">
        <ele>1948</ele>
        <time>2020-04-09T19:22:39Z</time>
      </trkpt>
      <trkpt lat="44.6507" lon="6.80233">
        <ele>1957</ele>
        <time>2020-04-09T19:23:26Z</time>
      </trkpt>
      <trkpt lat="44.65103" lon="6.80193">
        <ele>1957</ele>
        <time>2020-04-09T19:24:01Z</time>
      </trkpt>
      <trkpt lat="44.65105" lon="6.80132">
        <ele>1947</ele>
        <time>2020-04-09T19:24:36Z</time>
      </trkpt>
      <trkpt lat="44.65095" lon="6.80098">
        <ele>1937</ele>
        <time>2020-04-09T19:24:57Z</time>
      </trkpt>
      <trkpt lat="44.65116" lon="6.80064">
        <ele>1939</ele>
        <time>2020-04-09T19:25:23Z</time>
      </trkpt>
      <trkpt lat="44.65139" lon="6.80067">
        <ele>1949</ele>
        <time>2020-04-09T19:25:41Z</time>
      </trkpt>
      <trkpt lat="44.65207" lon="6.79993">
        <ele>1950</ele>
        <time>2020-04-09T19:26:50Z</time>
      </trkpt>
      <trkpt lat="44.65241" lon="6.80012">
        <ele>1962</ele>
        <time>2020-04-09T19:27:19Z</time>
      </trkpt>
      <trkpt lat="44.65262" lon="6.80067">
        <ele>1978</ele>
        <time>2020-04-09T19:27:55Z</time>
      </trkpt>
      <trkpt lat="44.65279" lon="6.80025">
        <ele>1976</ele>
        <time>2020-04-09T19:28:22Z</time>
      </trkpt>
      <trkpt lat="44.65272" lon="6.79923">
        <ele>1954</ele>
        <time>2020-04-09T19:29:21Z</time>
      </trkpt>
      <trkpt lat="44.65293" lon="6.79874">
        <ele>1949</ele>
        <time>2020-04-09T19:29:53Z</time>
      </trkpt>
      <trkpt lat="44.65328" lon="6.79866">
        <ele>1959</ele>
        <time>2020-04-09T19:30:22Z</time>
      </trkpt>
      <trkpt lat="44.65335" lon="6.7984">
        <ele>1954</ele>
        <time>2020-04-09T19:30:38Z</time>
      </trkpt>
      <trkpt lat="44.65356" lon="6.7983">
        <ele>1959</ele>
        <time>2020-04-09T19:30:55Z</time>
      </trkpt>
      <trkpt lat="44.65387" lon="6.79784">
        <ele>1958</ele>
        <time>2020-04-09T19:31:31Z</time>
      </trkpt>
      <trkpt lat="44.65434" lon="6.79748">
        <ele>1965</ele>
        <time>2020-04-09T19:32:14Z</time>
      </trkpt>
      <trkpt lat="44.65468" lon="6.79694">
        <ele>1955</ele>
        <time>2020-04-09T19:32:55Z</time>
      </trkpt>
      <trkpt lat="44.65502" lon="6.79664">
        <ele>1955</ele>
        <time>2020-04-09T19:33:27Z</time>
      </trkpt>
      <trkpt lat="44.65517" lon="6.79645">
        <ele>1946</ele>
        <time>2020-04-09T19:33:44Z</time>
      </trkpt>
      <trkpt lat="44.65566" lon="6.79673">
        <ele>1956</ele>
        <time>2020-04-09T19:34:26Z</time>
      </trkpt>
      <trkpt lat="44.65586" lon="6.79654">
        <ele>1950</ele>
        <time>2020-04-09T19:34:45Z</time>
      </trkpt>
      <trkpt lat="44.6562" lon="6.79657">
        <ele>1961</ele>
        <time>2020-04-09T19:35:13Z</time>
      </trkpt>
      <trkpt lat="44.6564" lon="6.79583">
        <ele>1942</ele>
        <time>2020-04-09T19:35:58Z</time>
      </trkpt>
      <trkpt lat="44.65693" lon="6.79561">
        <ele>1949</ele>
        <time>2020-04-09T19:36:42Z</time>
      </trkpt>
      <trkpt lat="44.65716" lon="6.7957">
        <ele>1961</ele>
        <time>2020-04-09T19:37:01Z</time>
      </trkpt>
      <trkpt lat="44.65762" lon="6.79505">
        <ele>1945</ele>
        <time>2020-04-09T19:37:53Z</time>
      </trkpt>
      <trkpt lat="44.65817" lon="6.79452">
        <ele>1939</ele>
        <time>2020-04-09T19:38:47Z</time>
      </trkpt>
      <trkpt lat="44.65871" lon="6.79454">
        <ele>1949</ele>
        <time>2020-04-09T19:39:30Z</time>
      </trkpt>
      <trkpt lat="44.65916" lon="6.79469">
        <ele>1958</ele>
        <time>2020-04-09T19:40:07Z</time>
      </trkpt>
      <trkpt lat="44.65946" lon="6.79439">
        <ele>1953</ele>
        <time>2020-04-09T19:40:36Z</time>
      </trkpt>
      <trkpt lat="44.65977" lon="6.79363">
        <ele>1942</ele>
        <time>2020-04-09T19:41:26Z</time>
      </trkpt>
      <trkpt lat="44.66007" lon="6.79311">
        <ele>1944</ele>
        <time>2020-04-09T19:42:04Z</time>
      </trkpt>
      <trkpt lat="44.66024" lon="6.79297">
        <ele>1946</ele>
        <time>2020-04-09T19:42:20Z</time>
      </trkpt>
      <trkpt lat="44.66035" lon="6.79259">
        <ele>1943</ele>
        <time>2020-04-09T19:42:44Z</time>
      </trkpt>
      <trkpt lat="44.66061" lon="6.79208">
        <ele>1935</ele>
        <time>2020-04-09T19:43:19Z</time>
      </trkpt>
      <trkpt lat="44.66094" lon="6.79184">
        <ele>1932</ele>
        <time>2020-04-09T19:43:49Z</time>
      </trkpt>
      <trkpt lat="44.6619" lon="6.7917">
        <ele>1931</ele>
        <time>2020-04-09T19:45:06Z</time>
      </trkpt>
      <trkpt lat="44.66215" lon="6.79183">
        <ele>1937</ele>
        <time>2020-04-09T19:45:28Z</time>
      </trkpt>
      <trkpt lat="44.66213" lon="6.79145">
        <ele>1923</ele>
        <time>2020-04-09T19:45:49Z</time>
      </trkpt>
      <trkpt lat="44.66197" lon="6.79121">
        <ele>1914</ele>
        <time>2020-04-09T19:46:08Z</time>
      </trkpt>
      <trkpt lat="44.66234" lon="6.79118">
        <ele>1915</ele>
        <time>2020-04-09T19:46:38Z</time>
      </trkpt>
      <trkpt lat="44.66253" lon="6.79082">
        <ele>1904</ele>
        <time>2020-04-09T19:47:03Z</time>
      </trkpt>
      <trkpt lat="44.66283" lon="6.7908">
        <ele>1907</ele>
        <time>2020-04-09T19:47:27Z</time>
      </trkpt>
      <trkpt lat="44.66354" lon="6.79023">
        <ele>1896</ele>
        <time>2020-04-09T19:48:33Z</time>
      </trkpt>
      <trkpt lat="44.66367" lon="6.79002">
        <ele>1891</ele>
        <time>2020-04-09T19:48:49Z</time>
      </trkpt>
      <trkpt lat="44.66378" lon="6.7897">
        <ele>1882</ele>
        <time>2020-04-09T19:49:09Z</time>
      </trkpt>
      <trkpt lat="44.66403" lon="6.7895">
        <ele>1880</ele>
        <time>2020-04-09T19:49:32Z</time>
      </trkpt>
      <trkpt lat="44.66421" lon="6.78929">
        <ele>1877</ele>
        <time>2020-04-09T19:49:51Z</time>
      </trkpt>
      <trkpt lat="44.66476" lon="6.78911">
        <ele>1882</ele>
        <time>2020-04-09T19:50:36Z</time>
      </trkpt>
      <trkpt lat="44.66489" lon="6.78851">
        <ele>1870</ele>
        <time>2020-04-09T19:51:12Z</time>
      </trkpt>
      <trkpt lat="44.66548" lon="6.78778">
        <ele>1868</ele>
        <time>2020-04-09T19:52:14Z</time>
      </trkpt>
      <trkpt lat="44.66561" lon="6.78738">
        <ele>1859</ele>
        <time>2020-04-09T19:52:40Z</time>
      </trkpt>
      <trkpt lat="44.66608" lon="6.78685">
        <ele>1855</ele>
        <time>2020-04-09T19:53:28Z</time>
      </trkpt>
      <trkpt lat="44.66633" lon="6.78633">
        <ele>1844</ele>
        <time>2020-04-09T19:54:04Z</time>
      </trkpt>
      <trkpt lat="44.66671" lon="6.78619">
        <ele>1849</ele>
        <time>2020-04-09T19:54:35Z</time>
      </trkpt>
      <trkpt lat="44.66754" lon="6.78566">
        <ele>1850</ele>
        <time>2020-04-09T19:55:48Z</time>
      </trkpt>
      <trkpt lat="44.6676" lon="6.78535">
        <ele>1843</ele>
        <time>2020-04-09T19:56:06Z</time>
      </trkpt>
      <trkpt lat="44.66833" lon="6.78471">
        <ele>1832</ele>
        <time>2020-04-09T19:57:15Z</time>
      </trkpt>
      <trkpt lat="44.66891" lon="6.78472">
        <ele>1827</ele>
        <time>2020-04-09T19:58:02Z</time>
      </trkpt>
      <trkpt lat="44.66929" lon="6.78512">
        <ele>1832</ele>
        <time>2020-04-09T19:58:40Z</time>
      </trkpt>
      <trkpt lat="44.66963" lon="6.78566">
        <ele>1831</ele>
        <time>2020-04-09T19:59:21Z</time>
      </trkpt>
      <trkpt lat="44.6697" lon="6.78597">
        <ele>1837</ele>
        <time>2020-04-09T19:59:39Z</time>
      </trkpt>
      <trkpt lat="44.6698" lon="6.78564">
        <ele>1821</ele>
        <time>2020-04-09T20:00:00Z</time>
      </trkpt>
      <trkpt lat="44.66972" lon="6.7852">
        <ele>1811</ele>
        <time>2020-04-09T20:00:25Z</time>
      </trkpt>
      <trkpt lat="44.66939" lon="6.78423">
        <ele>1795</ele>
        <time>2020-04-09T20:01:27Z</time>
      </trkpt>
      <trkpt lat="44.66893" lon="6.78331">
        <ele>1761</ele>
        <time>2020-04-09T20:02:31Z</time>
      </trkpt>
      <trkpt lat="44.66893" lon="6.78298">
        <ele>1750</ele>
        <time>2020-04-09T20:02:50Z</time>
      </trkpt>
      <trkpt lat="44.66856" lon="6.78296">
        <ele>1755</ele>
        <time>2020-04-09T20:03:19Z</time>
      </trkpt>
      <trkpt lat="44.66824" lon="6.78268">
        <ele>1750</ele>
        <time>2020-04-09T20:03:49Z</time>
      </trkpt>
      <trkpt lat="44.66813" lon="6.7825">
        <ele>1743</ele>
        <time>2020-04-09T20:04:03Z</time>
      </trkpt>
      <trkpt lat="44.66799" lon="6.78244">
        <ele>1738</ele>
        <time>2020-04-09T20:04:15Z</time>
      </trkpt>
      <trkpt lat="44.66806" lon="6.78222">
        <ele>1733</ele>
        <time>2020-04-09T20:04:28Z</time>
      </trkpt>
      <trkpt lat="44.66785" lon="6.78234">
        <ele>1732</ele>
        <time>2020-04-09T20:04:46Z</time>
      </trkpt>
      <trkpt lat="44.66802" lon="6.78192">
        <ele>1723</ele>
        <time>2020-04-09T20:05:14Z</time>
      </trkpt>
      <trkpt lat="44.66785" lon="6.78192">
        <ele>1720</ele>
        <time>2020-04-09T20:05:28Z</time>
      </trkpt>
      <trkpt lat="44.66803" lon="6.78161">
        <ele>1714</ele>
        <time>2020-04-09T20:05:50Z</time>
      </trkpt>
      <trkpt lat="44.66782" lon="6.78163">
        <ele>1711</ele>
        <time>2020-04-09T20:06:07Z</time>
      </trkpt>
      <trkpt lat="44.66794" lon="6.78134">
        <ele>1704</ele>
        <time>2020-04-09T20:06:26Z</time>
      </trkpt>
      <trkpt lat="44.66823" lon="6.78115">
        <ele>1701</ele>
        <time>2020-04-09T20:06:52Z</time>
      </trkpt>
      <trkpt lat="44.66877" lon="6.78074">
        <ele>1684</ele>
        <time>2020-04-09T20:07:41Z</time>
      </trkpt>
      <trkpt lat="44.66877" lon="6.78058">
        <ele>1681</ele>
        <time>2020-04-09T20:07:50Z</time>
      </trkpt>
      <trkpt lat="44.66895" lon="6.78042">
        <ele>1675</ele>
        <time>2020-04-09T20:08:07Z</time>
      </trkpt>
      <trkpt lat="44.66919" lon="6.78081">
        <ele>1680</ele>
        <time>2020-04-09T20:08:37Z</time>
      </trkpt>
      <trkpt lat="44.66919" lon="6.78042">
        <ele>1672</ele>
        <time>2020-04-09T20:08:59Z</time>
      </trkpt>
      <trkpt lat="44.66928" lon="6.78033">
        <ele>1669</ele>
        <time>2020-04-09T20:09:08Z</time>
      </trkpt>
      <trkpt lat="44.66904" lon="6.77935">
        <ele>1656</ele>
        <time>2020-04-09T20:10:07Z</time>
      </trkpt>
      <trkpt lat="44.66919" lon="6.77945">
        <ele>1656</ele>
        <time>2020-04-09T20:10:20Z</time>
      </trkpt>
      <trkpt lat="44.66929" lon="6.77919">
        <ele>1653</ele>
        <time>2020-04-09T20:10:37Z</time>
      </trkpt>
      <trkpt lat="44.66967" lon="6.77973">
        <ele>1661</ele>
        <time>2020-04-09T20:11:20Z</time>
      </trkpt>
      <trkpt lat="44.67" lon="6.78036">
        <ele>1664</ele>
        <time>2020-04-09T20:12:05Z</time>
      </trkpt>
      <trkpt lat="44.67058" lon="6.78124">
        <ele>1681</ele>
        <time>2020-04-09T20:13:13Z</time>
      </trkpt>
      <trkpt lat="44.67083" lon="6.78124">
        <ele>1686</ele>
        <time>2020-04-09T20:13:33Z</time>
      </trkpt>
      <trkpt lat="44.67104" lon="6.78179">
        <ele>1691</ele>
        <time>2020-04-09T20:14:08Z</time>
      </trkpt>
      <trkpt lat="44.67118" lon="6.78264">
        <ele>1699</ele>
        <time>2020-04-09T20:14:58Z</time>
      </trkpt>
      <trkpt lat="44.67188" lon="6.78357">
        <ele>1719</ele>
        <time>2020-04-09T20:16:15Z</time>
      </trkpt>
      <trkpt lat="44.6722" lon="6.7838">
        <ele>1729</ele>
        <time>2020-04-09T20:16:44Z</time>
      </trkpt>
      <trkpt lat="44.67242" lon="6.78389">
        <ele>1737</ele>
        <time>2020-04-09T20:17:02Z</time>
      </trkpt>
      <trkpt lat="44.67252" lon="6.78416">
        <ele>1735</ele>
        <time>2020-04-09T20:17:20Z</time>
      </trkpt>
      <trkpt lat="44.67269" lon="6.78429">
        <ele>1742</ele>
        <time>2020-04-09T20:17:35Z</time>
      </trkpt>
      <trkpt lat="44.67273" lon="6.78463">
        <ele>1739</ele>
        <time>2020-04-09T20:17:55Z</time>
      </trkpt>
      <trkpt lat="44.6731" lon="6.78549">
        <ele>1749</ele>
        <time>2020-04-09T20:18:52Z</time>
      </trkpt>
      <trkpt lat="44.67347" lon="6.78573">
        <ele>1765</ele>
        <time>2020-04-09T20:19:25Z</time>
      </trkpt>
      <trkpt lat="44.67343" lon="6.78558">
        <ele>1764</ele>
        <time>2020-04-09T20:19:34Z</time>
      </trkpt>
      <trkpt lat="44.67369" lon="6.7858">
        <ele>1774</ele>
        <time>2020-04-09T20:19:58Z</time>
      </trkpt>
      <trkpt lat="44.67361" lon="6.78633">
        <ele>1764</ele>
        <time>2020-04-09T20:20:29Z</time>
      </trkpt>
      <trkpt lat="44.67373" lon="6.78624">
        <ele>1771</ele>
        <time>2020-04-09T20:20:40Z</time>
      </trkpt>
      <trkpt lat="44.67458" lon="6.78731">
        <ele>1796</ele>
        <time>2020-04-09T20:22:11Z</time>
      </trkpt>
      <trkpt lat="44.67472" lon="6.78864">
        <ele>1790</ele>
        <time>2020-04-09T20:23:28Z</time>
      </trkpt>
      <trkpt lat="44.67493" lon="6.78896">
        <ele>1799</ele>
        <time>2020-04-09T20:23:53Z</time>
      </trkpt>
      <trkpt lat="44.67519" lon="6.78913">
        <ele>1810</ele>
        <time>2020-04-09T20:24:16Z</time>
      </trkpt>
      <trkpt lat="44.67532" lon="6.78976">
        <ele>1818</ele>
        <time>2020-04-09T20:24:53Z</time>
      </trkpt>
      <trkpt lat="44.67521" lon="6.79025">
        <ele>1814</ele>
        <time>2020-04-09T20:25:22Z</time>
      </trkpt>
      <trkpt lat="44.67548" lon="6.79071">
        <ele>1825</ele>
        <time>2020-04-09T20:25:56Z</time>
      </trkpt>
      <trkpt lat="44.67551" lon="6.79101">
        <ele>1826</ele>
        <time>2020-04-09T20:26:13Z</time>
      </trkpt>
      <trkpt lat="44.67536" lon="6.79232">
        <ele>1815</ele>
        <time>2020-04-09T20:27:29Z</time>
      </trkpt>
      <trkpt lat="44.67615" lon="6.79403">
        <ele>1825</ele>
        <time>2020-04-09T20:29:25Z</time>
      </trkpt>
      <trkpt lat="44.67657" lon="6.79524">
        <ele>1832</ele>
        <time>2020-04-09T20:30:42Z</time>
      </trkpt>
      <trkpt lat="44.67655" lon="6.79553">
        <ele>1831</ele>
        <time>2020-04-09T20:30:58Z</time>
      </trkpt>
      <trkpt lat="44.67672" lon="6.79597">
        <ele>1838</ele>
        <time>2020-04-09T20:31:27Z</time>
      </trkpt>
      <trkpt lat="44.67691" lon="6.79603">
        <ele>1844</ele>
        <time>2020-04-09T20:31:42Z</time>
      </trkpt>
      <trkpt lat="44.67701" lon="6.79626">
        <ele>1848</ele>
        <time>2020-04-09T20:31:58Z</time>
      </trkpt>
      <trkpt lat="44.67719" lon="6.79657">
        <ele>1853</ele>
        <time>2020-04-09T20:32:20Z</time>
      </trkpt>
      <trkpt lat="44.67736" lon="6.79645">
        <ele>1860</ele>
        <time>2020-04-09T20:32:36Z</time>
      </trkpt>
      <trkpt lat="44.6774" lon="6.79677">
        <ele>1860</ele>
        <time>2020-04-09T20:32:54Z</time>
      </trkpt>
      <trkpt lat="44.67758" lon="6.79704">
        <ele>1864</ele>
        <time>2020-04-09T20:33:15Z</time>
      </trkpt>
      <trkpt lat="44.67784" lon="6.79724">
        <ele>1872</ele>
        <time>2020-04-09T20:33:39Z</time>
      </trkpt>
      <trkpt lat="44.6779" lon="6.79743">
        <ele>1872</ele>
        <time>2020-04-09T20:33:51Z</time>
      </trkpt>
      <trkpt lat="44.67805" lon="6.79763">
        <ele>1876</ele>
        <time>2020-04-09T20:34:07Z</time>
      </trkpt>
      <trkpt lat="44.67825" lon="6.79734">
        <ele>1886</ele>
        <time>2020-04-09T20:34:30Z</time>
      </trkpt>
      <trkpt lat="44.67854" lon="6.79766">
        <ele>1899</ele>
        <time>2020-04-09T20:35:00Z</time>
      </trkpt>
      <trkpt lat="44.67864" lon="6.79811">
        <ele>1904</ele>
        <time>2020-04-09T20:35:27Z</time>
      </trkpt>
      <trkpt lat="44.67872" lon="6.79829">
        <ele>1909</ele>
        <time>2020-04-09T20:35:39Z</time>
      </trkpt>
      <trkpt lat="44.67882" lon="6.79905">
        <ele>1918</ele>
        <time>2020-04-09T20:36:23Z</time>
      </trkpt>
      <trkpt lat="44.67891" lon="6.79933">
        <ele>1924</ele>
        <time>2020-04-09T20:36:40Z</time>
      </trkpt>
      <trkpt lat="44.67899" lon="6.79905">
        <ele>1930</ele>
        <time>2020-04-09T20:36:57Z</time>
      </trkpt>
      <trkpt lat="44.67935" lon="6.80105">
        <ele>1947</ele>
        <time>2020-04-09T20:38:55Z</time>
      </trkpt>
      <trkpt lat="44.67955" lon="6.80048">
        <ele>1965</ele>
        <time>2020-04-09T20:39:31Z</time>
      </trkpt>
      <trkpt lat="44.67967" lon="6.80082">
        <ele>1971</ele>
        <time>2020-04-09T20:39:53Z</time>
      </trkpt>
      <trkpt lat="44.67978" lon="6.8007">
        <ele>1979</ele>
        <time>2020-04-09T20:40:04Z</time>
      </trkpt>
      <trkpt lat="44.67992" lon="6.80092">
        <ele>1986</ele>
        <time>2020-04-09T20:40:21Z</time>
      </trkpt>
      <trkpt lat="44.68119" lon="6.80187">
        <ele>2030</ele>
        <time>2020-04-09T20:42:16Z</time>
      </trkpt>
      <trkpt lat="44.68118" lon="6.80146">
        <ele>2040</ele>
        <time>2020-04-09T20:42:39Z</time>
      </trkpt>
      <trkpt lat="44.6811" lon="6.80126">
        <ele>2039</ele>
        <time>2020-04-09T20:42:52Z</time>
      </trkpt>
      <trkpt lat="44.68116" lon="6.80114">
        <ele>2045</ele>
        <time>2020-04-09T20:43:01Z</time>
      </trkpt>
      <trkpt lat="44.68134" lon="6.80134">
        <ele>2050</ele>
        <time>2020-04-09T20:43:19Z</time>
      </trkpt>
      <trkpt lat="44.68132" lon="6.8011">
        <ele>2054</ele>
        <time>2020-04-09T20:43:33Z</time>
      </trkpt>
      <trkpt lat="44.68241" lon="6.80209">
        <ele>2084</ele>
        <time>2020-04-09T20:45:17Z</time>
      </trkpt>
      <trkpt lat="44.68252" lon="6.80236">
        <ele>2085</ele>
        <time>2020-04-09T20:45:34Z</time>
      </trkpt>
      <trkpt lat="44.68288" lon="6.80265">
        <ele>2094</ele>
        <time>2020-04-09T20:46:08Z</time>
      </trkpt>
      <trkpt lat="44.68305" lon="6.8027">
        <ele>2100</ele>
        <time>2020-04-09T20:46:22Z</time>
      </trkpt>
      <trkpt lat="44.68318" lon="6.80292">
        <ele>2101</ele>
        <time>2020-04-09T20:46:38Z</time>
      </trkpt>
      <trkpt lat="44.68409" lon="6.80365">
        <ele>2120</ele>
        <time>2020-04-09T20:48:02Z</time>
      </trkpt>
      <trkpt lat="44.68424" lon="6.8039">
        <ele>2119</ele>
        <time>2020-04-09T20:48:20Z</time>
      </trkpt>
      <trkpt lat="44.6845" lon="6.80405">
        <ele>2126</ele>
        <time>2020-04-09T20:48:43Z</time>
      </trkpt>
      <trkpt lat="44.68447" lon="6.80365">
        <ele>2136</ele>
        <time>2020-04-09T20:49:06Z</time>
      </trkpt>
      <trkpt lat="44.68473" lon="6.80384">
        <ele>2141</ele>
        <time>2020-04-09T20:49:29Z</time>
      </trkpt>
      <trkpt lat="44.68524" lon="6.80412">
        <ele>2154</ele>
        <time>2020-04-09T20:50:13Z</time>
      </trkpt>
      <trkpt lat="44.68544" lon="6.80449">
        <ele>2156</ele>
        <time>2020-04-09T20:50:39Z</time>
      </trkpt>
      <trkpt lat="44.68569" lon="6.80467">
        <ele>2164</ele>
        <time>2020-04-09T20:51:02Z</time>
      </trkpt>
      <trkpt lat="44.68616" lon="6.80522">
        <ele>2179</ele>
        <time>2020-04-09T20:51:51Z</time>
      </trkpt>
      <trkpt lat="44.68647" lon="6.80544">
        <ele>2191</ele>
        <time>2020-04-09T20:52:19Z</time>
      </trkpt>
      <trkpt lat="44.68666" lon="6.80571">
        <ele>2197</ele>
        <time>2020-04-09T20:52:40Z</time>
      </trkpt>
      <trkpt lat="44.68704" lon="6.80661">
        <ele>2215</ele>
        <time>2020-04-09T20:53:40Z</time>
      </trkpt>
      <trkpt lat="44.68705" lon="6.80641">
        <ele>2215</ele>
        <time>2020-04-09T20:53:51Z</time>
      </trkpt>
      <trkpt lat="44.68714" lon="6.80654">
        <ele>2220</ele>
        <time>2020-04-09T20:54:02Z</time>
      </trkpt>
      <trkpt lat="44.68715" lon="6.80639">
        <ele>2220</ele>
        <time>2020-04-09T20:54:10Z</time>
      </trkpt>
      <trkpt lat="44.6873" lon="6.80657">
        <ele>2226</ele>
        <time>2020-04-09T20:54:26Z</time>
      </trkpt>
      <trkpt lat="44.68729" lon="6.80619">
        <ele>2225</ele>
        <time>2020-04-09T20:54:48Z</time>
      </trkpt>
      <trkpt lat="44.68737" lon="6.80594">
        <ele>2228</ele>
        <time>2020-04-09T20:55:03Z</time>
      </trkpt>
      <trkpt lat="44.68758" lon="6.8063">
        <ele>2238</ele>
        <time>2020-04-09T20:55:30Z</time>
      </trkpt>
      <trkpt lat="44.68796" lon="6.80672">
        <ele>2256</ele>
        <time>2020-04-09T20:56:08Z</time>
      </trkpt>
      <trkpt lat="44.68788" lon="6.8063">
        <ele>2252</ele>
        <time>2020-04-09T20:56:33Z</time>
      </trkpt>
      <trkpt lat="44.68794" lon="6.80593">
        <ele>2254</ele>
        <time>2020-04-09T20:56:55Z</time>
      </trkpt>
      <trkpt lat="44.68808" lon="6.80605">
        <ele>2261</ele>
        <time>2020-04-09T20:57:08Z</time>
      </trkpt>
      <trkpt lat="44.68813" lon="6.80577">
        <ele>2263</ele>
        <time>2020-04-09T20:57:24Z</time>
      </trkpt>
      <trkpt lat="44.68844" lon="6.80618">
        <ele>2275</ele>
        <time>2020-04-09T20:57:58Z</time>
      </trkpt>
      <trkpt lat="44.68853" lon="6.80586">
        <ele>2277</ele>
        <time>2020-04-09T20:58:18Z</time>
      </trkpt>
      <trkpt lat="44.68896" lon="6.80599">
        <ele>2290</ele>
        <time>2020-04-09T20:58:53Z</time>
      </trkpt>
      <trkpt lat="44.68927" lon="6.80592">
        <ele>2295</ele>
        <time>2020-04-09T20:59:18Z</time>
      </trkpt>
      <trkpt lat="44.68946" lon="6.80607">
        <ele>2295</ele>
        <time>2020-04-09T20:59:36Z</time>
      </trkpt>
      <trkpt lat="44.6897" lon="6.80603">
        <ele>2293</ele>
        <time>2020-04-09T20:59:55Z</time>
      </trkpt>
      <trkpt lat="44.68995" lon="6.80635">
        <ele>2300</ele>
        <time>2020-04-09T21:00:22Z</time>
      </trkpt>
      <trkpt lat="44.69038" lon="6.80662">
        <ele>2300</ele>
        <time>2020-04-09T21:01:00Z</time>
      </trkpt>
      <trkpt lat="44.69104" lon="6.80668">
        <ele>2284</ele>
        <time>2020-04-09T21:01:53Z</time>
      </trkpt>
      <trkpt lat="44.69134" lon="6.80733">
        <ele>2292</ele>
        <time>2020-04-09T21:02:37Z</time>
      </trkpt>
      <trkpt lat="44.69186" lon="6.80777">
        <ele>2291</ele>
        <time>2020-04-09T21:03:26Z</time>
      </trkpt>
      <trkpt lat="44.69238" lon="6.80776">
        <ele>2286</ele>
        <time>2020-04-09T21:04:07Z</time>
      </trkpt>
      <trkpt lat="44.69317" lon="6.80786">
        <ele>2290</ele>
        <time>2020-04-09T21:05:11Z</time>
      </trkpt>
      <trkpt lat="44.6936" lon="6.80773">
        <ele>2285</ele>
        <time>2020-04-09T21:05:46Z</time>
      </trkpt>
      <trkpt lat="44.69392" lon="6.80814">
        <ele>2296</ele>
        <time>2020-04-09T21:06:21Z</time>
      </trkpt>
      <trkpt lat="44.69482" lon="6.80821">
        <ele>2290</ele>
        <time>2020-04-09T21:07:33Z</time>
      </trkpt>
      <trkpt lat="44.69522" lon="6.80862">
        <ele>2298</ele>
        <time>2020-04-09T21:08:12Z</time>
      </trkpt>
      <trkpt lat="44.69677" lon="6.8085">
        <ele>2306</ele>
        <time>2020-04-09T21:10:17Z</time>
      </trkpt>
      <trkpt lat="44.69728" lon="6.80762">
        <ele>2294</ele>
        <time>2020-04-09T21:11:21Z</time>
      </trkpt>
      <trkpt lat="44.69774" lon="6.80721">
        <ele>2289</ele>
        <time>2020-04-09T21:12:05Z</time>
      </trkpt>
      <trkpt lat="44.69828" lon="6.80717">
        <ele>2296</ele>
        <time>2020-04-09T21:12:48Z</time>
      </trkpt>
      <trkpt lat="44.69874" lon="6.80692">
        <ele>2289</ele>
        <time>2020-04-09T21:13:28Z</time>
      </trkpt>
      <trkpt lat="44.70017" lon="6.80732">
        <ele>2285</ele>
        <time>2020-04-09T21:15:24Z</time>
      </trkpt>
      <trkpt lat="44.70124" lon="6.80686">
        <ele>2283</ele>
        <time>2020-04-09T21:16:54Z</time>
      </trkpt>
      <trkpt lat="44.70196" lon="6.80632">
        <ele>2274</ele>
        <time>2020-04-09T21:17:59Z</time>
      </trkpt>
      <trkpt lat="44.70233" lon="6.80653">
        <ele>2286</ele>
        <time>2020-04-09T21:18:31Z</time>
      </trkpt>
      <trkpt lat="44.7032" lon="6.80565">
        <ele>2279</ele>
        <time>2020-04-09T21:19:57Z</time>
      </trkpt>
      <trkpt lat="44.70368" lon="6.80576">
        <ele>2290</ele>
        <time>2020-04-09T21:20:36Z</time>
      </trkpt>
      <trkpt lat="44.70414" lon="6.80579">
        <ele>2295</ele>
        <time>2020-04-09T21:21:13Z</time>
      </trkpt>
      <trkpt lat="44.70484" lon="6.80548">
        <ele>2293</ele>
        <time>2020-04-09T21:22:12Z</time>
      </trkpt>
      <trkpt lat="44.70556" lon="6.80563">
        <ele>2311</ele>
        <time>2020-04-09T21:23:10Z</time>
      </trkpt>
      <trkpt lat="44.70575" lon="6.80533">
        <ele>2304</ele>
        <time>2020-04-09T21:23:33Z</time>
      </trkpt>
      <trkpt lat="44.70607" lon="6.80529">
        <ele>2312</ele>
        <time>2020-04-09T21:23:59Z</time>
      </trkpt>
      <trkpt lat="44.70639" lon="6.80454">
        <ele>2301</ele>
        <time>2020-04-09T21:24:48Z</time>
      </trkpt>
      <trkpt lat="44.7068" lon="6.8043">
        <ele>2310</ele>
        <time>2020-04-09T21:25:24Z</time>
      </trkpt>
      <trkpt lat="44.7069" lon="6.80375">
        <ele>2295</ele>
        <time>2020-04-09T21:25:56Z</time>
      </trkpt>
      <trkpt lat="44.70717" lon="6.80348">
        <ele>2295</ele>
        <time>2020-04-09T21:26:23Z</time>
      </trkpt>
      <trkpt lat="44.70754" lon="6.80283">
        <ele>2284</ele>
        <time>2020-04-09T21:27:10Z</time>
      </trkpt>
      <trkpt lat="44.70787" lon="6.80272">
        <ele>2281</ele>
        <time>2020-04-09T21:27:37Z</time>
      </trkpt>
      <trkpt lat="44.70808" lon="6.80296">
        <ele>2289</ele>
        <time>2020-04-09T21:27:59Z</time>
      </trkpt>
      <trkpt lat="44.70853" lon="6.80305">
        <ele>2290</ele>
        <time>2020-04-09T21:28:35Z</time>
      </trkpt>
      <trkpt lat="44.70922" lon="6.80284">
        <ele>2280</ele>
        <time>2020-04-09T21:29:32Z</time>
      </trkpt>
      <trkpt lat="44.71028" lon="6.80293">
        <ele>2275</ele>
        <time>2020-04-09T21:30:57Z</time>
      </trkpt>
      <trkpt lat="44.71076" lon="6.80302">
        <ele>2275</ele>
        <time>2020-04-09T21:31:36Z</time>
      </trkpt>
      <trkpt lat="44.71161" lon="6.80302">
        <ele>2263</ele>
        <time>2020-04-09T21:32:44Z</time>
      </trkpt>
      <trkpt lat="44.71173" lon="6.80339">
        <ele>2254</ele>
        <time>2020-04-09T21:33:07Z</time>
      </trkpt>
      <trkpt lat="44.71211" lon="6.80328">
        <ele>2248</ele>
        <time>2020-04-09T21:33:38Z</time>
      </trkpt>
      <trkpt lat="44.71147" lon="6.80483">
        <ele>2230</ele>
        <time>2020-04-09T21:35:20Z</time>
      </trkpt>
      <trkpt lat="44.71144" lon="6.80503">
        <ele>2227</ele>
        <time>2020-04-09T21:35:32Z</time>
      </trkpt>
      <trkpt lat="44.71205" lon="6.80509">
        <ele>2210</ele>
        <time>2020-04-09T21:36:20Z</time>
      </trkpt>
      <trkpt lat="44.71347" lon="6.80466">
        <ele>2187</ele>
        <time>2020-04-09T21:38:17Z</time>
      </trkpt>
      <trkpt lat="44.71458" lon="6.80459">
        <ele>2171</ele>
        <time>2020-04-09T21:39:46Z</time>
      </trkpt>
      <trkpt lat="44.71524" lon="6.80437">
        <ele>2158</ele>
        <time>2020-04-09T21:40:40Z</time>
      </trkpt>
      <trkpt lat="44.71627" lon="6.80433">
        <ele>2140</ele>
        <time>2020-04-09T21:42:03Z</time>
      </trkpt>
      <trkpt lat="44.71657" lon="6.80463">
        <ele>2136</ele>
        <time>2020-04-09T21:42:32Z</time>
      </trkpt>
      <trkpt lat="44.71707" lon="6.80428">
        <ele>2130</ele>
        <time>2020-04-09T21:43:17Z</time>
      </trkpt>
      <trkpt lat="44.71749" lon="6.8044">
        <ele>2129</ele>
        <time>2020-04-09T21:43:51Z</time>
      </trkpt>
      <trkpt lat="44.71841" lon="6.80436">
        <ele>2126</ele>
        <time>2020-04-09T21:45:05Z</time>
      </trkpt>
      <trkpt lat="44.71979" lon="6.80494">
        <ele>2126</ele>
        <time>2020-04-09T21:47:00Z</time>
      </trkpt>
      <trkpt lat="44.72052" lon="6.80548">
        <ele>2126</ele>
        <time>2020-04-09T21:48:06Z</time>
      </trkpt>
      <trkpt lat="44.72096" lon="6.8061">
        <ele>2131</ele>
        <time>2020-04-09T21:48:56Z</time>
      </trkpt>
      <trkpt lat="44.7222" lon="6.807">
        <ele>2136</ele>
        <time>2020-04-09T21:50:48Z</time>
      </trkpt>
      <trkpt lat="44.72273" lon="6.80774">
        <ele>2155</ele>
        <time>2020-04-09T21:51:47Z</time>
      </trkpt>
      <trkpt lat="44.72324" lon="6.80785">
        <ele>2146</ele>
        <time>2020-04-09T21:52:29Z</time>
      </trkpt>
      <trkpt lat="44.72497" lon="6.80921">
        <ele>2167</ele>
        <time>2020-04-09T21:55:07Z</time>
      </trkpt>
      <trkpt lat="44.72577" lon="6.8097">
        <ele>2171</ele>
        <time>2020-04-09T21:56:17Z</time>
      </trkpt>
      <trkpt lat="44.72643" lon="6.81072">
        <ele>2177</ele>
        <time>2020-04-09T21:57:36Z</time>
      </trkpt>
      <trkpt lat="44.72722" lon="6.81123">
        <ele>2173</ele>
        <time>2020-04-09T21:58:45Z</time>
      </trkpt>
      <trkpt lat="44.72788" lon="6.81132">
        <ele>2166</ele>
        <time>2020-04-09T21:59:38Z</time>
      </trkpt>
      <trkpt lat="44.72882" lon="6.81185">
        <ele>2161</ele>
        <time>2020-04-09T22:01:00Z</time>
      </trkpt>
      <trkpt lat="44.72981" lon="6.81269">
        <ele>2157</ele>
        <time>2020-04-09T22:02:32Z</time>
      </trkpt>
      <trkpt lat="44.73033" lon="6.81369">
        <ele>2155</ele>
        <time>2020-04-09T22:03:43Z</time>
      </trkpt>
      <trkpt lat="44.73042" lon="6.81404">
        <ele>2154</ele>
        <time>2020-04-09T22:04:04Z</time>
      </trkpt>
      <trkpt lat="44.7312" lon="6.81472">
        <ele>2146</ele>
        <time>2020-04-09T22:05:17Z</time>
      </trkpt>
      <trkpt lat="44.73129" lon="6.8151">
        <ele>2144</ele>
        <time>2020-04-09T22:05:40Z</time>
      </trkpt>
      <trkpt lat="44.73173" lon="6.81589">
        <ele>2132</ele>
        <time>2020-04-09T22:06:37Z</time>
      </trkpt>
      <trkpt lat="44.7318" lon="6.81674">
        <ele>2125</ele>
        <time>2020-04-09T22:07:26Z</time>
      </trkpt>
      <trkpt lat="44.73212" lon="6.81818">
        <ele>2095</ele>
        <time>2020-04-09T22:08:52Z</time>
      </trkpt>
      <trkpt lat="44.73243" lon="6.81858">
        <ele>2078</ele>
        <time>2020-04-09T22:09:25Z</time>
      </trkpt>
      <trkpt lat="44.73304" lon="6.81912">
        <ele>2063</ele>
        <time>2020-04-09T22:10:23Z</time>
      </trkpt>
      <trkpt lat="44.73365" lon="6.81987">
        <ele>2033</ele>
        <time>2020-04-09T22:11:28Z</time>
      </trkpt>
      <trkpt lat="44.73291" lon="6.81997">
        <ele>2024</ele>
        <time>2020-04-09T22:12:27Z</time>
      </trkpt>
      <trkpt lat="44.73243" lon="6.82012">
        <ele>2020</ele>
        <time>2020-04-09T22:13:07Z</time>
      </trkpt>
      <trkpt lat="44.73168" lon="6.82087">
        <ele>1998</ele>
        <time>2020-04-09T22:14:20Z</time>
      </trkpt>
      <trkpt lat="44.73029" lon="6.82292">
        <ele>1961</ele>
        <time>2020-04-09T22:17:02Z</time>
      </trkpt>
      <trkpt lat="44.72989" lon="6.82331">
        <ele>1962</ele>
        <time>2020-04-09T22:17:40Z</time>
      </trkpt>
      <trkpt lat="44.72981" lon="6.82414">
        <ele>1944</ele>
        <time>2020-04-09T22:18:28Z</time>
      </trkpt>
      <trkpt lat="44.72958" lon="6.82466">
        <ele>1941</ele>
        <time>2020-04-09T22:19:03Z</time>
      </trkpt>
      <trkpt lat="44.72958" lon="6.82519">
        <ele>1930</ele>
        <time>2020-04-09T22:19:33Z</time>
      </trkpt>
      <trkpt lat="44.72918" lon="6.8255">
        <ele>1934</ele>
        <time>2020-04-09T22:20:10Z</time>
      </trkpt>
      <trkpt lat="44.72887" lon="6.82566">
        <ele>1940</ele>
        <time>2020-04-09T22:20:36Z</time>
      </trkpt>
      <trkpt lat="44.7291" lon="6.82609">
        <ele>1930</ele>
        <time>2020-04-09T22:21:07Z</time>
      </trkpt>
      <trkpt lat="44.72912" lon="6.82698">
        <ele>1927</ele>
        <time>2020-04-09T22:21:57Z</time>
      </trkpt>
      <trkpt lat="44.72923" lon="6.82804">
        <ele>1921</ele>
        <time>2020-04-09T22:22:58Z</time>
      </trkpt>
      <trkpt lat="44.72954" lon="6.829">
        <ele>1917</ele>
        <time>2020-04-09T22:23:58Z</time>
      </trkpt>
      <trkpt lat="44.72991" lon="6.82964">
        <ele>1909</ele>
        <time>2020-04-09T22:24:45Z</time>
      </trkpt>
      <trkpt lat="44.72989" lon="6.83023">
        <ele>1910</ele>
        <time>2020-04-09T22:25:19Z</time>
      </trkpt>
      <trkpt lat="44.73003" lon="6.83088">
        <ele>1898</ele>
        <time>2020-04-09T22:25:57Z</time>
      </trkpt>
      <trkpt lat="44.72979" lon="6.83205">
        <ele>1880</ele>
        <time>2020-04-09T22:27:07Z</time>
      </trkpt>
      <trkpt lat="44.7293" lon="6.83272">
        <ele>1876</ele>
        <time>2020-04-09T22:28:01Z</time>
      </trkpt>
      <trkpt lat="44.72878" lon="6.83349">
        <ele>1857</ele>
        <time>2020-04-09T22:29:02Z</time>
      </trkpt>
      <trkpt lat="44.72846" lon="6.83334">
        <ele>1871</ele>
        <time>2020-04-09T22:29:29Z</time>
      </trkpt>
      <trkpt lat="44.72838" lon="6.83363">
        <ele>1861</ele>
        <time>2020-04-09T22:29:47Z</time>
      </trkpt>
      <trkpt lat="44.72852" lon="6.83448">
        <ele>1823</ele>
        <time>2020-04-09T22:30:36Z</time>
      </trkpt>
      <trkpt lat="44.72823" lon="6.83637">
        <ele>1784</ele>
        <time>2020-04-09T22:32:26Z</time>
      </trkpt>
      <trkpt lat="44.72777" lon="6.83826">
        <ele>1773</ele>
        <time>2020-04-09T22:34:20Z</time>
      </trkpt>
      <trkpt lat="44.7278" lon="6.83886">
        <ele>1755</ele>
        <time>2020-04-09T22:34:54Z</time>
      </trkpt>
      <trkpt lat="44.72765" lon="6.83915">
        <ele>1755</ele>
        <time>2020-04-09T22:35:14Z</time>
      </trkpt>
      <trkpt lat="44.72727" lon="6.8407">
        <ele>1725</ele>
        <time>2020-04-09T22:36:48Z</time>
      </trkpt>
      <trkpt lat="44.72705" lon="6.84087">
        <ele>1730</ele>
        <time>2020-04-09T22:37:08Z</time>
      </trkpt>
      <trkpt lat="44.72731" lon="6.84138">
        <ele>1716</ele>
        <time>2020-04-09T22:37:44Z</time>
      </trkpt>
      <trkpt lat="44.72737" lon="6.84206">
        <ele>1712</ele>
        <time>2020-04-09T22:38:23Z</time>
      </trkpt>
      <trkpt lat="44.72757" lon="6.84229">
        <ele>1711</ele>
        <time>2020-04-09T22:38:43Z</time>
      </trkpt>
      <trkpt lat="44.72722" lon="6.84294">
        <ele>1713</ele>
        <time>2020-04-09T22:39:30Z</time>
      </trkpt>
      <trkpt lat="44.72603" lon="6.8434">
        <ele>1714</ele>
        <time>2020-04-09T22:41:08Z</time>
      </trkpt>
      <trkpt lat="44.72561" lon="6.84343">
        <ele>1718</ele>
        <time>2020-04-09T22:41:42Z</time>
      </trkpt>
      <trkpt lat="44.7249" lon="6.84401">
        <ele>1723</ele>
        <time>2020-04-09T22:42:48Z</time>
      </trkpt>
      <trkpt lat="44.7245" lon="6.84393">
        <ele>1729</ele>
        <time>2020-04-09T22:43:20Z</time>
      </trkpt>
      <trkpt lat="44.72362" lon="6.84464">
        <ele>1732</ele>
        <time>2020-04-09T22:44:41Z</time>
      </trkpt>
      <trkpt lat="44.72298" lon="6.84511">
        <ele>1733</ele>
        <time>2020-04-09T22:45:39Z</time>
      </trkpt>
      <trkpt lat="44.72248" lon="6.84561">
        <ele>1733</ele>
        <time>2020-04-09T22:46:28Z</time>
      </trkpt>
      <trkpt lat="44.72182" lon="6.8459">
        <ele>1730</ele>
        <time>2020-04-09T22:47:24Z</time>
      </trkpt>
      <trkpt lat="44.72051" lon="6.84637">
        <ele>1739</ele>
        <time>2020-04-09T22:49:12Z</time>
      </trkpt>
      <trkpt lat="44.71944" lon="6.8469">
        <ele>1737</ele>
        <time>2020-04-09T22:50:43Z</time>
      </trkpt>
      <trkpt lat="44.71929" lon="6.84654">
        <ele>1740</ele>
        <time>2020-04-09T22:51:06Z</time>
      </trkpt>
      <trkpt lat="44.71875" lon="6.84668">
        <ele>1739</ele>
        <time>2020-04-09T22:51:50Z</time>
      </trkpt>
      <trkpt lat="44.71845" lon="6.84689">
        <ele>1740</ele>
        <time>2020-04-09T22:52:17Z</time>
      </trkpt>
      <trkpt lat="44.71759" lon="6.84737">
        <ele>1746</ele>
        <time>2020-04-09T22:53:31Z</time>
      </trkpt>
      <trkpt lat="44.71664" lon="6.84715">
        <ele>1757</ele>
        <time>2020-04-09T22:54:48Z</time>
      </trkpt>
      <trkpt lat="44.71549" lon="6.84718">
        <ele>1759</ele>
        <time>2020-04-09T22:56:21Z</time>
      </trkpt>
      <trkpt lat="44.71494" lon="6.84742">
        <ele>1760</ele>
        <time>2020-04-09T22:57:07Z</time>
      </trkpt>
      <trkpt lat="44.71435" lon="6.84713">
        <ele>1768</ele>
        <time>2020-04-09T22:57:57Z</time>
      </trkpt>
      <trkpt lat="44.7138" lon="6.84759">
        <ele>1767</ele>
        <time>2020-04-09T22:58:48Z</time>
      </trkpt>
      <trkpt lat="44.71347" lon="6.84756">
        <ele>1769</ele>
        <time>2020-04-09T22:59:14Z</time>
      </trkpt>
      <trkpt lat="44.71315" lon="6.8478">
        <ele>1766</ele>
        <time>2020-04-09T22:59:43Z</time>
      </trkpt>
      <trkpt lat="44.71292" lon="6.84771">
        <ele>1767</ele>
        <time>2020-04-09T23:00:03Z</time>
      </trkpt>
      <trkpt lat="44.71266" lon="6.848">
        <ele>1764</ele>
        <time>2020-04-09T23:00:29Z</time>
      </trkpt>
      <trkpt lat="44.71222" lon="6.84806">
        <ele>1763</ele>
        <time>2020-04-09T23:01:04Z</time>
      </trkpt>
      <trkpt lat="44.71131" lon="6.84809">
        <ele>1764</ele>
        <time>2020-04-09T23:02:17Z</time>
      </trkpt>
      <trkpt lat="44.71117" lon="6.84821">
        <ele>1764</ele>
        <time>2020-04-09T23:02:30Z</time>
      </trkpt>
      <trkpt lat="44.71089" lon="6.84822">
        <ele>1765</ele>
        <time>2020-04-09T23:02:53Z</time>
      </trkpt>
      <trkpt lat="44.7103" lon="6.84874">
        <ele>1770</ele>
        <time>2020-04-09T23:03:49Z</time>
      </trkpt>
      <trkpt lat="44.70925" lon="6.84841">
        <ele>1774</ele>
        <time>2020-04-09T23:05:15Z</time>
      </trkpt>
      <trkpt lat="44.70828" lon="6.84915">
        <ele>1778</ele>
        <time>2020-04-09T23:06:43Z</time>
      </trkpt>
      <trkpt lat="44.70744" lon="6.84939">
        <ele>1784</ele>
        <time>2020-04-09T23:07:52Z</time>
      </trkpt>
      <trkpt lat="44.70618" lon="6.85044">
        <ele>1792</ele>
        <time>2020-04-09T23:09:49Z</time>
      </trkpt>
      <trkpt lat="44.70576" lon="6.85073">
        <ele>1794</ele>
        <time>2020-04-09T23:10:26Z</time>
      </trkpt>
      <trkpt lat="44.70559" lon="6.85103">
        <ele>1794</ele>
        <time>2020-04-09T23:10:48Z</time>
      </trkpt>
      <trkpt lat="44.70507" lon="6.85103">
        <ele>1800</ele>
        <time>2020-04-09T23:11:30Z</time>
      </trkpt>
      <trkpt lat="44.7045" lon="6.85127">
        <ele>1803</ele>
        <time>2020-04-09T23:12:18Z</time>
      </trkpt>
      <trkpt lat="44.70402" lon="6.85181">
        <ele>1805</ele>
        <time>2020-04-09T23:13:07Z</time>
      </trkpt>
      <trkpt lat="44.70393" lon="6.852">
        <ele>1806</ele>
        <time>2020-04-09T23:13:20Z</time>
      </trkpt>
      <trkpt lat="44.70278" lon="6.8525">
        <ele>1824</ele>
        <time>2020-04-09T23:14:56Z</time>
      </trkpt>
      <trkpt lat="44.70194" lon="6.85322">
        <ele>1833</ele>
        <time>2020-04-09T23:16:15Z</time>
      </trkpt>
      <trkpt lat="44.70085" lon="6.85349">
        <ele>1850</ele>
        <time>2020-04-09T23:17:44Z</time>
      </trkpt>
      <trkpt lat="44.70026" lon="6.85369">
        <ele>1863</ele>
        <time>2020-04-09T23:18:32Z</time>
      </trkpt>
      <trkpt lat="44.70008" lon="6.85452">
        <ele>1859</ele>
        <time>2020-04-09T23:19:22Z</time>
      </trkpt>
      <trkpt lat="44.70003" lon="6.85519">
        <ele>1858</ele>
        <time>2020-04-09T23:20:00Z</time>
      </trkpt>
      <trkpt lat="44.69935" lon="6.85611">
        <ele>1859</ele>
        <time>2020-04-09T23:21:15Z</time>
      </trkpt>
      <trkpt lat="44.69851" lon="6.85704">
        <ele>1857</ele>
        <time>2020-04-09T23:22:41Z</time>
      </trkpt>
      <trkpt lat="44.69748" lon="6.85862">
        <ele>1861</ele>
        <time>2020-04-09T23:24:43Z</time>
      </trkpt>
      <trkpt lat="44.69788" lon="6.85898">
        <ele>1856</ele>
        <time>2020-04-09T23:25:21Z</time>
      </trkpt>
      <trkpt lat="44.69824" lon="6.85909">
        <ele>1855</ele>
        <time>2020-04-09T23:25:51Z</time>
      </trkpt>
      <trkpt lat="44.69802" lon="6.86006">
        <ele>1869</ele>
        <time>2020-04-09T23:26:48Z</time>
      </trkpt>
      <trkpt lat="44.69794" lon="6.8612">
        <ele>1883</ele>
        <time>2020-04-09T23:27:54Z</time>
      </trkpt>
      <trkpt lat="44.69803" lon="6.8629">
        <ele>1915</ele>
        <time>2020-04-09T23:29:31Z</time>
      </trkpt>
      <trkpt lat="44.69823" lon="6.86334">
        <ele>1924</ele>
        <time>2020-04-09T23:30:00Z</time>
      </trkpt>
      <trkpt lat="44.69837" lon="6.86381">
        <ele>1932</ele>
        <time>2020-04-09T23:30:29Z</time>
      </trkpt>
      <trkpt lat="44.69906" lon="6.86458">
        <ele>1955</ele>
        <time>2020-04-09T23:31:40Z</time>
      </trkpt>
      <trkpt lat="44.69937" lon="6.86501">
        <ele>1965</ele>
        <time>2020-04-09T23:32:15Z</time>
      </trkpt>
      <trkpt lat="44.69915" lon="6.86551">
        <ele>1964</ele>
        <time>2020-04-09T23:32:48Z</time>
      </trkpt>
      <trkpt lat="44.69923" lon="6.86623">
        <ele>1973</ele>
        <time>2020-04-09T23:33:30Z</time>
      </trkpt>
      <trkpt lat="44.69905" lon="6.86693">
        <ele>1981</ele>
        <time>2020-04-09T23:34:12Z</time>
      </trkpt>
      <trkpt lat="44.69882" lon="6.86977">
        <ele>2007</ele>
        <time>2020-04-09T23:36:55Z</time>
      </trkpt>
      <trkpt lat="44.69856" lon="6.87109">
        <ele>2018</ele>
        <time>2020-04-09T23:38:13Z</time>
      </trkpt>
      <trkpt lat="44.69835" lon="6.87139">
        <ele>2016</ele>
        <time>2020-04-09T23:38:37Z</time>
      </trkpt>
      <trkpt lat="44.69696" lon="6.87296">
        <ele>2010</ele>
        <time>2020-04-09T23:40:59Z</time>
      </trkpt>
      <trkpt lat="44.69602" lon="6.87391">
        <ele>2006</ele>
        <time>2020-04-09T23:42:32Z</time>
      </trkpt>
      <trkpt lat="44.69575" lon="6.87458">
        <ele>2014</ele>
        <time>2020-04-09T23:43:16Z</time>
      </trkpt>
      <trkpt lat="44.69526" lon="6.87453">
        <ele>2010</ele>
        <time>2020-04-09T23:43:55Z</time>
      </trkpt>
      <trkpt lat="44.69497" lon="6.87426">
        <ele>1998</ele>
        <time>2020-04-09T23:44:23Z</time>
      </trkpt>
      <trkpt lat="44.69307" lon="6.87525">
        <ele>1986</ele>
        <time>2020-04-09T23:47:05Z</time>
      </trkpt>
      <trkpt lat="44.69175" lon="6.87525">
        <ele>1970</ele>
        <time>2020-04-09T23:48:51Z</time>
      </trkpt>
      <trkpt lat="44.69068" lon="6.87572">
        <ele>1969</ele>
        <time>2020-04-09T23:50:21Z</time>
      </trkpt>
      <trkpt lat="44.69033" lon="6.87569">
        <ele>1963</ele>
        <time>2020-04-09T23:50:49Z</time>
      </trkpt>
      <trkpt lat="44.69003" lon="6.87591">
        <ele>1966</ele>
        <time>2020-04-09T23:51:16Z</time>
      </trkpt>
      <trkpt lat="44.68898" lon="6.87588">
        <ele>1958</ele>
        <time>2020-04-09T23:52:40Z</time>
      </trkpt>
      <trkpt lat="44.68827" lon="6.87602">
        <ele>1960</ele>
        <time>2020-04-09T23:53:37Z</time>
      </trkpt>
      <trkpt lat="44.68761" lon="6.87637">
        <ele>1960</ele>
        <time>2020-04-09T23:54:34Z</time>
      </trkpt>
      <trkpt lat="44.68707" lon="6.87601">
        <ele>1967</ele>
        <time>2020-04-09T23:55:22Z</time>
      </trkpt>
      <trkpt lat="44.686" lon="6.87722">
        <ele>1975</ele>
        <time>2020-04-09T23:57:12Z</time>
      </trkpt>
      <trkpt lat="44.68508" lon="6.87862">
        <ele>1976</ele>
        <time>2020-04-09T23:59:00Z</time>
      </trkpt>
      <trkpt lat="44.68438" lon="6.87904">
        <ele>1982</ele>
        <time>2020-04-10T00:00:01Z</time>
      </trkpt>
      <trkpt lat="44.68383" lon="6.87986">
        <ele>1983</ele>
        <time>2020-04-10T00:01:05Z</time>
      </trkpt>
      <trkpt lat="44.68308" lon="6.88033">
        <ele>1991</ele>
        <time>2020-04-10T00:02:11Z</time>
      </trkpt>
      <trkpt lat="44.68224" lon="6.88176">
        <ele>1997</ele>
        <time>2020-04-10T00:03:57Z</time>
      </trkpt>
      <trkpt lat="44.68155" lon="6.8828">
        <ele>2010</ele>
        <time>2020-04-10T00:05:18Z</time>
      </trkpt>
      <trkpt lat="44.68104" lon="6.88371">
        <ele>2017</ele>
        <time>2020-04-10T00:06:24Z</time>
      </trkpt>
      <trkpt lat="44.68034" lon="6.88435">
        <ele>2029</ele>
        <time>2020-04-10T00:07:30Z</time>
      </trkpt>
      <trkpt lat="44.67937" lon="6.88631">
        <ele>2046</ele>
        <time>2020-04-10T00:09:46Z</time>
      </trkpt>
      <trkpt lat="44.67875" lon="6.88749">
        <ele>2058</ele>
        <time>2020-04-10T00:11:10Z</time>
      </trkpt>
      <trkpt lat="44.67854" lon="6.88772">
        <ele>2063</ele>
        <time>2020-04-10T00:11:31Z</time>
      </trkpt>
      <trkpt lat="44.6783" lon="6.88827">
        <ele>2066</ele>
        <time>2020-04-10T00:12:08Z</time>
      </trkpt>
      <trkpt lat="44.67803" lon="6.88921">
        <ele>2071</ele>
        <time>2020-04-10T00:13:06Z</time>
      </trkpt>
      <trkpt lat="44.67777" lon="6.88972">
        <ele>2080</ele>
        <time>2020-04-10T00:13:41Z</time>
      </trkpt>
      <trkpt lat="44.67759" lon="6.89063">
        <ele>2087</ele>
        <time>2020-04-10T00:14:35Z</time>
      </trkpt>
      <trkpt lat="44.67724" lon="6.89107">
        <ele>2094</ele>
        <time>2020-04-10T00:15:13Z</time>
      </trkpt>
      <trkpt lat="44.67712" lon="6.89203">
        <ele>2099</ele>
        <time>2020-04-10T00:16:08Z</time>
      </trkpt>
      <trkpt lat="44.67655" lon="6.89308">
        <ele>2102</ele>
        <time>2020-04-10T00:17:24Z</time>
      </trkpt>
      <trkpt lat="44.67581" lon="6.89488">
        <ele>2110</ele>
        <time>2020-04-10T00:19:22Z</time>
      </trkpt>
      <trkpt lat="44.6748" lon="6.89634">
        <ele>2117</ele>
        <time>2020-04-10T00:21:18Z</time>
      </trkpt>
      <trkpt lat="44.67446" lon="6.89722">
        <ele>2122</ele>
        <time>2020-04-10T00:22:15Z</time>
      </trkpt>
      <trkpt lat="44.67407" lon="6.89834">
        <ele>2132</ele>
        <time>2020-04-10T00:23:26Z</time>
      </trkpt>
      <trkpt lat="44.67386" lon="6.89995">
        <ele>2145</ele>
        <time>2020-04-10T00:24:59Z</time>
      </trkpt>
      <trkpt lat="44.67406" lon="6.901">
        <ele>2151</ele>
        <time>2020-04-10T00:26:01Z</time>
      </trkpt>
      <trkpt lat="44.67417" lon="6.90203">
        <ele>2155</ele>
        <time>2020-04-10T00:27:00Z</time>
      </trkpt>
      <trkpt lat="44.67455" lon="6.90292">
        <ele>2162</ele>
        <time>2020-04-10T00:27:59Z</time>
      </trkpt>
      <trkpt lat="44.67477" lon="6.904">
        <ele>2165</ele>
        <time>2020-04-10T00:29:03Z</time>
      </trkpt>
      <trkpt lat="44.67465" lon="6.90521">
        <ele>2175</ele>
        <time>2020-04-10T00:30:13Z</time>
      </trkpt>
      <trkpt lat="44.67487" lon="6.90685">
        <ele>2189</ele>
        <time>2020-04-10T00:31:48Z</time>
      </trkpt>
      <trkpt lat="44.67482" lon="6.90709">
        <ele>2193</ele>
        <time>2020-04-10T00:32:02Z</time>
      </trkpt>
      <trkpt lat="44.67494" lon="6.90747">
        <ele>2195</ele>
        <time>2020-04-10T00:32:26Z</time>
      </trkpt>
      <trkpt lat="44.67491" lon="6.90781">
        <ele>2200</ele>
        <time>2020-04-10T00:32:45Z</time>
      </trkpt>
      <trkpt lat="44.67517" lon="6.90805">
        <ele>2200</ele>
        <time>2020-04-10T00:33:10Z</time>
      </trkpt>
      <trkpt lat="44.67528" lon="6.90848">
        <ele>2203</ele>
        <time>2020-04-10T00:33:36Z</time>
      </trkpt>
      <trkpt lat="44.67521" lon="6.9087">
        <ele>2205</ele>
        <time>2020-04-10T00:33:50Z</time>
      </trkpt>
      <trkpt lat="44.67557" lon="6.90983">
        <ele>2203</ele>
        <time>2020-04-10T00:35:00Z</time>
      </trkpt>
      <trkpt lat="44.67559" lon="6.91045">
        <ele>2204</ele>
        <time>2020-04-10T00:35:36Z</time>
      </trkpt>
      <trkpt lat="44.67605" lon="6.91136">
        <ele>2200</ele>
        <time>2020-04-10T00:36:39Z</time>
      </trkpt>
      <trkpt lat="44.67609" lon="6.91174">
        <ele>2202</ele>
        <time>2020-04-10T00:37:01Z</time>
      </trkpt>
      <trkpt lat="44.6766" lon="6.91222">
        <ele>2202</ele>
        <time>2020-04-10T00:37:50Z</time>
      </trkpt>
      <trkpt lat="44.67679" lon="6.9128">
        <ele>2206</ele>
        <time>2020-04-10T00:38:27Z</time>
      </trkpt>
      <trkpt lat="44.67671" lon="6.91326">
        <ele>2207</ele>
        <time>2020-04-10T00:38:54Z</time>
      </trkpt>
      <trkpt lat="44.6769" lon="6.91423">
        <ele>2217</ele>
        <time>2020-04-10T00:39:51Z</time>
      </trkpt>
      <trkpt lat="44.6768" lon="6.91502">
        <ele>2226</ele>
        <time>2020-04-10T00:40:37Z</time>
      </trkpt>
      <trkpt lat="44.67635" lon="6.91556">
        <ele>2233</ele>
        <time>2020-04-10T00:41:24Z</time>
      </trkpt>
      <trkpt lat="44.67616" lon="6.91644">
        <ele>2243</ele>
        <time>2020-04-10T00:42:16Z</time>
      </trkpt>
      <trkpt lat="44.67572" lon="6.91697">
        <ele>2250</ele>
        <time>2020-04-10T00:43:03Z</time>
      </trkpt>
      <trkpt lat="44.67544" lon="6.91699">
        <ele>2255</ele>
        <time>2020-04-10T00:43:25Z</time>
      </trkpt>
      <trkpt lat="44.67484" lon="6.91756">
        <ele>2270</ele>
        <time>2020-04-10T00:44:23Z</time>
      </trkpt>
      <trkpt lat="44.67448" lon="6.91794">
        <ele>2279</ele>
        <time>2020-04-10T00:44:59Z</time>
      </trkpt>
      <trkpt lat="44.67432" lon="6.91838">
        <ele>2284</ele>
        <time>2020-04-10T00:45:27Z</time>
      </trkpt>
      <trkpt lat="44.67339" lon="6.91949">
        <ele>2312</ele>
        <time>2020-04-10T00:47:05Z</time>
      </trkpt>
      <trkpt lat="44.67241" lon="6.92074">
        <ele>2345</ele>
        <time>2020-04-10T00:48:51Z</time>
      </trkpt>
      <trkpt lat="44.67215" lon="6.92146">
        <ele>2359</ele>
        <time>2020-04-10T00:49:37Z</time>
      </trkpt>
      <trkpt lat="44.67181" lon="6.92219">
        <ele>2372</ele>
        <time>2020-04-10T00:50:27Z</time>
      </trkpt>
      <trkpt lat="44.67221" lon="6.92233">
        <ele>2374</ele>
        <time>2020-04-10T00:51:00Z</time>
      </trkpt>
      <trkpt lat="44.67243" lon="6.92268">
        <ele>2378</ele>
        <time>2020-04-10T00:51:26Z</time>
      </trkpt>
      <trkpt lat="44.67127" lon="6.92389">
        <ele>2401</ele>
        <time>2020-04-10T00:53:22Z</time>
      </trkpt>
      <trkpt lat="44.67089" lon="6.92382">
        <ele>2408</ele>
        <time>2020-04-10T00:53:53Z</time>
      </trkpt>
      <trkpt lat="44.67063" lon="6.92401">
        <ele>2411</ele>
        <time>2020-04-10T00:54:16Z</time>
      </trkpt>
      <trkpt lat="44.66925" lon="6.92547">
        <ele>2427</ele>
        <time>2020-04-10T00:56:34Z</time>
      </trkpt>
      <trkpt lat="44.66916" lon="6.92585">
        <ele>2428</ele>
        <time>2020-04-10T00:56:57Z</time>
      </trkpt>
      <trkpt lat="44.66936" lon="6.92662">
        <ele>2430</ele>
        <time>2020-04-10T00:57:44Z</time>
      </trkpt>
      <trkpt lat="44.66886" lon="6.92785">
        <ele>2437</ele>
        <time>2020-04-10T00:59:05Z</time>
      </trkpt>
      <trkpt lat="44.66818" lon="6.92943">
        <ele>2441</ele>
        <time>2020-04-10T01:00:50Z</time>
      </trkpt>
      <trkpt lat="44.66696" lon="6.93119">
        <ele>2443</ele>
        <time>2020-04-10T01:03:10Z</time>
      </trkpt>
      <trkpt lat="44.66666" lon="6.93178">
        <ele>2443</ele>
        <time>2020-04-10T01:03:51Z</time>
      </trkpt>
      <trkpt lat="44.66579" lon="6.935">
        <ele>2458</ele>
        <time>2020-04-10T01:07:07Z</time>
      </trkpt>
      <trkpt lat="44.66618" lon="6.93544">
        <ele>2457</ele>
        <time>2020-04-10T01:07:47Z</time>
      </trkpt>
      <trkpt lat="44.66594" lon="6.93562">
        <ele>2460</ele>
        <time>2020-04-10T01:08:09Z</time>
      </trkpt>
      <trkpt lat="44.66564" lon="6.93636">
        <ele>2470</ele>
        <time>2020-04-10T01:08:57Z</time>
      </trkpt>
      <trkpt lat="44.66542" lon="6.93668">
        <ele>2475</ele>
        <time>2020-04-10T01:09:23Z</time>
      </trkpt>
      <trkpt lat="44.66545" lon="6.93706">
        <ele>2478</ele>
        <time>2020-04-10T01:09:45Z</time>
      </trkpt>
      <trkpt lat="44.66538" lon="6.93718">
        <ele>2479</ele>
        <time>2020-04-10T01:09:53Z</time>
      </trkpt>
      <trkpt lat="44.6654" lon="6.9375">
        <ele>2482</ele>
        <time>2020-04-10T01:10:12Z</time>
      </trkpt>
      <trkpt lat="44.66528" lon="6.93793">
        <ele>2484</ele>
        <time>2020-04-10T01:10:38Z</time>
      </trkpt>
      <trkpt lat="44.66533" lon="6.93826">
        <ele>2485</ele>
        <time>2020-04-10T01:10:57Z</time>
      </trkpt>
      <trkpt lat="44.66533" lon="6.93937">
        <ele>2489</ele>
        <time>2020-04-10T01:12:00Z</time>
      </trkpt>
      <trkpt lat="44.66552" lon="6.93987">
        <ele>2493</ele>
        <time>2020-04-10T01:12:33Z</time>
      </trkpt>
      <trkpt lat="44.6653" lon="6.94093">
        <ele>2501</ele>
        <time>2020-04-10T01:13:36Z</time>
      </trkpt>
      <trkpt lat="44.66542" lon="6.94116">
        <ele>2502</ele>
        <time>2020-04-10T01:13:52Z</time>
      </trkpt>
      <trkpt lat="44.66529" lon="6.94173">
        <ele>2507</ele>
        <time>2020-04-10T01:14:26Z</time>
      </trkpt>
      <trkpt lat="44.66509" lon="6.94184">
        <ele>2510</ele>
        <time>2020-04-10T01:14:43Z</time>
      </trkpt>
      <trkpt lat="44.66461" lon="6.94158">
        <ele>2511</ele>
        <time>2020-04-10T01:15:24Z</time>
      </trkpt>
      <trkpt lat="44.66392" lon="6.94219">
        <ele>2535</ele>
        <time>2020-04-10T01:16:30Z</time>
      </trkpt>
      <trkpt lat="44.66357" lon="6.9421">
        <ele>2540</ele>
        <time>2020-04-10T01:16:58Z</time>
      </trkpt>
      <trkpt lat="44.66338" lon="6.94219">
        <ele>2546</ele>
        <time>2020-04-10T01:17:14Z</time>
      </trkpt>
      <trkpt lat="44.66353" lon="6.94271">
        <ele>2558</ele>
        <time>2020-04-10T01:17:46Z</time>
      </trkpt>
      <trkpt lat="44.66335" lon="6.94252">
        <ele>2554</ele>
        <time>2020-04-10T01:18:04Z</time>
      </trkpt>
      <trkpt lat="44.66312" lon="6.94269">
        <ele>2568</ele>
        <time>2020-04-10T01:18:25Z</time>
      </trkpt>
      <trkpt lat="44.66306" lon="6.94284">
        <ele>2576</ele>
        <time>2020-04-10T01:18:35Z</time>
      </trkpt>
      <trkpt lat="44.6622" lon="6.94343">
        <ele>2629</ele>
        <time>2020-04-10T01:19:51Z</time>
      </trkpt>
      <trkpt lat="44.66242" lon="6.94365">
        <ele>2635</ele>
        <time>2020-04-10T01:20:13Z</time>
      </trkpt>
      <trkpt lat="44.66185" lon="6.94403">
        <ele>2654</ele>
        <time>2020-04-10T01:21:03Z</time>
      </trkpt>
      <trkpt lat="44.6616" lon="6.94389">
        <ele>2652</ele>
        <time>2020-04-10T01:21:25Z</time>
      </trkpt>
      <trkpt lat="44.66152" lon="6.94451">
        <ele>2673</ele>
        <time>2020-04-10T01:22:01Z</time>
      </trkpt>
      <trkpt lat="44.66097" lon="6.94509">
        <ele>2691</ele>
        <time>2020-04-10T01:22:56Z</time>
      </trkpt>
      <trkpt lat="44.66133" lon="6.94522">
        <ele>2694</ele>
        <time>2020-04-10T01:23:26Z</time>
      </trkpt>
      <trkpt lat="44.66113" lon="6.9456">
        <ele>2703</ele>
        <time>2020-04-10T01:23:53Z</time>
      </trkpt>
      <trkpt lat="44.66135" lon="6.94623">
        <ele>2718</ele>
        <time>2020-04-10T01:24:33Z</time>
      </trkpt>
      <trkpt lat="44.66165" lon="6.94762">
        <ele>2738</ele>
        <time>2020-04-10T01:25:55Z</time>
      </trkpt>
      <trkpt lat="44.66202" lon="6.94837">
        <ele>2754</ele>
        <time>2020-04-10T01:26:47Z</time>
      </trkpt>
      <trkpt lat="44.66189" lon="6.95031">
        <ele>2786</ele>
        <time>2020-04-10T01:28:38Z</time>
      </trkpt>
      <trkpt lat="44.66167" lon="6.95158">
        <ele>2811</ele>
        <time>2020-04-10T01:29:53Z</time>
      </trkpt>
      <trkpt lat="44.66158" lon="6.95275">
        <ele>2833</ele>
        <time>2020-04-10T01:31:00Z</time>
      </trkpt>
      <trkpt lat="44.66109" lon="6.95333">
        <ele>2858</ele>
        <time>2020-04-10T01:31:51Z</time>
      </trkpt>
      <trkpt lat="44.66098" lon="6.95317">
        <ele>2860</ele>
        <time>2020-04-10T01:32:04Z</time>
      </trkpt>
      <trkpt lat="44.66053" lon="6.95346">
        <ele>2879</ele>
        <time>2020-04-10T01:32:43Z</time>
      </trkpt>
      <trkpt lat="44.66018" lon="6.95433">
        <ele>2890</ele>
        <time>2020-04-10T01:33:40Z</time>
      </trkpt>
      <trkpt lat="44.65987" lon="6.95418">
        <ele>2890</ele>
        <time>2020-04-10T01:34:06Z</time>
      </trkpt>
      <trkpt lat="44.65904" lon="6.95409">
        <ele>2881</ele>
        <time>2020-04-10T01:35:13Z</time>
      </trkpt>
      <trkpt lat="44.65893" lon="6.95383">
        <ele>2883</ele>
        <time>2020-04-10T01:35:30Z</time>
      </trkpt>
      <trkpt lat="44.65845" lon="6.95368">
        <ele>2869</ele>
        <time>2020-04-10T01:36:10Z</time>
      </trkpt>
      <trkpt lat="44.65827" lon="6.95331">
        <ele>2869</ele>
        <time>2020-04-10T01:36:35Z</time>
      </trkpt>
      <trkpt lat="44.65814" lon="6.95317">
        <ele>2866</ele>
        <time>2020-04-10T01:36:48Z</time>
      </trkpt>
      <trkpt lat="44.65801" lon="6.95337">
        <ele>2856</ele>
        <time>2020-04-10T01:37:04Z</time>
      </trkpt>
      <trkpt lat="44.65726" lon="6.95307">
        <ele>2829</ele>
        <time>2020-04-10T01:38:06Z</time>
      </trkpt>
      <trkpt lat="44.65695" lon="6.95322">
        <ele>2815</ele>
        <time>2020-04-10T01:38:32Z</time>
      </trkpt>
      <trkpt lat="44.65673" lon="6.95324">
        <ele>2806</ele>
        <time>2020-04-10T01:38:50Z</time>
      </trkpt>
      <trkpt lat="44.65638" lon="6.95355">
        <ele>2797</ele>
        <time>2020-04-10T01:39:23Z</time>
      </trkpt>
      <trkpt lat="44.65583" lon="6.95393">
        <ele>2787</ele>
        <time>2020-04-10T01:40:12Z</time>
      </trkpt>
      <trkpt lat="44.65566" lon="6.95451">
        <ele>2787</ele>
        <time>2020-04-10T01:40:48Z</time>
      </trkpt>
      <trkpt lat="44.65483" lon="6.9548">
        <ele>2768</ele>
        <time>2020-04-10T01:41:56Z</time>
      </trkpt>
      <trkpt lat="44.6542" lon="6.95507">
        <ele>2753</ele>
        <time>2020-04-10T01:42:49Z</time>
      </trkpt>
      <trkpt lat="44.65401" lon="6.95563">
        <ele>2752</ele>
        <time>2020-04-10T01:43:25Z</time>
      </trkpt>
      <trkpt lat="44.65365" lon="6.95557">
        <ele>2746</ele>
        <time>2020-04-10T01:43:54Z</time>
      </trkpt>
      <trkpt lat="44.653" lon="6.95657">
        <ele>2733</ele>
        <time>2020-04-10T01:45:11Z</time>
      </trkpt>
      <trkpt lat="44.65241" lon="6.95624">
        <ele>2724</ele>
        <time>2020-04-10T01:46:02Z</time>
      </trkpt>
      <trkpt lat="44.65172" lon="6.95653">
        <ele>2705</ele>
        <time>2020-04-10T01:46:59Z</time>
      </trkpt>
      <trkpt lat="44.65128" lon="6.95647">
        <ele>2693</ele>
        <time>2020-04-10T01:47:35Z</time>
      </trkpt>
      <trkpt lat="44.65121" lon="6.95627">
        <ele>2691</ele>
        <time>2020-04-10T01:47:47Z</time>
      </trkpt>
      <trkpt lat="44.65105" lon="6.95618">
        <ele>2686</ele>
        <time>2020-04-10T01:48:01Z</time>
      </trkpt>
      <trkpt lat="44.6507" lon="6.95651">
        <ele>2679</ele>
        <time>2020-04-10T01:48:35Z</time>
      </trkpt>
      <trkpt lat="44.64974" lon="6.95688">
        <ele>2654</ele>
        <time>2020-04-10T01:49:55Z</time>
      </trkpt>
      <trkpt lat="44.64912" lon="6.95745">
        <ele>2638</ele>
        <time>2020-04-10T01:50:54Z</time>
      </trkpt>
      <trkpt lat="44.64906" lon="6.95791">
        <ele>2639</ele>
        <time>2020-04-10T01:51:21Z</time>
      </trkpt>
      <trkpt lat="44.64827" lon="6.95893">
        <ele>2622</ele>
        <time>2020-04-10T01:52:46Z</time>
      </trkpt>
      <trkpt lat="44.64757" lon="6.9587">
        <ele>2604</ele>
        <time>2020-04-10T01:53:44Z</time>
      </trkpt>
      <trkpt lat="44.64742" lon="6.95847">
        <ele>2597</ele>
        <time>2020-04-10T01:54:02Z</time>
      </trkpt>
      <trkpt lat="44.64699" lon="6.95847">
        <ele>2587</ele>
        <time>2020-04-10T01:54:36Z</time>
      </trkpt>
      <trkpt lat="44.64651" lon="6.95862">
        <ele>2577</ele>
        <time>2020-04-10T01:55:16Z</time>
      </trkpt>
      <trkpt lat="44.64611" lon="6.95938">
        <ele>2566</ele>
        <time>2020-04-10T01:56:09Z</time>
      </trkpt>
      <trkpt lat="44.64551" lon="6.96034">
        <ele>2556</ele>
        <time>2020-04-10T01:57:22Z</time>
      </trkpt>
      <trkpt lat="44.64461" lon="6.9621">
        <ele>2540</ele>
        <time>2020-04-10T01:59:26Z</time>
      </trkpt>
      <trkpt lat="44.64404" lon="6.9633">
        <ele>2532</ele>
        <time>2020-04-10T02:00:48Z</time>
      </trkpt>
      <trkpt lat="44.64308" lon="6.96398">
        <ele>2532</ele>
        <time>2020-04-10T02:02:14Z</time>
      </trkpt>
      <trkpt lat="44.64362" lon="6.96469">
        <ele>2519</ele>
        <time>2020-04-10T02:03:13Z</time>
      </trkpt>
      <trkpt lat="44.64393" lon="6.96492">
        <ele>2510</ele>
        <time>2020-04-10T02:03:41Z</time>
      </trkpt>
      <trkpt lat="44.6444" lon="6.96492">
        <ele>2501</ele>
        <time>2020-04-10T02:04:19Z</time>
      </trkpt>
      <trkpt lat="44.64616" lon="6.96583">
        <ele>2452</ele>
        <time>2020-04-10T02:06:49Z</time>
      </trkpt>
      <trkpt lat="44.64666" lon="6.96666">
        <ele>2418</ele>
        <time>2020-04-10T02:07:51Z</time>
      </trkpt>
      <trkpt lat="44.64722" lon="6.96697">
        <ele>2389</ele>
        <time>2020-04-10T02:08:39Z</time>
      </trkpt>
      <trkpt lat="44.64714" lon="6.96763">
        <ele>2371</ele>
        <time>2020-04-10T02:09:17Z</time>
      </trkpt>
      <trkpt lat="44.6467" lon="6.96879">
        <ele>2330</ele>
        <time>2020-04-10T02:10:32Z</time>
      </trkpt>
      <trkpt lat="44.64891" lon="6.9679">
        <ele>2294</ele>
        <time>2020-04-10T02:13:36Z</time>
      </trkpt>
      <trkpt lat="44.64764" lon="6.96955">
        <ele>2257</ele>
        <time>2020-04-10T02:15:55Z</time>
      </trkpt>
      <trkpt lat="44.64718" lon="6.97061">
        <ele>2234</ele>
        <time>2020-04-10T02:17:05Z</time>
      </trkpt>
      <trkpt lat="44.64722" lon="6.97121">
        <ele>2222</ele>
        <time>2020-04-10T02:17:40Z</time>
      </trkpt>
      <trkpt lat="44.64818" lon="6.97196">
        <ele>2181</ele>
        <time>2020-04-10T02:19:08Z</time>
      </trkpt>
      <trkpt lat="44.6483" lon="6.97272">
        <ele>2168</ele>
        <time>2020-04-10T02:19:52Z</time>
      </trkpt>
      <trkpt lat="44.64921" lon="6.9731">
        <ele>2126</ele>
        <time>2020-04-10T02:21:08Z</time>
      </trkpt>
      <trkpt lat="44.64953" lon="6.97375">
        <ele>2116</ele>
        <time>2020-04-10T02:21:53Z</time>
      </trkpt>
      <trkpt lat="44.65034" lon="6.97485">
        <ele>2086</ele>
        <time>2020-04-10T02:23:23Z</time>
      </trkpt>
      <trkpt lat="44.65058" lon="6.97687">
        <ele>2043</ele>
        <time>2020-04-10T02:25:20Z</time>
      </trkpt>
      <trkpt lat="44.65094" lon="6.97808">
        <ele>1981</ele>
        <time>2020-04-10T02:26:35Z</time>
      </trkpt>
      <trkpt lat="44.65013" lon="6.97972">
        <ele>1968</ele>
        <time>2020-04-10T02:28:28Z</time>
      </trkpt>
      <trkpt lat="44.65018" lon="6.98154">
        <ele>1947</ele>
        <time>2020-04-10T02:30:12Z</time>
      </trkpt>
      <trkpt lat="44.65003" lon="6.98302">
        <ele>1931</ele>
        <time>2020-04-10T02:31:37Z</time>
      </trkpt>
      <trkpt lat="44.64983" lon="6.984">
        <ele>1926</ele>
        <time>2020-04-10T02:32:35Z</time>
      </trkpt>
      <trkpt lat="44.64997" lon="6.98576">
        <ele>1896</ele>
        <time>2020-04-10T02:34:16Z</time>
      </trkpt>
      <trkpt lat="44.65131" lon="6.98531">
        <ele>1915</ele>
        <time>2020-04-10T02:36:06Z</time>
      </trkpt>
      <trkpt lat="44.65041" lon="6.98486">
        <ele>1914</ele>
        <time>2020-04-10T02:37:23Z</time>
      </trkpt>
      <trkpt lat="44.65116" lon="6.98454">
        <ele>1934</ele>
        <time>2020-04-10T02:38:26Z</time>
      </trkpt>
      <trkpt lat="44.65234" lon="6.98486">
        <ele>1957</ele>
        <time>2020-04-10T02:40:02Z</time>
      </trkpt>
      <trkpt lat="44.65264" lon="6.98546">
        <ele>1953</ele>
        <time>2020-04-10T02:40:44Z</time>
      </trkpt>
      <trkpt lat="44.65324" lon="6.98454">
        <ele>1997</ele>
        <time>2020-04-10T02:41:55Z</time>
      </trkpt>
      <trkpt lat="44.65449" lon="6.98389">
        <ele>2043</ele>
        <time>2020-04-10T02:43:42Z</time>
      </trkpt>
      <trkpt lat="44.65508" lon="6.98436">
        <ele>2078</ele>
        <time>2020-04-10T02:44:36Z</time>
      </trkpt>
      <trkpt lat="44.65487" lon="6.98471">
        <ele>2074</ele>
        <time>2020-04-10T02:45:02Z</time>
      </trkpt>
      <trkpt lat="44.65512" lon="6.98512">
        <ele>2092</ele>
        <time>2020-04-10T02:45:33Z</time>
      </trkpt>
      <trkpt lat="44.65599" lon="6.98578">
        <ele>2137</ele>
        <time>2020-04-10T02:46:52Z</time>
      </trkpt>
      <trkpt lat="44.65672" lon="6.98537">
        <ele>2158</ele>
        <time>2020-04-10T02:47:55Z</time>
      </trkpt>
      <trkpt lat="44.6566" lon="6.98582">
        <ele>2152</ele>
        <time>2020-04-10T02:48:22Z</time>
      </trkpt>
      <trkpt lat="44.65754" lon="6.98548">
        <ele>2158</ele>
        <time>2020-04-10T02:49:40Z</time>
      </trkpt>
      <trkpt lat="44.65934" lon="6.98565">
        <ele>2140</ele>
        <time>2020-04-10T02:52:04Z</time>
      </trkpt>
      <trkpt lat="44.66049" lon="6.98535">
        <ele>2158</ele>
        <time>2020-04-10T02:53:38Z</time>
      </trkpt>
      <trkpt lat="44.66165" lon="6.98544">
        <ele>2166</ele>
        <time>2020-04-10T02:55:11Z</time>
      </trkpt>
      <trkpt lat="44.66203" lon="6.98567">
        <ele>2166</ele>
        <time>2020-04-10T02:55:44Z</time>
      </trkpt>
      <trkpt lat="44.66353" lon="6.98539">
        <ele>2187</ele>
        <time>2020-04-10T02:57:45Z</time>
      </trkpt>
      <trkpt lat="44.66505" lon="6.98522">
        <ele>2209</ele>
        <time>2020-04-10T02:59:47Z</time>
      </trkpt>
      <trkpt lat="44.66609" lon="6.98475">
        <ele>2224</ele>
        <time>2020-04-10T03:01:15Z</time>
      </trkpt>
      <trkpt lat="44.66713" lon="6.98494">
        <ele>2235</ele>
        <time>2020-04-10T03:02:39Z</time>
      </trkpt>
      <trkpt lat="44.66943" lon="6.98385">
        <ele>2285</ele>
        <time>2020-04-10T03:05:53Z</time>
      </trkpt>
      <trkpt lat="44.67161" lon="6.98379">
        <ele>2322</ele>
        <time>2020-04-10T03:08:48Z</time>
      </trkpt>
      <trkpt lat="44.67319" lon="6.98293">
        <ele>2370</ele>
        <time>2020-04-10T03:11:03Z</time>
      </trkpt>
      <trkpt lat="44.67319" lon="6.98355">
        <ele>2364</ele>
        <time>2020-04-10T03:11:39Z</time>
      </trkpt>
      <trkpt lat="44.67386" lon="6.98327">
        <ele>2384</ele>
        <time>2020-04-10T03:12:35Z</time>
      </trkpt>
      <trkpt lat="44.67381" lon="6.98376">
        <ele>2386</ele>
        <time>2020-04-10T03:13:03Z</time>
      </trkpt>
      <trkpt lat="44.67331" lon="6.98417">
        <ele>2367</ele>
        <time>2020-04-10T03:13:49Z</time>
      </trkpt>
      <trkpt lat="44.67453" lon="6.98445">
        <ele>2422</ele>
        <time>2020-04-10T03:15:28Z</time>
      </trkpt>
      <trkpt lat="44.6754" lon="6.98396">
        <ele>2447</ele>
        <time>2020-04-10T03:16:43Z</time>
      </trkpt>
      <trkpt lat="44.67602" lon="6.98387">
        <ele>2462</ele>
        <time>2020-04-10T03:17:33Z</time>
      </trkpt>
      <trkpt lat="44.67619" lon="6.98353">
        <ele>2460</ele>
        <time>2020-04-10T03:17:57Z</time>
      </trkpt>
      <trkpt lat="44.67673" lon="6.98372">
        <ele>2474</ele>
        <time>2020-04-10T03:18:41Z</time>
      </trkpt>
      <trkpt lat="44.67897" lon="6.98027">
        <ele>2605</ele>
        <time>2020-04-10T03:23:07Z</time>
      </trkpt>
      <trkpt lat="44.67936" lon="6.9807">
        <ele>2610</ele>
        <time>2020-04-10T03:23:47Z</time>
      </trkpt>
      <trkpt lat="44.68063" lon="6.9814">
        <ele>2646</ele>
        <time>2020-04-10T03:25:36Z</time>
      </trkpt>
      <trkpt lat="44.68094" lon="6.98097">
        <ele>2665</ele>
        <time>2020-04-10T03:26:11Z</time>
      </trkpt>
      <trkpt lat="44.68086" lon="6.98173">
        <ele>2648</ele>
        <time>2020-04-10T03:26:55Z</time>
      </trkpt>
      <trkpt lat="44.68121" lon="6.98138">
        <ele>2670</ele>
        <time>2020-04-10T03:27:29Z</time>
      </trkpt>
      <trkpt lat="44.68155" lon="6.98095">
        <ele>2682</ele>
        <time>2020-04-10T03:28:06Z</time>
      </trkpt>
      <trkpt lat="44.6824" lon="6.98153">
        <ele>2702</ele>
        <time>2020-04-10T03:29:21Z</time>
      </trkpt>
      <trkpt lat="44.68405" lon="6.97934">
        <ele>2732</ele>
        <time>2020-04-10T03:32:23Z</time>
      </trkpt>
      <trkpt lat="44.6844" lon="6.97974">
        <ele>2732</ele>
        <time>2020-04-10T03:32:59Z</time>
      </trkpt>
      <trkpt lat="44.68489" lon="6.97963">
        <ele>2721</ele>
        <time>2020-04-10T03:33:39Z</time>
      </trkpt>
      <trkpt lat="44.68526" lon="6.97949">
        <ele>2714</ele>
        <time>2020-04-10T03:34:10Z</time>
      </trkpt>
      <trkpt lat="44.68577" lon="6.97912">
        <ele>2702</ele>
        <time>2020-04-10T03:34:56Z</time>
      </trkpt>
      <trkpt lat="44.68616" lon="6.97869">
        <ele>2689</ele>
        <time>2020-04-10T03:35:35Z</time>
      </trkpt>
      <trkpt lat="44.68663" lon="6.97872">
        <ele>2683</ele>
        <time>2020-04-10T03:36:13Z</time>
      </trkpt>
      <trkpt lat="44.68708" lon="6.9787">
        <ele>2677</ele>
        <time>2020-04-10T03:36:49Z</time>
      </trkpt>
      <trkpt lat="44.68746" lon="6.97858">
        <ele>2670</ele>
        <time>2020-04-10T03:37:20Z</time>
      </trkpt>
      <trkpt lat="44.6878" lon="6.97835">
        <ele>2663</ele>
        <time>2020-04-10T03:37:50Z</time>
      </trkpt>
      <trkpt lat="44.68818" lon="6.97801">
        <ele>2657</ele>
        <time>2020-04-10T03:38:26Z</time>
      </trkpt>
      <trkpt lat="44.68821" lon="6.97756">
        <ele>2650</ele>
        <time>2020-04-10T03:38:52Z</time>
      </trkpt>
      <trkpt lat="44.68805" lon="6.97681">
        <ele>2639</ele>
        <time>2020-04-10T03:39:37Z</time>
      </trkpt>
      <trkpt lat="44.68821" lon="6.97656">
        <ele>2636</ele>
        <time>2020-04-10T03:39:56Z</time>
      </trkpt>
      <trkpt lat="44.68832" lon="6.97616">
        <ele>2633</ele>
        <time>2020-04-10T03:40:20Z</time>
      </trkpt>
      <trkpt lat="44.68892" lon="6.9753">
        <ele>2620</ele>
        <time>2020-04-10T03:41:29Z</time>
      </trkpt>
      <trkpt lat="44.68905" lon="6.97395">
        <ele>2605</ele>
        <time>2020-04-10T03:42:46Z</time>
      </trkpt>
      <trkpt lat="44.68771" lon="6.97471">
        <ele>2617</ele>
        <time>2020-04-10T03:44:42Z</time>
      </trkpt>
      <trkpt lat="44.68697" lon="6.97496">
        <ele>2619</ele>
        <time>2020-04-10T03:45:43Z</time>
      </trkpt>
      <trkpt lat="44.68612" lon="6.97518">
        <ele>2625</ele>
        <time>2020-04-10T03:46:52Z</time>
      </trkpt>
      <trkpt lat="44.68571" lon="6.97518">
        <ele>2630</ele>
        <time>2020-04-10T03:47:25Z</time>
      </trkpt>
      <trkpt lat="44.68535" lon="6.97487">
        <ele>2632</ele>
        <time>2020-04-10T03:47:59Z</time>
      </trkpt>
      <trkpt lat="44.68528" lon="6.97466">
        <ele>2630</ele>
        <time>2020-04-10T03:48:12Z</time>
      </trkpt>
      <trkpt lat="44.68507" lon="6.97455">
        <ele>2632</ele>
        <time>2020-04-10T03:48:30Z</time>
      </trkpt>
      <trkpt lat="44.68498" lon="6.97423">
        <ele>2626</ele>
        <time>2020-04-10T03:48:50Z</time>
      </trkpt>
      <trkpt lat="44.6843" lon="6.97332">
        <ele>2630</ele>
        <time>2020-04-10T03:50:05Z</time>
      </trkpt>
      <trkpt lat="44.6839" lon="6.97326">
        <ele>2643</ele>
        <time>2020-04-10T03:50:37Z</time>
      </trkpt>
      <trkpt lat="44.6836" lon="6.97302">
        <ele>2650</ele>
        <time>2020-04-10T03:51:05Z</time>
      </trkpt>
      <trkpt lat="44.68357" lon="6.97273">
        <ele>2645</ele>
        <time>2020-04-10T03:51:21Z</time>
      </trkpt>
      <trkpt lat="44.6834" lon="6.97266">
        <ele>2650</ele>
        <time>2020-04-10T03:51:35Z</time>
      </trkpt>
      <trkpt lat="44.68336" lon="6.97282">
        <ele>2655</ele>
        <time>2020-04-10T03:51:45Z</time>
      </trkpt>
      <trkpt lat="44.68306" lon="6.97299">
        <ele>2674</ele>
        <time>2020-04-10T03:52:11Z</time>
      </trkpt>
      <trkpt lat="44.68292" lon="6.97261">
        <ele>2675</ele>
        <time>2020-04-10T03:52:35Z</time>
      </trkpt>
      <trkpt lat="44.68198" lon="6.97185">
        <ele>2708</ele>
        <time>2020-04-10T03:54:02Z</time>
      </trkpt>
      <trkpt lat="44.68198" lon="6.97158">
        <ele>2703</ele>
        <time>2020-04-10T03:54:18Z</time>
      </trkpt>
      <trkpt lat="44.68183" lon="6.97149">
        <ele>2710</ele>
        <time>2020-04-10T03:54:31Z</time>
      </trkpt>
      <trkpt lat="44.68175" lon="6.97081">
        <ele>2706</ele>
        <time>2020-04-10T03:55:10Z</time>
      </trkpt>
      <trkpt lat="44.68161" lon="6.97058">
        <ele>2714</ele>
        <time>2020-04-10T03:55:27Z</time>
      </trkpt>
      <trkpt lat="44.68148" lon="6.97049">
        <ele>2722</ele>
        <time>2020-04-10T03:55:39Z</time>
      </trkpt>
      <trkpt lat="44.68147" lon="6.97027">
        <ele>2722</ele>
        <time>2020-04-10T03:55:51Z</time>
      </trkpt>
      <trkpt lat="44.68138" lon="6.96996">
        <ele>2728</ele>
        <time>2020-04-10T03:56:10Z</time>
      </trkpt>
      <trkpt lat="44.68144" lon="6.9693">
        <ele>2724</ele>
        <time>2020-04-10T03:56:48Z</time>
      </trkpt>
      <trkpt lat="44.68127" lon="6.96858">
        <ele>2733</ele>
        <time>2020-04-10T03:57:31Z</time>
      </trkpt>
      <trkpt lat="44.68131" lon="6.96823">
        <ele>2731</ele>
        <time>2020-04-10T03:57:52Z</time>
      </trkpt>
      <trkpt lat="44.68113" lon="6.96701">
        <ele>2745</ele>
        <time>2020-04-10T03:59:02Z</time>
      </trkpt>
      <trkpt lat="44.68109" lon="6.96647">
        <ele>2750</ele>
        <time>2020-04-10T03:59:33Z</time>
      </trkpt>
      <trkpt lat="44.68095" lon="6.96613">
        <ele>2760</ele>
        <time>2020-04-10T03:59:56Z</time>
      </trkpt>
      <trkpt lat="44.68095" lon="6.96595">
        <ele>2761</ele>
        <time>2020-04-10T04:00:06Z</time>
      </trkpt>
      <trkpt lat="44.6811" lon="6.96487">
        <ele>2769</ele>
        <time>2020-04-10T04:01:09Z</time>
      </trkpt>
      <trkpt lat="44.68099" lon="6.96469">
        <ele>2779</ele>
        <time>2020-04-10T04:01:22Z</time>
      </trkpt>
      <trkpt lat="44.68123" lon="6.96413">
        <ele>2781</ele>
        <time>2020-04-10T04:01:59Z</time>
      </trkpt>
      <trkpt lat="44.68162" lon="6.96238">
        <ele>2812</ele>
        <time>2020-04-10T04:03:44Z</time>
      </trkpt>
      <trkpt lat="44.68137" lon="6.96245">
        <ele>2821</ele>
        <time>2020-04-10T04:04:04Z</time>
      </trkpt>
      <trkpt lat="44.68163" lon="6.96173">
        <ele>2832</ele>
        <time>2020-04-10T04:04:50Z</time>
      </trkpt>
      <trkpt lat="44.68142" lon="6.9617">
        <ele>2840</ele>
        <time>2020-04-10T04:05:07Z</time>
      </trkpt>
      <trkpt lat="44.68144" lon="6.96138">
        <ele>2847</ele>
        <time>2020-04-10T04:05:25Z</time>
      </trkpt>
      <trkpt lat="44.68131" lon="6.961">
        <ele>2860</ele>
        <time>2020-04-10T04:05:49Z</time>
      </trkpt>
      <trkpt lat="44.68143" lon="6.96032">
        <ele>2870</ele>
        <time>2020-04-10T04:06:29Z</time>
      </trkpt>
      <trkpt lat="44.68155" lon="6.95924">
        <ele>2881</ele>
        <time>2020-04-10T04:07:31Z</time>
      </trkpt>
      <trkpt lat="44.68144" lon="6.95899">
        <ele>2882</ele>
        <time>2020-04-10T04:07:48Z</time>
      </trkpt>
      <trkpt lat="44.68131" lon="6.95774">
        <ele>2869</ele>
        <time>2020-04-10T04:09:00Z</time>
      </trkpt>
      <trkpt lat="44.68101" lon="6.95715">
        <ele>2849</ele>
        <time>2020-04-10T04:09:41Z</time>
      </trkpt>
      <trkpt lat="44.68115" lon="6.95454">
        <ele>2812</ele>
        <time>2020-04-10T04:12:10Z</time>
      </trkpt>
      <trkpt lat="44.68102" lon="6.95366">
        <ele>2799</ele>
        <time>2020-04-10T04:13:02Z</time>
      </trkpt>
      <trkpt lat="44.68077" lon="6.95322">
        <ele>2786</ele>
        <time>2020-04-10T04:13:34Z</time>
      </trkpt>
      <trkpt lat="44.68096" lon="6.95207">
        <ele>2770</ele>
        <time>2020-04-10T04:14:41Z</time>
      </trkpt>
      <trkpt lat="44.68065" lon="6.95126">
        <ele>2754</ele>
        <time>2020-04-10T04:15:33Z</time>
      </trkpt>
      <trkpt lat="44.68034" lon="6.95058">
        <ele>2744</ele>
        <time>2020-04-10T04:16:19Z</time>
      </trkpt>
      <trkpt lat="44.68027" lon="6.95003">
        <ele>2734</ele>
        <time>2020-04-10T04:16:51Z</time>
      </trkpt>
      <trkpt lat="44.68023" lon="6.94736">
        <ele>2691</ele>
        <time>2020-04-10T04:19:23Z</time>
      </trkpt>
      <trkpt lat="44.68002" lon="6.94641">
        <ele>2682</ele>
        <time>2020-04-10T04:20:20Z</time>
      </trkpt>
      <trkpt lat="44.6801" lon="6.94621">
        <ele>2682</ele>
        <time>2020-04-10T04:20:33Z</time>
      </trkpt>
      <trkpt lat="44.67979" lon="6.94556">
        <ele>2676</ele>
        <time>2020-04-10T04:21:17Z</time>
      </trkpt>
      <trkpt lat="44.67974" lon="6.94497">
        <ele>2669</ele>
        <time>2020-04-10T04:21:51Z</time>
      </trkpt>
      <trkpt lat="44.67959" lon="6.94494">
        <ele>2667</ele>
        <time>2020-04-10T04:22:03Z</time>
      </trkpt>
      <trkpt lat="44.67944" lon="6.9445">
        <ele>2659</ele>
        <time>2020-04-10T04:22:31Z</time>
      </trkpt>
      <trkpt lat="44.67964" lon="6.94334">
        <ele>2645</ele>
        <time>2020-04-10T04:23:39Z</time>
      </trkpt>
      <trkpt lat="44.68034" lon="6.9418">
        <ele>2621</ele>
        <time>2020-04-10T04:25:23Z</time>
      </trkpt>
      <trkpt lat="44.68013" lon="6.94107">
        <ele>2610</ele>
        <time>2020-04-10T04:26:08Z</time>
      </trkpt>
      <trkpt lat="44.67996" lon="6.94037">
        <ele>2604</ele>
        <time>2020-04-10T04:26:50Z</time>
      </trkpt>
      <trkpt lat="44.67959" lon="6.94002">
        <ele>2600</ele>
        <time>2020-04-10T04:27:26Z</time>
      </trkpt>
      <trkpt lat="44.67877" lon="6.9396">
        <ele>2588</ele>
        <time>2020-04-10T04:28:36Z</time>
      </trkpt>
      <trkpt lat="44.67862" lon="6.9387">
        <ele>2572</ele>
        <time>2020-04-10T04:29:28Z</time>
      </trkpt>
      <trkpt lat="44.67859" lon="6.93749">
        <ele>2559</ele>
        <time>2020-04-10T04:30:37Z</time>
      </trkpt>
      <trkpt lat="44.67831" lon="6.93617">
        <ele>2537</ele>
        <time>2020-04-10T04:31:56Z</time>
      </trkpt>
      <trkpt lat="44.67778" lon="6.93598">
        <ele>2521</ele>
        <time>2020-04-10T04:32:39Z</time>
      </trkpt>
      <trkpt lat="44.67786" lon="6.93568">
        <ele>2520</ele>
        <time>2020-04-10T04:32:58Z</time>
      </trkpt>
      <trkpt lat="44.67775" lon="6.93526">
        <ele>2513</ele>
        <time>2020-04-10T04:33:23Z</time>
      </trkpt>
      <trkpt lat="44.67786" lon="6.93479">
        <ele>2509</ele>
        <time>2020-04-10T04:33:51Z</time>
      </trkpt>
      <trkpt lat="44.67765" lon="6.93424">
        <ele>2502</ele>
        <time>2020-04-10T04:34:27Z</time>
      </trkpt>
      <trkpt lat="44.67728" lon="6.93371">
        <ele>2499</ele>
        <time>2020-04-10T04:35:09Z</time>
      </trkpt>
      <trkpt lat="44.67714" lon="6.93301">
        <ele>2493</ele>
        <time>2020-04-10T04:35:51Z</time>
      </trkpt>
      <trkpt lat="44.6769" lon="6.93283">
        <ele>2488</ele>
        <time>2020-04-10T04:36:12Z</time>
      </trkpt>
      <trkpt lat="44.67649" lon="6.93284">
        <ele>2483</ele>
        <time>2020-04-10T04:36:45Z</time>
      </trkpt>
      <trkpt lat="44.67683" lon="6.93186">
        <ele>2466</ele>
        <time>2020-04-10T04:37:47Z</time>
      </trkpt>
      <trkpt lat="44.67705" lon="6.93111">
        <ele>2457</ele>
        <time>2020-04-10T04:38:33Z</time>
      </trkpt>
      <trkpt lat="44.67694" lon="6.93063">
        <ele>2450</ele>
        <time>2020-04-10T04:39:02Z</time>
      </trkpt>
      <trkpt lat="44.67694" lon="6.93045">
        <ele>2450</ele>
        <time>2020-04-10T04:39:12Z</time>
      </trkpt>
      <trkpt lat="44.6768" lon="6.9302">
        <ele>2446</ele>
        <time>2020-04-10T04:39:30Z</time>
      </trkpt>
      <trkpt lat="44.67658" lon="6.9296">
        <ele>2438</ele>
        <time>2020-04-10T04:40:09Z</time>
      </trkpt>
      <trkpt lat="44.67653" lon="6.92923">
        <ele>2437</ele>
        <time>2020-04-10T04:40:30Z</time>
      </trkpt>
      <trkpt lat="44.67617" lon="6.9284">
        <ele>2424</ele>
        <time>2020-04-10T04:41:26Z</time>
      </trkpt>
      <trkpt lat="44.6759" lon="6.92756">
        <ele>2410</ele>
        <time>2020-04-10T04:42:18Z</time>
      </trkpt>
      <trkpt lat="44.67575" lon="6.92632">
        <ele>2394</ele>
        <time>2020-04-10T04:43:30Z</time>
      </trkpt>
      <trkpt lat="44.67586" lon="6.92556">
        <ele>2389</ele>
        <time>2020-04-10T04:44:14Z</time>
      </trkpt>
      <trkpt lat="44.67591" lon="6.92498">
        <ele>2380</ele>
        <time>2020-04-10T04:44:47Z</time>
      </trkpt>
      <trkpt lat="44.67602" lon="6.92474">
        <ele>2380</ele>
        <time>2020-04-10T04:45:04Z</time>
      </trkpt>
      <trkpt lat="44.67604" lon="6.92418">
        <ele>2374</ele>
        <time>2020-04-10T04:45:35Z</time>
      </trkpt>
      <trkpt lat="44.67571" lon="6.92409">
        <ele>2365</ele>
        <time>2020-04-10T04:46:02Z</time>
      </trkpt>
      <trkpt lat="44.67557" lon="6.92363">
        <ele>2360</ele>
        <time>2020-04-10T04:46:31Z</time>
      </trkpt>
      <trkpt lat="44.6756" lon="6.92312">
        <ele>2357</ele>
        <time>2020-04-10T04:47:00Z</time>
      </trkpt>
      <trkpt lat="44.67528" lon="6.92304">
        <ele>2352</ele>
        <time>2020-04-10T04:47:26Z</time>
      </trkpt>
      <trkpt lat="44.67532" lon="6.92263">
        <ele>2349</ele>
        <time>2020-04-10T04:47:50Z</time>
      </trkpt>
      <trkpt lat="44.67526" lon="6.92231">
        <ele>2345</ele>
        <time>2020-04-10T04:48:08Z</time>
      </trkpt>
      <trkpt lat="44.67545" lon="6.92168">
        <ele>2341</ele>
        <time>2020-04-10T04:48:47Z</time>
      </trkpt>
      <trkpt lat="44.67575" lon="6.92105">
        <ele>2332</ele>
        <time>2020-04-10T04:49:31Z</time>
      </trkpt>
      <trkpt lat="44.67575" lon="6.92063">
        <ele>2323</ele>
        <time>2020-04-10T04:49:54Z</time>
      </trkpt>
      <trkpt lat="44.67641" lon="6.92045">
        <ele>2328</ele>
        <time>2020-04-10T04:50:48Z</time>
      </trkpt>
      <trkpt lat="44.67639" lon="6.92007">
        <ele>2318</ele>
        <time>2020-04-10T04:51:10Z</time>
      </trkpt>
      <trkpt lat="44.6761" lon="6.92013">
        <ele>2316</ele>
        <time>2020-04-10T04:51:33Z</time>
      </trkpt>
      <trkpt lat="44.67603" lon="6.91981">
        <ele>2306</ele>
        <time>2020-04-10T04:51:52Z</time>
      </trkpt>
      <trkpt lat="44.67671" lon="6.91961">
        <ele>2311</ele>
        <time>2020-04-10T04:52:48Z</time>
      </trkpt>
      <trkpt lat="44.67721" lon="6.91791">
        <ele>2287</ele>
        <time>2020-04-10T04:54:33Z</time>
      </trkpt>
      <trkpt lat="44.67759" lon="6.917">
        <ele>2278</ele>
        <time>2020-04-10T04:55:33Z</time>
      </trkpt>
      <trkpt lat="44.67792" lon="6.91659">
        <ele>2283</ele>
        <time>2020-04-10T04:56:08Z</time>
      </trkpt>
      <trkpt lat="44.6779" lon="6.91596">
        <ele>2268</ele>
        <time>2020-04-10T04:56:44Z</time>
      </trkpt>
      <trkpt lat="44.67801" lon="6.91524">
        <ele>2260</ele>
        <time>2020-04-10T04:57:26Z</time>
      </trkpt>
      <trkpt lat="44.67835" lon="6.91485">
        <ele>2270</ele>
        <time>2020-04-10T04:58:01Z</time>
      </trkpt>
      <trkpt lat="44.67818" lon="6.91403">
        <ele>2255</ele>
        <time>2020-04-10T04:58:50Z</time>
      </trkpt>
      <trkpt lat="44.67847" lon="6.91354">
        <ele>2265</ele>
        <time>2020-04-10T04:59:26Z</time>
      </trkpt>
      <trkpt lat="44.67851" lon="6.91265">
        <ele>2263</ele>
        <time>2020-04-10T05:00:17Z</time>
      </trkpt>
      <trkpt lat="44.67845" lon="6.91145">
        <ele>2262</ele>
        <time>2020-04-10T05:01:25Z</time>
      </trkpt>
      <trkpt lat="44.67828" lon="6.91109">
        <ele>2258</ele>
        <time>2020-04-10T05:01:50Z</time>
      </trkpt>
      <trkpt lat="44.67768" lon="6.91031">
        <ele>2240</ele>
        <time>2020-04-10T05:02:55Z</time>
      </trkpt>
      <trkpt lat="44.67706" lon="6.90934">
        <ele>2234</ele>
        <time>2020-04-10T05:04:10Z</time>
      </trkpt>
      <trkpt lat="44.677" lon="6.90904">
        <ele>2236</ele>
        <time>2020-04-10T05:04:27Z</time>
      </trkpt>
      <trkpt lat="44.67701" lon="6.9087">
        <ele>2239</ele>
        <time>2020-04-10T05:04:47Z</time>
      </trkpt>
      <trkpt lat="44.67695" lon="6.90817">
        <ele>2239</ele>
        <time>2020-04-10T05:05:17Z</time>
      </trkpt>
      <trkpt lat="44.6772" lon="6.90713">
        <ele>2244</ele>
        <time>2020-04-10T05:06:20Z</time>
      </trkpt>
      <trkpt lat="44.67705" lon="6.90269">
        <ele>2228</ele>
        <time>2020-04-10T05:10:33Z</time>
      </trkpt>
      <trkpt lat="44.67735" lon="6.90098">
        <ele>2229</ele>
        <time>2020-04-10T05:12:13Z</time>
      </trkpt>
      <trkpt lat="44.67723" lon="6.90059">
        <ele>2223</ele>
        <time>2020-04-10T05:12:37Z</time>
      </trkpt>
      <trkpt lat="44.67757" lon="6.89905">
        <ele>2224</ele>
        <time>2020-04-10T05:14:09Z</time>
      </trkpt>
      <trkpt lat="44.67841" lon="6.89804">
        <ele>2237</ele>
        <time>2020-04-10T05:15:38Z</time>
      </trkpt>
      <trkpt lat="44.67844" lon="6.89764">
        <ele>2233</ele>
        <time>2020-04-10T05:16:01Z</time>
      </trkpt>
      <trkpt lat="44.67883" lon="6.89675">
        <ele>2239</ele>
        <time>2020-04-10T05:17:00Z</time>
      </trkpt>
      <trkpt lat="44.67943" lon="6.89429">
        <ele>2219</ele>
        <time>2020-04-10T05:19:28Z</time>
      </trkpt>
      <trkpt lat="44.67986" lon="6.89367">
        <ele>2225</ele>
        <time>2020-04-10T05:20:17Z</time>
      </trkpt>
      <trkpt lat="44.68053" lon="6.89247">
        <ele>2213</ele>
        <time>2020-04-10T05:21:44Z</time>
      </trkpt>
      <trkpt lat="44.68081" lon="6.89171">
        <ele>2201</ele>
        <time>2020-04-10T05:22:33Z</time>
      </trkpt>
      <trkpt lat="44.68184" lon="6.89054">
        <ele>2193</ele>
        <time>2020-04-10T05:24:19Z</time>
      </trkpt>
      <trkpt lat="44.68215" lon="6.89044">
        <ele>2196</ele>
        <time>2020-04-10T05:24:45Z</time>
      </trkpt>
      <trkpt lat="44.68234" lon="6.88908">
        <ele>2176</ele>
        <time>2020-04-10T05:26:03Z</time>
      </trkpt>
      <trkpt lat="44.68269" lon="6.88799">
        <ele>2166</ele>
        <time>2020-04-10T05:27:12Z</time>
      </trkpt>
      <trkpt lat="44.68397" lon="6.88698">
        <ele>2164</ele>
        <time>2020-04-10T05:29:09Z</time>
      </trkpt>
      <trkpt lat="44.6846" lon="6.88625">
        <ele>2153</ele>
        <time>2020-04-10T05:30:14Z</time>
      </trkpt>
      <trkpt lat="44.68556" lon="6.88543">
        <ele>2142</ele>
        <time>2020-04-10T05:31:44Z</time>
      </trkpt>
      <trkpt lat="44.68647" lon="6.88525">
        <ele>2142</ele>
        <time>2020-04-10T05:32:58Z</time>
      </trkpt>
      <trkpt lat="44.6875" lon="6.88431">
        <ele>2126</ele>
        <time>2020-04-10T05:34:36Z</time>
      </trkpt>
      <trkpt lat="44.68798" lon="6.88446">
        <ele>2129</ele>
        <time>2020-04-10T05:35:16Z</time>
      </trkpt>
      <trkpt lat="44.68907" lon="6.88396">
        <ele>2120</ele>
        <time>2020-04-10T05:36:47Z</time>
      </trkpt>
      <trkpt lat="44.68956" lon="6.88336">
        <ele>2114</ele>
        <time>2020-04-10T05:37:39Z</time>
      </trkpt>
      <trkpt lat="44.68994" lon="6.88339">
        <ele>2116</ele>
        <time>2020-04-10T05:38:10Z</time>
      </trkpt>
      <trkpt lat="44.69063" lon="6.88229">
        <ele>2106</ele>
        <time>2020-04-10T05:39:33Z</time>
      </trkpt>
      <trkpt lat="44.69072" lon="6.88116">
        <ele>2092</ele>
        <time>2020-04-10T05:40:38Z</time>
      </trkpt>
      <trkpt lat="44.69115" lon="6.87992">
        <ele>2080</ele>
        <time>2020-04-10T05:41:57Z</time>
      </trkpt>
      <trkpt lat="44.69139" lon="6.87966">
        <ele>2077</ele>
        <time>2020-04-10T05:42:21Z</time>
      </trkpt>
      <trkpt lat="44.69163" lon="6.87922">
        <ele>2070</ele>
        <time>2020-04-10T05:42:52Z</time>
      </trkpt>
      <trkpt lat="44.69197" lon="6.87901">
        <ele>2071</ele>
        <time>2020-04-10T05:43:22Z</time>
      </trkpt>
      <trkpt lat="44.69239" lon="6.87819">
        <ele>2055</ele>
        <time>2020-04-10T05:44:20Z</time>
      </trkpt>
      <trkpt lat="44.69372" lon="6.87801">
        <ele>2062</ele>
        <time>2020-04-10T05:46:07Z</time>
      </trkpt>
      <trkpt lat="44.69371" lon="6.87642">
        <ele>2031</ele>
        <time>2020-04-10T05:47:37Z</time>
      </trkpt>
      <trkpt lat="44.69419" lon="6.87544">
        <ele>2022</ele>
        <time>2020-04-10T05:48:45Z</time>
      </trkpt>
      <trkpt lat="44.69484" lon="6.87473">
        <ele>2012</ele>
        <time>2020-04-10T05:49:51Z</time>
      </trkpt>
      <trkpt lat="44.69528" lon="6.87482">
        <ele>2018</ele>
        <time>2020-04-10T05:50:26Z</time>
      </trkpt>
      <trkpt lat="44.69564" lon="6.87493">
        <ele>2022</ele>
        <time>2020-04-10T05:50:56Z</time>
      </trkpt>
      <trkpt lat="44.69601" lon="6.87412">
        <ele>2010</ele>
        <time>2020-04-10T05:51:51Z</time>
      </trkpt>
      <trkpt lat="44.69676" lon="6.8732">
        <ele>2009</ele>
        <time>2020-04-10T05:53:10Z</time>
      </trkpt>
      <trkpt lat="44.69799" lon="6.87183">
        <ele>2016</ele>
        <time>2020-04-10T05:55:16Z</time>
      </trkpt>
      <trkpt lat="44.69856" lon="6.87127">
        <ele>2021</ele>
        <time>2020-04-10T05:56:12Z</time>
      </trkpt>
      <trkpt lat="44.69935" lon="6.86992">
        <ele>2028</ele>
        <time>2020-04-10T05:57:51Z</time>
      </trkpt>
      <trkpt lat="44.69953" lon="6.86916">
        <ele>2027</ele>
        <time>2020-04-10T05:58:37Z</time>
      </trkpt>
      <trkpt lat="44.70054" lon="6.86793">
        <ele>2043</ele>
        <time>2020-04-10T06:00:24Z</time>
      </trkpt>
      <trkpt lat="44.70081" lon="6.86719">
        <ele>2042</ele>
        <time>2020-04-10T06:01:11Z</time>
      </trkpt>
      <trkpt lat="44.70182" lon="6.86608">
        <ele>2050</ele>
        <time>2020-04-10T06:02:54Z</time>
      </trkpt>
      <trkpt lat="44.70219" lon="6.86517">
        <ele>2040</ele>
        <time>2020-04-10T06:03:53Z</time>
      </trkpt>
      <trkpt lat="44.70268" lon="6.86379">
        <ele>2032</ele>
        <time>2020-04-10T06:05:21Z</time>
      </trkpt>
      <trkpt lat="44.70327" lon="6.86314">
        <ele>2035</ele>
        <time>2020-04-10T06:06:21Z</time>
      </trkpt>
      <trkpt lat="44.70438" lon="6.86089">
        <ele>2022</ele>
        <time>2020-04-10T06:08:57Z</time>
      </trkpt>
      <trkpt lat="44.70593" lon="6.85898">
        <ele>2003</ele>
        <time>2020-04-10T06:11:42Z</time>
      </trkpt>
      <trkpt lat="44.70665" lon="6.85872">
        <ele>2003</ele>
        <time>2020-04-10T06:12:41Z</time>
      </trkpt>
      <trkpt lat="44.70806" lon="6.85777">
        <ele>1995</ele>
        <time>2020-04-10T06:14:47Z</time>
      </trkpt>
      <trkpt lat="44.70895" lon="6.85624">
        <ele>1973</ele>
        <time>2020-04-10T06:16:39Z</time>
      </trkpt>
      <trkpt lat="44.70911" lon="6.85573">
        <ele>1965</ele>
        <time>2020-04-10T06:17:11Z</time>
      </trkpt>
      <trkpt lat="44.70972" lon="6.85499">
        <ele>1952</ele>
        <time>2020-04-10T06:18:15Z</time>
      </trkpt>
      <trkpt lat="44.71081" lon="6.85399">
        <ele>1928</ele>
        <time>2020-04-10T06:20:00Z</time>
      </trkpt>
      <trkpt lat="44.71143" lon="6.85317">
        <ele>1908</ele>
        <time>2020-04-10T06:21:08Z</time>
      </trkpt>
      <trkpt lat="44.7122" lon="6.85279">
        <ele>1893</ele>
        <time>2020-04-10T06:22:13Z</time>
      </trkpt>
      <trkpt lat="44.71265" lon="6.85267">
        <ele>1884</ele>
        <time>2020-04-10T06:22:50Z</time>
      </trkpt>
      <trkpt lat="44.71308" lon="6.85288">
        <ele>1887</ele>
        <time>2020-04-10T06:23:26Z</time>
      </trkpt>
      <trkpt lat="44.7138" lon="6.85252">
        <ele>1864</ele>
        <time>2020-04-10T06:24:27Z</time>
      </trkpt>
      <trkpt lat="44.71427" lon="6.85255">
        <ele>1862</ele>
        <time>2020-04-10T06:25:05Z</time>
      </trkpt>
      <trkpt lat="44.71442" lon="6.85228">
        <ele>1852</ele>
        <time>2020-04-10T06:25:24Z</time>
      </trkpt>
      <trkpt lat="44.71513" lon="6.85185">
        <ele>1837</ele>
        <time>2020-04-10T06:26:26Z</time>
      </trkpt>
      <trkpt lat="44.71413" lon="6.85162">
        <ele>1830</ele>
        <time>2020-04-10T06:27:48Z</time>
      </trkpt>
      <trkpt lat="44.71387" lon="6.85085">
        <ele>1812</ele>
        <time>2020-04-10T06:28:36Z</time>
      </trkpt>
      <trkpt lat="44.713" lon="6.851">
        <ele>1817</ele>
        <time>2020-04-10T06:29:46Z</time>
      </trkpt>
      <trkpt lat="44.71234" lon="6.85033">
        <ele>1799</ele>
        <time>2020-04-10T06:30:51Z</time>
      </trkpt>
      <trkpt lat="44.71317" lon="6.84991">
        <ele>1790</ele>
        <time>2020-04-10T06:32:02Z</time>
      </trkpt>
      <trkpt lat="44.71424" lon="6.84956">
        <ele>1780</ele>
        <time>2020-04-10T06:33:30Z</time>
      </trkpt>
      <trkpt lat="44.71458" lon="6.84967">
        <ele>1785</ele>
        <time>2020-04-10T06:33:58Z</time>
      </trkpt>
      <trkpt lat="44.71566" lon="6.84939">
        <ele>1782</ele>
        <time>2020-04-10T06:35:26Z</time>
      </trkpt>
      <trkpt lat="44.71658" lon="6.84895">
        <ele>1774</ele>
        <time>2020-04-10T06:36:44Z</time>
      </trkpt>
      <trkpt lat="44.71701" lon="6.84882">
        <ele>1772</ele>
        <time>2020-04-10T06:37:19Z</time>
      </trkpt>
      <trkpt lat="44.71815" lon="6.84883">
        <ele>1771</ele>
        <time>2020-04-10T06:38:50Z</time>
      </trkpt>
      <trkpt lat="44.71798" lon="6.84876">
        <ele>1769</ele>
        <time>2020-04-10T06:39:04Z</time>
      </trkpt>
      <trkpt lat="44.71825" lon="6.84857">
        <ele>1762</ele>
        <time>2020-04-10T06:39:28Z</time>
      </trkpt>
      <trkpt lat="44.71892" lon="6.84868">
        <ele>1763</ele>
        <time>2020-04-10T06:40:22Z</time>
      </trkpt>
      <trkpt lat="44.7203" lon="6.84833">
        <ele>1751</ele>
        <time>2020-04-10T06:42:15Z</time>
      </trkpt>
      <trkpt lat="44.72049" lon="6.84791">
        <ele>1744</ele>
        <time>2020-04-10T06:42:43Z</time>
      </trkpt>
      <trkpt lat="44.72141" lon="6.8476">
        <ele>1742</ele>
        <time>2020-04-10T06:43:59Z</time>
      </trkpt>
      <trkpt lat="44.72155" lon="6.84731">
        <ele>1739</ele>
        <time>2020-04-10T06:44:19Z</time>
      </trkpt>
      <trkpt lat="44.72251" lon="6.8473">
        <ele>1740</ele>
        <time>2020-04-10T06:45:36Z</time>
      </trkpt>
      <trkpt lat="44.72238" lon="6.84771">
        <ele>1743</ele>
        <time>2020-04-10T06:46:01Z</time>
      </trkpt>
      <trkpt lat="44.72201" lon="6.84828">
        <ele>1750</ele>
        <time>2020-04-10T06:46:45Z</time>
      </trkpt>
      <trkpt lat="44.72119" lon="6.84915">
        <ele>1764</ele>
        <time>2020-04-10T06:48:07Z</time>
      </trkpt>
      <trkpt lat="44.72008" lon="6.84994">
        <ele>1782</ele>
        <time>2020-04-10T06:49:47Z</time>
      </trkpt>
      <trkpt lat="44.71951" lon="6.84995">
        <ele>1788</ele>
        <time>2020-04-10T06:50:33Z</time>
      </trkpt>
      <trkpt lat="44.71861" lon="6.85083">
        <ele>1812</ele>
        <time>2020-04-10T06:52:00Z</time>
      </trkpt>
      <trkpt lat="44.7173" lon="6.85118">
        <ele>1821</ele>
        <time>2020-04-10T06:53:47Z</time>
      </trkpt>
      <trkpt lat="44.71696" lon="6.85161">
        <ele>1831</ele>
        <time>2020-04-10T06:54:24Z</time>
      </trkpt>
      <trkpt lat="44.71641" lon="6.85161">
        <ele>1831</ele>
        <time>2020-04-10T06:55:08Z</time>
      </trkpt>
      <trkpt lat="44.71677" lon="6.85228">
        <ele>1844</ele>
        <time>2020-04-10T06:55:55Z</time>
      </trkpt>
      <trkpt lat="44.7175" lon="6.85265">
        <ele>1847</ele>
        <time>2020-04-10T06:56:58Z</time>
      </trkpt>
      <trkpt lat="44.71821" lon="6.85314">
        <ele>1852</ele>
        <time>2020-04-10T06:58:01Z</time>
      </trkpt>
      <trkpt lat="44.71884" lon="6.8539">
        <ele>1863</ele>
        <time>2020-04-10T06:59:07Z</time>
      </trkpt>
      <trkpt lat="44.71922" lon="6.85464">
        <ele>1874</ele>
        <time>2020-04-10T06:59:59Z</time>
      </trkpt>
      <trkpt lat="44.7198" lon="6.85564">
        <ele>1888</ele>
        <time>2020-04-10T07:01:13Z</time>
      </trkpt>
      <trkpt lat="44.72033" lon="6.85569">
        <ele>1882</ele>
        <time>2020-04-10T07:01:55Z</time>
      </trkpt>
      <trkpt lat="44.72186" lon="6.8573">
        <ele>1880</ele>
        <time>2020-04-10T07:04:28Z</time>
      </trkpt>
      <trkpt lat="44.72234" lon="6.85743">
        <ele>1875</ele>
        <time>2020-04-10T07:05:07Z</time>
      </trkpt>
      <trkpt lat="44.7227" lon="6.85888">
        <ele>1896</ele>
        <time>2020-04-10T07:06:35Z</time>
      </trkpt>
      <trkpt lat="44.72322" lon="6.85951">
        <ele>1890</ele>
        <time>2020-04-10T07:07:30Z</time>
      </trkpt>
      <trkpt lat="44.72344" lon="6.86044">
        <ele>1896</ele>
        <time>2020-04-10T07:08:25Z</time>
      </trkpt>
      <trkpt lat="44.72386" lon="6.86086">
        <ele>1892</ele>
        <time>2020-04-10T07:09:07Z</time>
      </trkpt>
      <trkpt lat="44.72409" lon="6.86132">
        <ele>1890</ele>
        <time>2020-04-10T07:09:39Z</time>
      </trkpt>
      <trkpt lat="44.72404" lon="6.86174">
        <ele>1893</ele>
        <time>2020-04-10T07:10:03Z</time>
      </trkpt>
      <trkpt lat="44.72376" lon="6.86211">
        <ele>1897</ele>
        <time>2020-04-10T07:10:34Z</time>
      </trkpt>
      <trkpt lat="44.72337" lon="6.864">
        <ele>1905</ele>
        <time>2020-04-10T07:12:26Z</time>
      </trkpt>
      <trkpt lat="44.72342" lon="6.86463">
        <ele>1911</ele>
        <time>2020-04-10T07:13:02Z</time>
      </trkpt>
      <trkpt lat="44.72381" lon="6.8659">
        <ele>1908</ele>
        <time>2020-04-10T07:14:20Z</time>
      </trkpt>
      <trkpt lat="44.72385" lon="6.86713">
        <ele>1908</ele>
        <time>2020-04-10T07:15:30Z</time>
      </trkpt>
      <trkpt lat="44.72397" lon="6.86742">
        <ele>1906</ele>
        <time>2020-04-10T07:15:50Z</time>
      </trkpt>
      <trkpt lat="44.72369" lon="6.8679">
        <ele>1913</ele>
        <time>2020-04-10T07:16:25Z</time>
      </trkpt>
      <trkpt lat="44.72369" lon="6.86912">
        <ele>1914</ele>
        <time>2020-04-10T07:17:34Z</time>
      </trkpt>
      <trkpt lat="44.7233" lon="6.87054">
        <ele>1917</ele>
        <time>2020-04-10T07:19:01Z</time>
      </trkpt>
      <trkpt lat="44.72327" lon="6.87095">
        <ele>1919</ele>
        <time>2020-04-10T07:19:24Z</time>
      </trkpt>
      <trkpt lat="44.72308" lon="6.87173">
        <ele>1927</ele>
        <time>2020-04-10T07:20:11Z</time>
      </trkpt>
      <trkpt lat="44.72314" lon="6.87238">
        <ele>1926</ele>
        <time>2020-04-10T07:20:49Z</time>
      </trkpt>
      <trkpt lat="44.72282" lon="6.87309">
        <ele>1937</ele>
        <time>2020-04-10T07:21:36Z</time>
      </trkpt>
      <trkpt lat="44.72268" lon="6.87408">
        <ele>1940</ele>
        <time>2020-04-10T07:22:34Z</time>
      </trkpt>
      <trkpt lat="44.72272" lon="6.87473">
        <ele>1941</ele>
        <time>2020-04-10T07:23:11Z</time>
      </trkpt>
      <trkpt lat="44.72314" lon="6.87599">
        <ele>1938</ele>
        <time>2020-04-10T07:24:30Z</time>
      </trkpt>
      <trkpt lat="44.72307" lon="6.87686">
        <ele>1942</ele>
        <time>2020-04-10T07:25:20Z</time>
      </trkpt>
      <trkpt lat="44.72308" lon="6.87708">
        <ele>1942</ele>
        <time>2020-04-10T07:25:32Z</time>
      </trkpt>
      <trkpt lat="44.7228" lon="6.87822">
        <ele>1947</ele>
        <time>2020-04-10T07:26:41Z</time>
      </trkpt>
      <trkpt lat="44.72225" lon="6.87977">
        <ele>1956</ele>
        <time>2020-04-10T07:28:20Z</time>
      </trkpt>
      <trkpt lat="44.72217" lon="6.88056">
        <ele>1959</ele>
        <time>2020-04-10T07:29:05Z</time>
      </trkpt>
      <trkpt lat="44.72201" lon="6.881">
        <ele>1963</ele>
        <time>2020-04-10T07:29:33Z</time>
      </trkpt>
      <trkpt lat="44.72179" lon="6.88236">
        <ele>1969</ele>
        <time>2020-04-10T07:30:53Z</time>
      </trkpt>
      <trkpt lat="44.7215" lon="6.88236">
        <ele>1977</ele>
        <time>2020-04-10T07:31:16Z</time>
      </trkpt>
      <trkpt lat="44.72171" lon="6.88323">
        <ele>1974</ele>
        <time>2020-04-10T07:32:08Z</time>
      </trkpt>
      <trkpt lat="44.72132" lon="6.88462">
        <ele>1986</ele>
        <time>2020-04-10T07:33:33Z</time>
      </trkpt>
      <trkpt lat="44.72118" lon="6.88582">
        <ele>1990</ele>
        <time>2020-04-10T07:34:42Z</time>
      </trkpt>
      <trkpt lat="44.72045" lon="6.88734">
        <ele>2001</ele>
        <time>2020-04-10T07:36:27Z</time>
      </trkpt>
      <trkpt lat="44.72033" lon="6.88825">
        <ele>2003</ele>
        <time>2020-04-10T07:37:19Z</time>
      </trkpt>
      <trkpt lat="44.72022" lon="6.88965">
        <ele>2003</ele>
        <time>2020-04-10T07:38:39Z</time>
      </trkpt>
      <trkpt lat="44.71991" lon="6.89025">
        <ele>2005</ele>
        <time>2020-04-10T07:39:22Z</time>
      </trkpt>
      <trkpt lat="44.71978" lon="6.8911">
        <ele>2007</ele>
        <time>2020-04-10T07:40:11Z</time>
      </trkpt>
      <trkpt lat="44.71966" lon="6.89168">
        <ele>2009</ele>
        <time>2020-04-10T07:40:45Z</time>
      </trkpt>
      <trkpt lat="44.71968" lon="6.89397">
        <ele>2014</ele>
        <time>2020-04-10T07:42:56Z</time>
      </trkpt>
      <trkpt lat="44.71961" lon="6.89482">
        <ele>2013</ele>
        <time>2020-04-10T07:43:44Z</time>
      </trkpt>
      <trkpt lat="44.71939" lon="6.89544">
        <ele>2010</ele>
        <time>2020-04-10T07:44:24Z</time>
      </trkpt>
      <trkpt lat="44.71879" lon="6.89632">
        <ele>2020</ele>
        <time>2020-04-10T07:45:33Z</time>
      </trkpt>
      <trkpt lat="44.71851" lon="6.89763">
        <ele>2025</ele>
        <time>2020-04-10T07:46:51Z</time>
      </trkpt>
      <trkpt lat="44.71868" lon="6.89816">
        <ele>2018</ele>
        <time>2020-04-10T07:47:24Z</time>
      </trkpt>
      <trkpt lat="44.71845" lon="6.89946">
        <ele>2020</ele>
        <time>2020-04-10T07:48:40Z</time>
      </trkpt>
      <trkpt lat="44.71874" lon="6.90051">
        <ele>2021</ele>
        <time>2020-04-10T07:49:44Z</time>
      </trkpt>
      <trkpt lat="44.71881" lon="6.90144">
        <ele>2024</ele>
        <time>2020-04-10T07:50:38Z</time>
      </trkpt>
      <trkpt lat="44.71875" lon="6.90198">
        <ele>2027</ele>
        <time>2020-04-10T07:51:09Z</time>
      </trkpt>
      <trkpt lat="44.71887" lon="6.90364">
        <ele>2026</ele>
        <time>2020-04-10T07:52:44Z</time>
      </trkpt>
      <trkpt lat="44.71806" lon="6.90489">
        <ele>2032</ele>
        <time>2020-04-10T07:54:20Z</time>
      </trkpt>
      <trkpt lat="44.71752" lon="6.9059">
        <ele>2033</ele>
        <time>2020-04-10T07:55:32Z</time>
      </trkpt>
      <trkpt lat="44.71717" lon="6.90606">
        <ele>2042</ele>
        <time>2020-04-10T07:56:01Z</time>
      </trkpt>
      <trkpt lat="44.71673" lon="6.90691">
        <ele>2051</ele>
        <time>2020-04-10T07:57:01Z</time>
      </trkpt>
      <trkpt lat="44.71647" lon="6.90784">
        <ele>2058</ele>
        <time>2020-04-10T07:57:58Z</time>
      </trkpt>
      <trkpt lat="44.71618" lon="6.90825">
        <ele>2065</ele>
        <time>2020-04-10T07:58:31Z</time>
      </trkpt>
      <trkpt lat="44.71588" lon="6.9093">
        <ele>2071</ele>
        <time>2020-04-10T07:59:35Z</time>
      </trkpt>
      <trkpt lat="44.71483" lon="6.91218">
        <ele>2095</ele>
        <time>2020-04-10T08:02:39Z</time>
      </trkpt>
      <trkpt lat="44.71455" lon="6.9131">
        <ele>2103</ele>
        <time>2020-04-10T08:03:36Z</time>
      </trkpt>
      <trkpt lat="44.71384" lon="6.91436">
        <ele>2111</ele>
        <time>2020-04-10T08:05:08Z</time>
      </trkpt>
      <trkpt lat="44.71366" lon="6.91508">
        <ele>2106</ele>
        <time>2020-04-10T08:05:51Z</time>
      </trkpt>
      <trkpt lat="44.71248" lon="6.917">
        <ele>2095</ele>
        <time>2020-04-10T08:08:16Z</time>
      </trkpt>
      <trkpt lat="44.71203" lon="6.91764">
        <ele>2093</ele>
        <time>2020-04-10T08:09:07Z</time>
      </trkpt>
      <trkpt lat="44.7114" lon="6.91837">
        <ele>2098</ele>
        <time>2020-04-10T08:10:12Z</time>
      </trkpt>
      <trkpt lat="44.71059" lon="6.92045">
        <ele>2100</ele>
        <time>2020-04-10T08:12:27Z</time>
      </trkpt>
      <trkpt lat="44.7107" lon="6.92096">
        <ele>2099</ele>
        <time>2020-04-10T08:12:58Z</time>
      </trkpt>
      <trkpt lat="44.71115" lon="6.92157">
        <ele>2106</ele>
        <time>2020-04-10T08:13:48Z</time>
      </trkpt>
      <trkpt lat="44.71029" lon="6.92269">
        <ele>2118</ele>
        <time>2020-04-10T08:15:21Z</time>
      </trkpt>
      <trkpt lat="44.70933" lon="6.92304">
        <ele>2127</ele>
        <time>2020-04-10T08:16:41Z</time>
      </trkpt>
      <trkpt lat="44.70862" lon="6.92379">
        <ele>2138</ele>
        <time>2020-04-10T08:17:52Z</time>
      </trkpt>
      <trkpt lat="44.70844" lon="6.92424">
        <ele>2142</ele>
        <time>2020-04-10T08:18:21Z</time>
      </trkpt>
      <trkpt lat="44.708" lon="6.92495">
        <ele>2154</ele>
        <time>2020-04-10T08:19:15Z</time>
      </trkpt>
      <trkpt lat="44.70723" lon="6.92677">
        <ele>2165</ele>
        <time>2020-04-10T08:21:15Z</time>
      </trkpt>
      <trkpt lat="44.70698" lon="6.92794">
        <ele>2170</ele>
        <time>2020-04-10T08:22:25Z</time>
      </trkpt>
      <trkpt lat="44.70701" lon="6.92866">
        <ele>2179</ele>
        <time>2020-04-10T08:23:06Z</time>
      </trkpt>
      <trkpt lat="44.70855" lon="6.92617">
        <ele>2193</ele>
        <time>2020-04-10T08:26:14Z</time>
      </trkpt>
      <trkpt lat="44.70901" lon="6.92597">
        <ele>2198</ele>
        <time>2020-04-10T08:26:52Z</time>
      </trkpt>
      <trkpt lat="44.7091" lon="6.92627">
        <ele>2205</ele>
        <time>2020-04-10T08:27:11Z</time>
      </trkpt>
      <trkpt lat="44.7088" lon="6.9265">
        <ele>2204</ele>
        <time>2020-04-10T08:27:38Z</time>
      </trkpt>
      <trkpt lat="44.70874" lon="6.92764">
        <ele>2220</ele>
        <time>2020-04-10T08:28:43Z</time>
      </trkpt>
      <trkpt lat="44.70873" lon="6.92887">
        <ele>2237</ele>
        <time>2020-04-10T08:29:53Z</time>
      </trkpt>
      <trkpt lat="44.70847" lon="6.92917">
        <ele>2236</ele>
        <time>2020-04-10T08:30:20Z</time>
      </trkpt>
      <trkpt lat="44.70835" lon="6.92963">
        <ele>2239</ele>
        <time>2020-04-10T08:30:48Z</time>
      </trkpt>
      <trkpt lat="44.70794" lon="6.93025">
        <ele>2232</ele>
        <time>2020-04-10T08:31:36Z</time>
      </trkpt>
      <trkpt lat="44.70796" lon="6.93072">
        <ele>2238</ele>
        <time>2020-04-10T08:32:03Z</time>
      </trkpt>
      <trkpt lat="44.70781" lon="6.93108">
        <ele>2236</ele>
        <time>2020-04-10T08:32:27Z</time>
      </trkpt>
      <trkpt lat="44.70766" lon="6.93199">
        <ele>2243</ele>
        <time>2020-04-10T08:33:20Z</time>
      </trkpt>
      <trkpt lat="44.70738" lon="6.93233">
        <ele>2240</ele>
        <time>2020-04-10T08:33:50Z</time>
      </trkpt>
      <trkpt lat="44.70703" lon="6.9329">
        <ele>2243</ele>
        <time>2020-04-10T08:34:33Z</time>
      </trkpt>
      <trkpt lat="44.7058" lon="6.93384">
        <ele>2239</ele>
        <time>2020-04-10T08:36:25Z</time>
      </trkpt>
      <trkpt lat="44.70556" lon="6.93444">
        <ele>2251</ele>
        <time>2020-04-10T08:37:04Z</time>
      </trkpt>
      <trkpt lat="44.7053" lon="6.93442">
        <ele>2244</ele>
        <time>2020-04-10T08:37:25Z</time>
      </trkpt>
      <trkpt lat="44.70424" lon="6.93601">
        <ele>2251</ele>
        <time>2020-04-10T08:39:29Z</time>
      </trkpt>
      <trkpt lat="44.70352" lon="6.93697">
        <ele>2249</ele>
        <time>2020-04-10T08:40:48Z</time>
      </trkpt>
      <trkpt lat="44.70314" lon="6.93753">
        <ele>2251</ele>
        <time>2020-04-10T08:41:32Z</time>
      </trkpt>
      <trkpt lat="44.70269" lon="6.93837">
        <ele>2256</ele>
        <time>2020-04-10T08:42:32Z</time>
      </trkpt>
      <trkpt lat="44.70222" lon="6.93897">
        <ele>2255</ele>
        <time>2020-04-10T08:43:23Z</time>
      </trkpt>
      <trkpt lat="44.70185" lon="6.93958">
        <ele>2261</ele>
        <time>2020-04-10T08:44:08Z</time>
      </trkpt>
      <trkpt lat="44.70098" lon="6.94034">
        <ele>2255</ele>
        <time>2020-04-10T08:45:30Z</time>
      </trkpt>
      <trkpt lat="44.7005" lon="6.94116">
        <ele>2258</ele>
        <time>2020-04-10T08:46:31Z</time>
      </trkpt>
      <trkpt lat="44.70028" lon="6.94186">
        <ele>2261</ele>
        <time>2020-04-10T08:47:14Z</time>
      </trkpt>
      <trkpt lat="44.6996" lon="6.94366">
        <ele>2266</ele>
        <time>2020-04-10T08:49:10Z</time>
      </trkpt>
      <trkpt lat="44.69933" lon="6.94497">
        <ele>2274</ele>
        <time>2020-04-10T08:50:28Z</time>
      </trkpt>
      <trkpt lat="44.6993" lon="6.94574">
        <ele>2282</ele>
        <time>2020-04-10T08:51:12Z</time>
      </trkpt>
      <trkpt lat="44.69851" lon="6.94617">
        <ele>2281</ele>
        <time>2020-04-10T08:52:20Z</time>
      </trkpt>
      <trkpt lat="44.69775" lon="6.94759">
        <ele>2306</ele>
        <time>2020-04-10T08:54:01Z</time>
      </trkpt>
      <trkpt lat="44.69711" lon="6.94765">
        <ele>2300</ele>
        <time>2020-04-10T08:54:52Z</time>
      </trkpt>
      <trkpt lat="44.69637" lon="6.94897">
        <ele>2319</ele>
        <time>2020-04-10T08:56:28Z</time>
      </trkpt>
      <trkpt lat="44.69607" lon="6.9492">
        <ele>2317</ele>
        <time>2020-04-10T08:56:55Z</time>
      </trkpt>
      <trkpt lat="44.69609" lon="6.94987">
        <ele>2326</ele>
        <time>2020-04-10T08:57:34Z</time>
      </trkpt>
      <trkpt lat="44.69589" lon="6.9505">
        <ele>2326</ele>
        <time>2020-04-10T08:58:13Z</time>
      </trkpt>
      <trkpt lat="44.696" lon="6.95172">
        <ele>2342</ele>
        <time>2020-04-10T08:59:23Z</time>
      </trkpt>
      <trkpt lat="44.6964" lon="6.95161">
        <ele>2353</ele>
        <time>2020-04-10T08:59:55Z</time>
      </trkpt>
      <trkpt lat="44.6969" lon="6.95057">
        <ele>2356</ele>
        <time>2020-04-10T09:01:07Z</time>
      </trkpt>
      <trkpt lat="44.69671" lon="6.95192">
        <ele>2370</ele>
        <time>2020-04-10T09:02:25Z</time>
      </trkpt>
      <trkpt lat="44.69633" lon="6.95304">
        <ele>2378</ele>
        <time>2020-04-10T09:03:36Z</time>
      </trkpt>
      <trkpt lat="44.69615" lon="6.95316">
        <ele>2374</ele>
        <time>2020-04-10T09:03:52Z</time>
      </trkpt>
      <trkpt lat="44.69599" lon="6.95462">
        <ele>2391</ele>
        <time>2020-04-10T09:05:16Z</time>
      </trkpt>
      <trkpt lat="44.69583" lon="6.95556">
        <ele>2407</ele>
        <time>2020-04-10T09:06:11Z</time>
      </trkpt>
      <trkpt lat="44.69568" lon="6.95607">
        <ele>2416</ele>
        <time>2020-04-10T09:06:42Z</time>
      </trkpt>
      <trkpt lat="44.69482" lon="6.95715">
        <ele>2427</ele>
        <time>2020-04-10T09:08:15Z</time>
      </trkpt>
      <trkpt lat="44.6944" lon="6.958">
        <ele>2430</ele>
        <time>2020-04-10T09:09:14Z</time>
      </trkpt>
      <trkpt lat="44.6945" lon="6.95894">
        <ele>2444</ele>
        <time>2020-04-10T09:10:08Z</time>
      </trkpt>
      <trkpt lat="44.69436" lon="6.96008">
        <ele>2456</ele>
        <time>2020-04-10T09:11:14Z</time>
      </trkpt>
      <trkpt lat="44.69346" lon="6.96166">
        <ele>2479</ele>
        <time>2020-04-10T09:13:09Z</time>
      </trkpt>
      <trkpt lat="44.69295" lon="6.96448">
        <ele>2525</ele>
        <time>2020-04-10T09:15:54Z</time>
      </trkpt>
      <trkpt lat="44.69252" lon="6.96594">
        <ele>2532</ele>
        <time>2020-04-10T09:17:24Z</time>
      </trkpt>
      <trkpt lat="44.69235" lon="6.96735">
        <ele>2542</ele>
        <time>2020-04-10T09:18:46Z</time>
      </trkpt>
      <trkpt lat="44.6922" lon="6.96794">
        <ele>2543</ele>
        <time>2020-04-10T09:19:21Z</time>
      </trkpt>
      <trkpt lat="44.69243" lon="6.96854">
        <ele>2557</ele>
        <time>2020-04-10T09:20:00Z</time>
      </trkpt>
      <trkpt lat="44.69248" lon="6.96996">
        <ele>2578</ele>
        <time>2020-04-10T09:21:21Z</time>
      </trkpt>
      <trkpt lat="44.69252" lon="6.97042">
        <ele>2585</ele>
        <time>2020-04-10T09:21:47Z</time>
      </trkpt>
      <trkpt lat="44.69266" lon="6.97094">
        <ele>2597</ele>
        <time>2020-04-10T09:22:19Z</time>
      </trkpt>
      <trkpt lat="44.69261" lon="6.97135">
        <ele>2601</ele>
        <time>2020-04-10T09:22:43Z</time>
      </trkpt>
      <trkpt lat="44.69276" lon="6.97323">
        <ele>2626</ele>
        <time>2020-04-10T09:24:31Z</time>
      </trkpt>
      <trkpt lat="44.6926" lon="6.97431">
        <ele>2632</ele>
        <time>2020-04-10T09:25:33Z</time>
      </trkpt>
      <trkpt lat="44.69266" lon="6.97495">
        <ele>2638</ele>
        <time>2020-04-10T09:26:10Z</time>
      </trkpt>
      <trkpt lat="44.69293" lon="6.9759">
        <ele>2649</ele>
        <time>2020-04-10T09:27:08Z</time>
      </trkpt>
      <trkpt lat="44.69292" lon="6.97794">
        <ele>2664</ele>
        <time>2020-04-10T09:29:04Z</time>
      </trkpt>
      <trkpt lat="44.69275" lon="6.97872">
        <ele>2670</ele>
        <time>2020-04-10T09:29:51Z</time>
      </trkpt>
      <trkpt lat="44.69218" lon="6.97934">
        <ele>2676</ele>
        <time>2020-04-10T09:30:49Z</time>
      </trkpt>
      <trkpt lat="44.69188" lon="6.97999">
        <ele>2687</ele>
        <time>2020-04-10T09:31:33Z</time>
      </trkpt>
      <trkpt lat="44.69178" lon="6.98072">
        <ele>2706</ele>
        <time>2020-04-10T09:32:15Z</time>
      </trkpt>
      <trkpt lat="44.69197" lon="6.98122">
        <ele>2717</ele>
        <time>2020-04-10T09:32:47Z</time>
      </trkpt>
      <trkpt lat="44.69188" lon="6.98162">
        <ele>2722</ele>
        <time>2020-04-10T09:33:11Z</time>
      </trkpt>
      <trkpt lat="44.69241" lon="6.98269">
        <ele>2733</ele>
        <time>2020-04-10T09:34:25Z</time>
      </trkpt>
      <trkpt lat="44.69265" lon="6.98298">
        <ele>2737</ele>
        <time>2020-04-10T09:34:51Z</time>
      </trkpt>
      <trkpt lat="44.69311" lon="6.98314">
        <ele>2741</ele>
        <time>2020-04-10T09:35:29Z</time>
      </trkpt>
      <trkpt lat="44.69366" lon="6.9834">
        <ele>2751</ele>
        <time>2020-04-10T09:36:15Z</time>
      </trkpt>
      <trkpt lat="44.69402" lon="6.98416">
        <ele>2761</ele>
        <time>2020-04-10T09:37:07Z</time>
      </trkpt>
      <trkpt lat="44.69441" lon="6.98472">
        <ele>2775</ele>
        <time>2020-04-10T09:37:52Z</time>
      </trkpt>
      <trkpt lat="44.69439" lon="6.98501">
        <ele>2776</ele>
        <time>2020-04-10T09:38:08Z</time>
      </trkpt>
      <trkpt lat="44.69444" lon="6.98537">
        <ele>2782</ele>
        <time>2020-04-10T09:38:29Z</time>
      </trkpt>
      <trkpt lat="44.69501" lon="6.98591">
        <ele>2793</ele>
        <time>2020-04-10T09:39:24Z</time>
      </trkpt>
      <trkpt lat="44.69534" lon="6.98652">
        <ele>2802</ele>
        <time>2020-04-10T09:40:08Z</time>
      </trkpt>
      <trkpt lat="44.69567" lon="6.98669">
        <ele>2804</ele>
        <time>2020-04-10T09:40:36Z</time>
      </trkpt>
      <trkpt lat="44.69598" lon="6.98645">
        <ele>2804</ele>
        <time>2020-04-10T09:41:04Z</time>
      </trkpt>
      <trkpt lat="44.69622" lon="6.98654">
        <ele>2797</ele>
        <time>2020-04-10T09:41:24Z</time>
      </trkpt>
      <trkpt lat="44.69652" lon="6.9864">
        <ele>2792</ele>
        <time>2020-04-10T09:41:49Z</time>
      </trkpt>
      <trkpt lat="44.69666" lon="6.98656">
        <ele>2787</ele>
        <time>2020-04-10T09:42:04Z</time>
      </trkpt>
      <trkpt lat="44.69698" lon="6.98652">
        <ele>2776</ele>
        <time>2020-04-10T09:42:30Z</time>
      </trkpt>
      <trkpt lat="44.69723" lon="6.98677">
        <ele>2764</ele>
        <time>2020-04-10T09:42:54Z</time>
      </trkpt>
      <trkpt lat="44.69734" lon="6.98684">
        <ele>2759</ele>
        <time>2020-04-10T09:43:04Z</time>
      </trkpt>
      <trkpt lat="44.6974" lon="6.98696">
        <ele>2755</ele>
        <time>2020-04-10T09:43:12Z</time>
      </trkpt>
      <trkpt lat="44.69797" lon="6.98642">
        <ele>2741</ele>
        <time>2020-04-10T09:44:07Z</time>
      </trkpt>
      <trkpt lat="44.69825" lon="6.98656">
        <ele>2729</ele>
        <time>2020-04-10T09:44:31Z</time>
      </trkpt>
      <trkpt lat="44.69833" lon="6.98637">
        <ele>2729</ele>
        <time>2020-04-10T09:44:44Z</time>
      </trkpt>
      <trkpt lat="44.69865" lon="6.98624">
        <ele>2721</ele>
        <time>2020-04-10T09:45:10Z</time>
      </trkpt>
      <trkpt lat="44.69911" lon="6.98615">
        <ele>2709</ele>
        <time>2020-04-10T09:45:47Z</time>
      </trkpt>
      <trkpt lat="44.6995" lon="6.98589">
        <ele>2700</ele>
        <time>2020-04-10T09:46:22Z</time>
      </trkpt>
      <trkpt lat="44.7" lon="6.98522">
        <ele>2692</ele>
        <time>2020-04-10T09:47:17Z</time>
      </trkpt>
      <trkpt lat="44.70136" lon="6.98442">
        <ele>2660</ele>
        <time>2020-04-10T09:49:15Z</time>
      </trkpt>
      <trkpt lat="44.70169" lon="6.9844">
        <ele>2651</ele>
        <time>2020-04-10T09:49:42Z</time>
      </trkpt>
      <trkpt lat="44.7025" lon="6.98408">
        <ele>2638</ele>
        <time>2020-04-10T09:50:49Z</time>
      </trkpt>
      <trkpt lat="44.70379" lon="6.98315">
        <ele>2632</ele>
        <time>2020-04-10T09:52:45Z</time>
      </trkpt>
      <trkpt lat="44.70448" lon="6.98274">
        <ele>2632</ele>
        <time>2020-04-10T09:53:45Z</time>
      </trkpt>
      <trkpt lat="44.70594" lon="6.98254">
        <ele>2623</ele>
        <time>2020-04-10T09:55:43Z</time>
      </trkpt>
      <trkpt lat="44.70659" lon="6.98242">
        <ele>2626</ele>
        <time>2020-04-10T09:56:35Z</time>
      </trkpt>
      <trkpt lat="44.70742" lon="6.98209">
        <ele>2629</ele>
        <time>2020-04-10T09:57:44Z</time>
      </trkpt>
      <trkpt lat="44.70843" lon="6.98162">
        <ele>2628</ele>
        <time>2020-04-10T09:59:09Z</time>
      </trkpt>
      <trkpt lat="44.70906" lon="6.98109">
        <ele>2629</ele>
        <time>2020-04-10T10:00:08Z</time>
      </trkpt>
      <trkpt lat="44.70967" lon="6.981">
        <ele>2625</ele>
        <time>2020-04-10T10:00:57Z</time>
      </trkpt>
      <trkpt lat="44.71031" lon="6.98112">
        <ele>2612</ele>
        <time>2020-04-10T10:01:49Z</time>
      </trkpt>
      <trkpt lat="44.71124" lon="6.98095">
        <ele>2592</ele>
        <time>2020-04-10T10:03:04Z</time>
      </trkpt>
      <trkpt lat="44.71198" lon="6.98057">
        <ele>2580</ele>
        <time>2020-04-10T10:04:07Z</time>
      </trkpt>
      <trkpt lat="44.71238" lon="6.9802">
        <ele>2581</ele>
        <time>2020-04-10T10:04:45Z</time>
      </trkpt>
      <trkpt lat="44.71288" lon="6.98016">
        <ele>2557</ele>
        <time>2020-04-10T10:05:25Z</time>
      </trkpt>
      <trkpt lat="44.71345" lon="6.97958">
        <ele>2549</ele>
        <time>2020-04-10T10:06:22Z</time>
      </trkpt>
      <trkpt lat="44.71368" lon="6.9793">
        <ele>2549</ele>
        <time>2020-04-10T10:06:46Z</time>
      </trkpt>
      <trkpt lat="44.7143" lon="6.97882">
        <ele>2536</ele>
        <time>2020-04-10T10:07:43Z</time>
      </trkpt>
      <trkpt lat="44.71481" lon="6.97869">
        <ele>2524</ele>
        <time>2020-04-10T10:08:24Z</time>
      </trkpt>
      <trkpt lat="44.71541" lon="6.97864">
        <ele>2512</ele>
        <time>2020-04-10T10:09:12Z</time>
      </trkpt>
      <trkpt lat="44.71625" lon="6.97867">
        <ele>2489</ele>
        <time>2020-04-10T10:10:20Z</time>
      </trkpt>
      <trkpt lat="44.71695" lon="6.97853">
        <ele>2470</ele>
        <time>2020-04-10T10:11:16Z</time>
      </trkpt>
      <trkpt lat="44.71707" lon="6.97828">
        <ele>2474</ele>
        <time>2020-04-10T10:11:33Z</time>
      </trkpt>
      <trkpt lat="44.71775" lon="6.978">
        <ele>2458</ele>
        <time>2020-04-10T10:12:30Z</time>
      </trkpt>
      <trkpt lat="44.71814" lon="6.97779">
        <ele>2453</ele>
        <time>2020-04-10T10:13:04Z</time>
      </trkpt>
      <trkpt lat="44.71818" lon="6.978">
        <ele>2444</ele>
        <time>2020-04-10T10:13:16Z</time>
      </trkpt>
      <trkpt lat="44.71831" lon="6.97815">
        <ele>2434</ele>
        <time>2020-04-10T10:13:29Z</time>
      </trkpt>
      <trkpt lat="44.7183" lon="6.97828">
        <ele>2430</ele>
        <time>2020-04-10T10:13:37Z</time>
      </trkpt>
      <trkpt lat="44.71843" lon="6.97819">
        <ele>2431</ele>
        <time>2020-04-10T10:13:49Z</time>
      </trkpt>
      <trkpt lat="44.71839" lon="6.97858">
        <ele>2423</ele>
        <time>2020-04-10T10:14:11Z</time>
      </trkpt>
      <trkpt lat="44.71923" lon="6.9789">
        <ele>2410</ele>
        <time>2020-04-10T10:15:21Z</time>
      </trkpt>
      <trkpt lat="44.72035" lon="6.97902">
        <ele>2407</ele>
        <time>2020-04-10T10:16:51Z</time>
      </trkpt>
      <trkpt lat="44.72147" lon="6.97924">
        <ele>2403</ele>
        <time>2020-04-10T10:18:21Z</time>
      </trkpt>
      <trkpt lat="44.72194" lon="6.97909">
        <ele>2408</ele>
        <time>2020-04-10T10:19:00Z</time>
      </trkpt>
      <trkpt lat="44.72279" lon="6.97959">
        <ele>2405</ele>
        <time>2020-04-10T10:20:13Z</time>
      </trkpt>
      <trkpt lat="44.72312" lon="6.97967">
        <ele>2405</ele>
        <time>2020-04-10T10:20:40Z</time>
      </trkpt>
      <trkpt lat="44.72335" lon="6.97962">
        <ele>2408</ele>
        <time>2020-04-10T10:20:59Z</time>
      </trkpt>
      <trkpt lat="44.72362" lon="6.97964">
        <ele>2409</ele>
        <time>2020-04-10T10:21:21Z</time>
      </trkpt>
      <trkpt lat="44.72394" lon="6.97953">
        <ele>2415</ele>
        <time>2020-04-10T10:21:47Z</time>
      </trkpt>
      <trkpt lat="44.7248" lon="6.98059">
        <ele>2403</ele>
        <time>2020-04-10T10:23:18Z</time>
      </trkpt>
      <trkpt lat="44.72565" lon="6.98097">
        <ele>2405</ele>
        <time>2020-04-10T10:24:30Z</time>
      </trkpt>
      <trkpt lat="44.726" lon="6.98078">
        <ele>2409</ele>
        <time>2020-04-10T10:25:00Z</time>
      </trkpt>
      <trkpt lat="44.72626" lon="6.98093">
        <ele>2408</ele>
        <time>2020-04-10T10:25:22Z</time>
      </trkpt>
      <trkpt lat="44.7268" lon="6.98138">
        <ele>2400</ele>
        <time>2020-04-10T10:26:13Z</time>
      </trkpt>
      <trkpt lat="44.72732" lon="6.98229">
        <ele>2383</ele>
        <time>2020-04-10T10:27:19Z</time>
      </trkpt>
      <trkpt lat="44.72734" lon="6.98274">
        <ele>2371</ele>
        <time>2020-04-10T10:27:45Z</time>
      </trkpt>
      <trkpt lat="44.72802" lon="6.98317">
        <ele>2347</ele>
        <time>2020-04-10T10:28:44Z</time>
      </trkpt>
      <trkpt lat="44.72934" lon="6.98227">
        <ele>2320</ele>
        <time>2020-04-10T10:30:42Z</time>
      </trkpt>
      <trkpt lat="44.72962" lon="6.98265">
        <ele>2300</ele>
        <time>2020-04-10T10:31:13Z</time>
      </trkpt>
      <trkpt lat="44.72994" lon="6.98379">
        <ele>2277</ele>
        <time>2020-04-10T10:32:23Z</time>
      </trkpt>
      <trkpt lat="44.73018" lon="6.98412">
        <ele>2269</ele>
        <time>2020-04-10T10:32:50Z</time>
      </trkpt>
      <trkpt lat="44.73047" lon="6.98403">
        <ele>2262</ele>
        <time>2020-04-10T10:33:13Z</time>
      </trkpt>
      <trkpt lat="44.73064" lon="6.98389">
        <ele>2259</ele>
        <time>2020-04-10T10:33:29Z</time>
      </trkpt>
      <trkpt lat="44.73088" lon="6.98353">
        <ele>2253</ele>
        <time>2020-04-10T10:33:57Z</time>
      </trkpt>
      <trkpt lat="44.73131" lon="6.9834">
        <ele>2240</ele>
        <time>2020-04-10T10:34:32Z</time>
      </trkpt>
      <trkpt lat="44.73205" lon="6.98279">
        <ele>2227</ele>
        <time>2020-04-10T10:35:41Z</time>
      </trkpt>
      <trkpt lat="44.73269" lon="6.98293">
        <ele>2208</ele>
        <time>2020-04-10T10:36:33Z</time>
      </trkpt>
      <trkpt lat="44.73338" lon="6.9832">
        <ele>2192</ele>
        <time>2020-04-10T10:37:30Z</time>
      </trkpt>
      <trkpt lat="44.73411" lon="6.98267">
        <ele>2176</ele>
        <time>2020-04-10T10:38:36Z</time>
      </trkpt>
      <trkpt lat="44.73483" lon="6.98197">
        <ele>2163</ele>
        <time>2020-04-10T10:39:46Z</time>
      </trkpt>
      <trkpt lat="44.73501" lon="6.9817">
        <ele>2162</ele>
        <time>2020-04-10T10:40:07Z</time>
      </trkpt>
      <trkpt lat="44.73542" lon="6.98162">
        <ele>2149</ele>
        <time>2020-04-10T10:40:40Z</time>
      </trkpt>
      <trkpt lat="44.73568" lon="6.98141">
        <ele>2144</ele>
        <time>2020-04-10T10:41:04Z</time>
      </trkpt>
      <trkpt lat="44.73591" lon="6.98166">
        <ele>2131</ele>
        <time>2020-04-10T10:41:28Z</time>
      </trkpt>
      <trkpt lat="44.73603" lon="6.98158">
        <ele>2131</ele>
        <time>2020-04-10T10:41:38Z</time>
      </trkpt>
      <trkpt lat="44.73649" lon="6.98208">
        <ele>2109</ele>
        <time>2020-04-10T10:42:25Z</time>
      </trkpt>
      <trkpt lat="44.73632" lon="6.98252">
        <ele>2102</ele>
        <time>2020-04-10T10:42:53Z</time>
      </trkpt>
      <trkpt lat="44.73683" lon="6.98303">
        <ele>2084</ele>
        <time>2020-04-10T10:43:43Z</time>
      </trkpt>
      <trkpt lat="44.73726" lon="6.98364">
        <ele>2075</ele>
        <time>2020-04-10T10:44:32Z</time>
      </trkpt>
      <trkpt lat="44.73799" lon="6.98359">
        <ele>2063</ele>
        <time>2020-04-10T10:45:31Z</time>
      </trkpt>
      <trkpt lat="44.7383" lon="6.98375">
        <ele>2052</ele>
        <time>2020-04-10T10:45:57Z</time>
      </trkpt>
      <trkpt lat="44.73925" lon="6.98358">
        <ele>2040</ele>
        <time>2020-04-10T10:47:14Z</time>
      </trkpt>
      <trkpt lat="44.73967" lon="6.98404">
        <ele>2018</ele>
        <time>2020-04-10T10:47:56Z</time>
      </trkpt>
      <trkpt lat="44.73984" lon="6.98409">
        <ele>2015</ele>
        <time>2020-04-10T10:48:10Z</time>
      </trkpt>
      <trkpt lat="44.7403" lon="6.98381">
        <ele>2026</ele>
        <time>2020-04-10T10:48:50Z</time>
      </trkpt>
      <trkpt lat="44.74092" lon="6.98428">
        <ele>2012</ele>
        <time>2020-04-10T10:49:47Z</time>
      </trkpt>
      <trkpt lat="44.74112" lon="6.98419">
        <ele>2021</ele>
        <time>2020-04-10T10:50:04Z</time>
      </trkpt>
      <trkpt lat="44.7414" lon="6.98433">
        <ele>2023</ele>
        <time>2020-04-10T10:50:27Z</time>
      </trkpt>
      <trkpt lat="44.74166" lon="6.98423">
        <ele>2034</ele>
        <time>2020-04-10T10:50:49Z</time>
      </trkpt>
      <trkpt lat="44.74221" lon="6.98434">
        <ele>2041</ele>
        <time>2020-04-10T10:51:33Z</time>
      </trkpt>
      <trkpt lat="44.74372" lon="6.98411">
        <ele>2043</ele>
        <time>2020-04-10T10:53:35Z</time>
      </trkpt>
      <trkpt lat="44.74415" lon="6.98411">
        <ele>2038</ele>
        <time>2020-04-10T10:54:10Z</time>
      </trkpt>
      <trkpt lat="44.74436" lon="6.9838">
        <ele>2039</ele>
        <time>2020-04-10T10:54:34Z</time>
      </trkpt>
      <trkpt lat="44.74458" lon="6.98403">
        <ele>2029</ele>
        <time>2020-04-10T10:54:56Z</time>
      </trkpt>
      <trkpt lat="44.74525" lon="6.98433">
        <ele>2007</ele>
        <time>2020-04-10T10:55:52Z</time>
      </trkpt>
      <trkpt lat="44.74584" lon="6.98455">
        <ele>1997</ele>
        <time>2020-04-10T10:56:41Z</time>
      </trkpt>
      <trkpt lat="44.7461" lon="6.98446">
        <ele>2000</ele>
        <time>2020-04-10T10:57:02Z</time>
      </trkpt>
      <trkpt lat="44.74634" lon="6.98496">
        <ele>1989</ele>
        <time>2020-04-10T10:57:37Z</time>
      </trkpt>
      <trkpt lat="44.74667" lon="6.98514">
        <ele>1986</ele>
        <time>2020-04-10T10:58:05Z</time>
      </trkpt>
      <trkpt lat="44.74708" lon="6.98494">
        <ele>1986</ele>
        <time>2020-04-10T10:58:40Z</time>
      </trkpt>
      <trkpt lat="44.74761" lon="6.98454">
        <ele>1995</ele>
        <time>2020-04-10T10:59:28Z</time>
      </trkpt>
      <trkpt lat="44.74822" lon="6.98489">
        <ele>1974</ele>
        <time>2020-04-10T11:00:21Z</time>
      </trkpt>
      <trkpt lat="44.74823" lon="6.98532">
        <ele>1964</ele>
        <time>2020-04-10T11:00:45Z</time>
      </trkpt>
      <trkpt lat="44.74878" lon="6.9862">
        <ele>1948</ele>
        <time>2020-04-10T11:01:52Z</time>
      </trkpt>
      <trkpt lat="44.74921" lon="6.98679">
        <ele>1935</ele>
        <time>2020-04-10T11:02:40Z</time>
      </trkpt>
      <trkpt lat="44.74976" lon="6.98683">
        <ele>1922</ele>
        <time>2020-04-10T11:03:24Z</time>
      </trkpt>
      <trkpt lat="44.75022" lon="6.98706">
        <ele>1909</ele>
        <time>2020-04-10T11:04:03Z</time>
      </trkpt>
      <trkpt lat="44.75025" lon="6.98722">
        <ele>1906</ele>
        <time>2020-04-10T11:04:13Z</time>
      </trkpt>
      <trkpt lat="44.75053" lon="6.9877">
        <ele>1893</ele>
        <time>2020-04-10T11:04:48Z</time>
      </trkpt>
      <trkpt lat="44.75032" lon="6.98817">
        <ele>1893</ele>
        <time>2020-04-10T11:05:19Z</time>
      </trkpt>
      <trkpt lat="44.75045" lon="6.98879">
        <ele>1883</ele>
        <time>2020-04-10T11:05:56Z</time>
      </trkpt>
      <trkpt lat="44.75119" lon="6.98937">
        <ele>1855</ele>
        <time>2020-04-10T11:07:04Z</time>
      </trkpt>
      <trkpt lat="44.75226" lon="6.99027">
        <ele>1815</ele>
        <time>2020-04-10T11:08:44Z</time>
      </trkpt>
      <trkpt lat="44.75223" lon="6.99048">
        <ele>1812</ele>
        <time>2020-04-10T11:08:56Z</time>
      </trkpt>
      <trkpt lat="44.75235" lon="6.99078">
        <ele>1800</ele>
        <time>2020-04-10T11:09:16Z</time>
      </trkpt>
      <trkpt lat="44.75227" lon="6.99117">
        <ele>1794</ele>
        <time>2020-04-10T11:09:39Z</time>
      </trkpt>
      <trkpt lat="44.75237" lon="6.99142">
        <ele>1782</ele>
        <time>2020-04-10T11:09:55Z</time>
      </trkpt>
      <trkpt lat="44.75187" lon="6.99196">
        <ele>1782</ele>
        <time>2020-04-10T11:10:45Z</time>
      </trkpt>
      <trkpt lat="44.75149" lon="6.9921">
        <ele>1785</ele>
        <time>2020-04-10T11:11:17Z</time>
      </trkpt>
      <trkpt lat="44.75188" lon="6.9922">
        <ele>1767</ele>
        <time>2020-04-10T11:11:49Z</time>
      </trkpt>
      <trkpt lat="44.7527" lon="6.99206">
        <ele>1748</ele>
        <time>2020-04-10T11:12:55Z</time>
      </trkpt>
      <trkpt lat="44.75286" lon="6.99191">
        <ele>1747</ele>
        <time>2020-04-10T11:13:10Z</time>
      </trkpt>
      <trkpt lat="44.75368" lon="6.99169">
        <ele>1728</ele>
        <time>2020-04-10T11:14:17Z</time>
      </trkpt>
      <trkpt lat="44.75473" lon="6.99113">
        <ele>1729</ele>
        <time>2020-04-10T11:15:47Z</time>
      </trkpt>
      <trkpt lat="44.75717" lon="6.9909">
        <ele>1706</ele>
        <time>2020-04-10T11:19:03Z</time>
      </trkpt>
      <trkpt lat="44.75893" lon="6.99168">
        <ele>1696</ele>
        <time>2020-04-10T11:21:30Z</time>
      </trkpt>
      <trkpt lat="44.75927" lon="6.99151">
        <ele>1699</ele>
        <time>2020-04-10T11:21:59Z</time>
      </trkpt>
      <trkpt lat="44.75999" lon="6.99131">
        <ele>1696</ele>
        <time>2020-04-10T11:22:58Z</time>
      </trkpt>
      <trkpt lat="44.76081" lon="6.99103">
        <ele>1688</ele>
        <time>2020-04-10T11:24:06Z</time>
      </trkpt>
      <trkpt lat="44.76168" lon="6.98962">
        <ele>1684</ele>
        <time>2020-04-10T11:25:52Z</time>
      </trkpt>
      <trkpt lat="44.76188" lon="6.98911">
        <ele>1684</ele>
        <time>2020-04-10T11:26:25Z</time>
      </trkpt>
      <trkpt lat="44.76235" lon="6.98773">
        <ele>1678</ele>
        <time>2020-04-10T11:27:52Z</time>
      </trkpt>
      <trkpt lat="44.7628" lon="6.98651">
        <ele>1677</ele>
        <time>2020-04-10T11:29:10Z</time>
      </trkpt>
      <trkpt lat="44.76382" lon="6.98491">
        <ele>1676</ele>
        <time>2020-04-10T11:31:12Z</time>
      </trkpt>
      <trkpt lat="44.76402" lon="6.9843">
        <ele>1678</ele>
        <time>2020-04-10T11:31:51Z</time>
      </trkpt>
      <trkpt lat="44.76427" lon="6.98392">
        <ele>1675</ele>
        <time>2020-04-10T11:32:20Z</time>
      </trkpt>
      <trkpt lat="44.76457" lon="6.9837">
        <ele>1672</ele>
        <time>2020-04-10T11:32:47Z</time>
      </trkpt>
      <trkpt lat="44.76453" lon="6.98323">
        <ele>1676</ele>
        <time>2020-04-10T11:33:14Z</time>
      </trkpt>
      <trkpt lat="44.76517" lon="6.98217">
        <ele>1675</ele>
        <time>2020-04-10T11:34:33Z</time>
      </trkpt>
      <trkpt lat="44.76565" lon="6.9806">
        <ele>1682</ele>
        <time>2020-04-10T11:36:10Z</time>
      </trkpt>
      <trkpt lat="44.76574" lon="6.98003">
        <ele>1682</ele>
        <time>2020-04-10T11:36:43Z</time>
      </trkpt>
      <trkpt lat="44.76644" lon="6.97917">
        <ele>1665</ele>
        <time>2020-04-10T11:37:58Z</time>
      </trkpt>
      <trkpt lat="44.76671" lon="6.97845">
        <ele>1669</ele>
        <time>2020-04-10T11:38:44Z</time>
      </trkpt>
      <trkpt lat="44.76728" lon="6.97776">
        <ele>1661</ele>
        <time>2020-04-10T11:39:44Z</time>
      </trkpt>
      <trkpt lat="44.76747" lon="6.97723">
        <ele>1660</ele>
        <time>2020-04-10T11:40:18Z</time>
      </trkpt>
      <trkpt lat="44.76796" lon="6.97649">
        <ele>1658</ele>
        <time>2020-04-10T11:41:16Z</time>
      </trkpt>
      <trkpt lat="44.76806" lon="6.9761">
        <ele>1656</ele>
        <time>2020-04-10T11:41:39Z</time>
      </trkpt>
      <trkpt lat="44.76833" lon="6.97477">
        <ele>1661</ele>
        <time>2020-04-10T11:42:58Z</time>
      </trkpt>
      <trkpt lat="44.7695" lon="6.97351">
        <ele>1649</ele>
        <time>2020-04-10T11:44:56Z</time>
      </trkpt>
      <trkpt lat="44.77016" lon="6.97276">
        <ele>1644</ele>
        <time>2020-04-10T11:46:04Z</time>
      </trkpt>
      <trkpt lat="44.77082" lon="6.97145">
        <ele>1636</ele>
        <time>2020-04-10T11:47:35Z</time>
      </trkpt>
      <trkpt lat="44.77116" lon="6.96978">
        <ele>1629</ele>
        <time>2020-04-10T11:49:14Z</time>
      </trkpt>
      <trkpt lat="44.77124" lon="6.96752">
        <ele>1630</ele>
        <time>2020-04-10T11:51:22Z</time>
      </trkpt>
      <trkpt lat="44.77207" lon="6.96562">
        <ele>1625</ele>
        <time>2020-04-10T11:53:29Z</time>
      </trkpt>
      <trkpt lat="44.77212" lon="6.96481">
        <ele>1626</ele>
        <time>2020-04-10T11:54:15Z</time>
      </trkpt>
      <trkpt lat="44.77231" lon="6.96354">
        <ele>1622</ele>
        <time>2020-04-10T11:55:29Z</time>
      </trkpt>
      <trkpt lat="44.77263" lon="6.962">
        <ele>1615</ele>
        <time>2020-04-10T11:57:00Z</time>
      </trkpt>
      <trkpt lat="44.77275" lon="6.96015">
        <ele>1611</ele>
        <time>2020-04-10T11:58:46Z</time>
      </trkpt>
      <trkpt lat="44.77297" lon="6.95892">
        <ele>1611</ele>
        <time>2020-04-10T11:59:58Z</time>
      </trkpt>
      <trkpt lat="44.77291" lon="6.95864">
        <ele>1612</ele>
        <time>2020-04-10T12:00:15Z</time>
      </trkpt>
      <trkpt lat="44.77331" lon="6.95729">
        <ele>1612</ele>
        <time>2020-04-10T12:01:38Z</time>
      </trkpt>
      <trkpt lat="44.77363" lon="6.95653">
        <ele>1611</ele>
        <time>2020-04-10T12:02:28Z</time>
      </trkpt>
      <trkpt lat="44.77373" lon="6.95591">
        <ele>1612</ele>
        <time>2020-04-10T12:03:04Z</time>
      </trkpt>
      <trkpt lat="44.77326" lon="6.95525">
        <ele>1619</ele>
        <time>2020-04-10T12:03:57Z</time>
      </trkpt>
      <trkpt lat="44.77383" lon="6.95354">
        <ele>1618</ele>
        <time>2020-04-10T12:05:45Z</time>
      </trkpt>
      <trkpt lat="44.77404" lon="6.95312">
        <ele>1615</ele>
        <time>2020-04-10T12:06:14Z</time>
      </trkpt>
      <trkpt lat="44.77385" lon="6.95281">
        <ele>1616</ele>
        <time>2020-04-10T12:06:37Z</time>
      </trkpt>
      <trkpt lat="44.77417" lon="6.95246">
        <ele>1610</ele>
        <time>2020-04-10T12:07:10Z</time>
      </trkpt>
      <trkpt lat="44.77504" lon="6.95138">
        <ele>1600</ele>
        <time>2020-04-10T12:08:42Z</time>
      </trkpt>
      <trkpt lat="44.77567" lon="6.95017">
        <ele>1598</ele>
        <time>2020-04-10T12:10:08Z</time>
      </trkpt>
      <trkpt lat="44.77607" lon="6.94826">
        <ele>1602</ele>
        <time>2020-04-10T12:12:01Z</time>
      </trkpt>
      <trkpt lat="44.77619" lon="6.94814">
        <ele>1601</ele>
        <time>2020-04-10T12:12:13Z</time>
      </trkpt>
      <trkpt lat="44.77632" lon="6.94694">
        <ele>1604</ele>
        <time>2020-04-10T12:13:22Z</time>
      </trkpt>
      <trkpt lat="44.77678" lon="6.94589">
        <ele>1603</ele>
        <time>2020-04-10T12:14:32Z</time>
      </trkpt>
      <trkpt lat="44.77754" lon="6.9447">
        <ele>1598</ele>
        <time>2020-04-10T12:16:03Z</time>
      </trkpt>
      <trkpt lat="44.77843" lon="6.94308">
        <ele>1591</ele>
        <time>2020-04-10T12:17:59Z</time>
      </trkpt>
      <trkpt lat="44.77894" lon="6.94161">
        <ele>1604</ele>
        <time>2020-04-10T12:19:32Z</time>
      </trkpt>
      <trkpt lat="44.77984" lon="6.94011">
        <ele>1604</ele>
        <time>2020-04-10T12:21:24Z</time>
      </trkpt>
      <trkpt lat="44.78054" lon="6.93948">
        <ele>1592</ele>
        <time>2020-04-10T12:22:30Z</time>
      </trkpt>
      <trkpt lat="44.78141" lon="6.93857">
        <ele>1581</ele>
        <time>2020-04-10T12:23:57Z</time>
      </trkpt>
      <trkpt lat="44.7822" lon="6.9375">
        <ele>1574</ele>
        <time>2020-04-10T12:25:25Z</time>
      </trkpt>
      <trkpt lat="44.78263" lon="6.93618">
        <ele>1584</ele>
        <time>2020-04-10T12:26:47Z</time>
      </trkpt>
      <trkpt lat="44.78299" lon="6.93547">
        <ele>1588</ele>
        <time>2020-04-10T12:27:37Z</time>
      </trkpt>
      <trkpt lat="44.78353" lon="6.93499">
        <ele>1576</ele>
        <time>2020-04-10T12:28:28Z</time>
      </trkpt>
      <trkpt lat="44.78407" lon="6.93406">
        <ele>1579</ele>
        <time>2020-04-10T12:29:36Z</time>
      </trkpt>
      <trkpt lat="44.78505" lon="6.93305">
        <ele>1571</ele>
        <time>2020-04-10T12:31:14Z</time>
      </trkpt>
      <trkpt lat="44.7853" lon="6.9325">
        <ele>1575</ele>
        <time>2020-04-10T12:31:51Z</time>
      </trkpt>
      <trkpt lat="44.78606" lon="6.93185">
        <ele>1566</ele>
        <time>2020-04-10T12:33:02Z</time>
      </trkpt>
      <trkpt lat="44.78643" lon="6.93181">
        <ele>1562</ele>
        <time>2020-04-10T12:33:32Z</time>
      </trkpt>
      <trkpt lat="44.78649" lon="6.93137">
        <ele>1566</ele>
        <time>2020-04-10T12:33:57Z</time>
      </trkpt>
      <trkpt lat="44.78796" lon="6.93031">
        <ele>1562</ele>
        <time>2020-04-10T12:36:09Z</time>
      </trkpt>
      <trkpt lat="44.78876" lon="6.92964">
        <ele>1557</ele>
        <time>2020-04-10T12:37:24Z</time>
      </trkpt>
      <trkpt lat="44.78916" lon="6.92908">
        <ele>1558</ele>
        <time>2020-04-10T12:38:09Z</time>
      </trkpt>
      <trkpt lat="44.78958" lon="6.92884">
        <ele>1557</ele>
        <time>2020-04-10T12:38:45Z</time>
      </trkpt>
      <trkpt lat="44.78989" lon="6.9283">
        <ele>1558</ele>
        <time>2020-04-10T12:39:25Z</time>
      </trkpt>
      <trkpt lat="44.79038" lon="6.92788">
        <ele>1557</ele>
        <time>2020-04-10T12:40:11Z</time>
      </trkpt>
      <trkpt lat="44.79065" lon="6.92745">
        <ele>1556</ele>
        <time>2020-04-10T12:40:43Z</time>
      </trkpt>
      <trkpt lat="44.79117" lon="6.92696">
        <ele>1553</ele>
        <time>2020-04-10T12:41:33Z</time>
      </trkpt>
      <trkpt lat="44.79121" lon="6.92648">
        <ele>1559</ele>
        <time>2020-04-10T12:42:01Z</time>
      </trkpt>
      <trkpt lat="44.7912" lon="6.92537">
        <ele>1579</ele>
        <time>2020-04-10T12:43:04Z</time>
      </trkpt>
      <trkpt lat="44.79137" lon="6.92451">
        <ele>1579</ele>
        <time>2020-04-10T12:43:55Z</time>
      </trkpt>
      <trkpt lat="44.79156" lon="6.92403">
        <ele>1568</ele>
        <time>2020-04-10T12:44:26Z</time>
      </trkpt>
      <trkpt lat="44.79149" lon="6.92257">
        <ele>1574</ele>
        <time>2020-04-10T12:45:49Z</time>
      </trkpt>
      <trkpt lat="44.79144" lon="6.92069">
        <ele>1587</ele>
        <time>2020-04-10T12:47:36Z</time>
      </trkpt>
      <trkpt lat="44.7916" lon="6.92033">
        <ele>1574</ele>
        <time>2020-04-10T12:48:00Z</time>
      </trkpt>
      <trkpt lat="44.79168" lon="6.91959">
        <ele>1578</ele>
        <time>2020-04-10T12:48:42Z</time>
      </trkpt>
      <trkpt lat="44.79164" lon="6.91935">
        <ele>1587</ele>
        <time>2020-04-10T12:48:56Z</time>
      </trkpt>
      <trkpt lat="44.79224" lon="6.91842">
        <ele>1576</ele>
        <time>2020-04-10T12:50:08Z</time>
      </trkpt>
      <trkpt lat="44.79269" lon="6.91766">
        <ele>1576</ele>
        <time>2020-04-10T12:51:04Z</time>
      </trkpt>
      <trkpt lat="44.79308" lon="6.9154">
        <ele>1569</ele>
        <time>2020-04-10T12:53:16Z</time>
      </trkpt>
      <trkpt lat="44.79291" lon="6.91451">
        <ele>1575</ele>
        <time>2020-04-10T12:54:09Z</time>
      </trkpt>
      <trkpt lat="44.79274" lon="6.9142">
        <ele>1584</ele>
        <time>2020-04-10T12:54:31Z</time>
      </trkpt>
      <trkpt lat="44.79279" lon="6.91361">
        <ele>1575</ele>
        <time>2020-04-10T12:55:05Z</time>
      </trkpt>
      <trkpt lat="44.79207" lon="6.90963">
        <ele>1570</ele>
        <time>2020-04-10T12:58:58Z</time>
      </trkpt>
      <trkpt lat="44.79207" lon="6.90722">
        <ele>1551</ele>
        <time>2020-04-10T13:01:15Z</time>
      </trkpt>
      <trkpt lat="44.79122" lon="6.90293">
        <ele>1539</ele>
        <time>2020-04-10T13:05:28Z</time>
      </trkpt>
      <trkpt lat="44.79024" lon="6.8995">
        <ele>1523</ele>
        <time>2020-04-10T13:08:58Z</time>
      </trkpt>
      <trkpt lat="44.78921" lon="6.89684">
        <ele>1511</ele>
        <time>2020-04-10T13:11:50Z</time>
      </trkpt>
      <trkpt lat="44.78848" lon="6.89186">
        <ele>1507</ele>
        <time>2020-04-10T13:16:39Z</time>
      </trkpt>
      <trkpt lat="44.78732" lon="6.8856">
        <ele>1521</ele>
        <time>2020-04-10T13:22:47Z</time>
      </trkpt>
      <trkpt lat="44.78729" lon="6.88469">
        <ele>1520</ele>
        <time>2020-04-10T13:23:39Z</time>
      </trkpt>
      <trkpt lat="44.78733" lon="6.88436">
        <ele>1517</ele>
        <time>2020-04-10T13:23:58Z</time>
      </trkpt>
      <trkpt lat="44.78716" lon="6.88403">
        <ele>1524</ele>
        <time>2020-04-10T13:24:21Z</time>
      </trkpt>
      <trkpt lat="44.78718" lon="6.8827">
        <ele>1525</ele>
        <time>2020-04-10T13:25:37Z</time>
      </trkpt>
      <trkpt lat="44.78662" lon="6.88163">
        <ele>1521</ele>
        <time>2020-04-10T13:26:52Z</time>
      </trkpt>
      <trkpt lat="44.78653" lon="6.88138">
        <ele>1518</ele>
        <time>2020-04-10T13:27:08Z</time>
      </trkpt>
      <trkpt lat="44.78602" lon="6.88082">
        <ele>1521</ele>
        <time>2020-04-10T13:28:00Z</time>
      </trkpt>
      <trkpt lat="44.78586" lon="6.88056">
        <ele>1519</ele>
        <time>2020-04-10T13:28:19Z</time>
      </trkpt>
      <trkpt lat="44.78541" lon="6.88023">
        <ele>1531</ele>
        <time>2020-04-10T13:29:00Z</time>
      </trkpt>
      <trkpt lat="44.78517" lon="6.87979">
        <ele>1533</ele>
        <time>2020-04-10T13:29:32Z</time>
      </trkpt>
      <trkpt lat="44.78495" lon="6.87928">
        <ele>1531</ele>
        <time>2020-04-10T13:30:05Z</time>
      </trkpt>
      <trkpt lat="44.78468" lon="6.87913">
        <ele>1542</ele>
        <time>2020-04-10T13:30:29Z</time>
      </trkpt>
      <trkpt lat="44.78436" lon="6.87819">
        <ele>1528</ele>
        <time>2020-04-10T13:31:28Z</time>
      </trkpt>
      <trkpt lat="44.78403" lon="6.87791">
        <ele>1533</ele>
        <time>2020-04-10T13:31:59Z</time>
      </trkpt>
      <trkpt lat="44.78372" lon="6.87724">
        <ele>1524</ele>
        <time>2020-04-10T13:32:44Z</time>
      </trkpt>
      <trkpt lat="44.78365" lon="6.87671">
        <ele>1511</ele>
        <time>2020-04-10T13:33:15Z</time>
      </trkpt>
      <trkpt lat="44.78296" lon="6.87586">
        <ele>1517</ele>
        <time>2020-04-10T13:34:28Z</time>
      </trkpt>
      <trkpt lat="44.783" lon="6.87548">
        <ele>1510</ele>
        <time>2020-04-10T13:34:50Z</time>
      </trkpt>
      <trkpt lat="44.78309" lon="6.87505">
        <ele>1502</ele>
        <time>2020-04-10T13:35:16Z</time>
      </trkpt>
      <trkpt lat="44.78291" lon="6.87477">
        <ele>1499</ele>
        <time>2020-04-10T13:35:37Z</time>
      </trkpt>
      <trkpt lat="44.78338" lon="6.87474">
        <ele>1491</ele>
        <time>2020-04-10T13:36:15Z</time>
      </trkpt>
      <trkpt lat="44.78294" lon="6.87428">
        <ele>1489</ele>
        <time>2020-04-10T13:36:59Z</time>
      </trkpt>
      <trkpt lat="44.78349" lon="6.87421">
        <ele>1480</ele>
        <time>2020-04-10T13:37:43Z</time>
      </trkpt>
      <trkpt lat="44.78416" lon="6.87479">
        <ele>1476</ele>
        <time>2020-04-10T13:38:46Z</time>
      </trkpt>
      <trkpt lat="44.7845" lon="6.87449">
        <ele>1485</ele>
        <time>2020-04-10T13:39:18Z</time>
      </trkpt>
      <trkpt lat="44.78421" lon="6.87367">
        <ele>1474</ele>
        <time>2020-04-10T13:40:10Z</time>
      </trkpt>
      <trkpt lat="44.78341" lon="6.87273">
        <ele>1469</ele>
        <time>2020-04-10T13:41:33Z</time>
      </trkpt>
      <trkpt lat="44.78263" lon="6.87227">
        <ele>1468</ele>
        <time>2020-04-10T13:42:41Z</time>
      </trkpt>
      <trkpt lat="44.78211" lon="6.87178">
        <ele>1466</ele>
        <time>2020-04-10T13:43:31Z</time>
      </trkpt>
      <trkpt lat="44.78164" lon="6.87153">
        <ele>1463</ele>
        <time>2020-04-10T13:44:11Z</time>
      </trkpt>
      <trkpt lat="44.78129" lon="6.87089">
        <ele>1465</ele>
        <time>2020-04-10T13:44:57Z</time>
      </trkpt>
      <trkpt lat="44.78196" lon="6.87058">
        <ele>1474</ele>
        <time>2020-04-10T13:45:54Z</time>
      </trkpt>
      <trkpt lat="44.78186" lon="6.8701">
        <ele>1476</ele>
        <time>2020-04-10T13:46:22Z</time>
      </trkpt>
      <trkpt lat="44.78182" lon="6.86928">
        <ele>1480</ele>
        <time>2020-04-10T13:47:09Z</time>
      </trkpt>
      <trkpt lat="44.78193" lon="6.86826">
        <ele>1484</ele>
        <time>2020-04-10T13:48:08Z</time>
      </trkpt>
      <trkpt lat="44.78167" lon="6.86729">
        <ele>1480</ele>
        <time>2020-04-10T13:49:06Z</time>
      </trkpt>
      <trkpt lat="44.7816" lon="6.86673">
        <ele>1484</ele>
        <time>2020-04-10T13:49:39Z</time>
      </trkpt>
      <trkpt lat="44.78129" lon="6.86584">
        <ele>1482</ele>
        <time>2020-04-10T13:50:35Z</time>
      </trkpt>
      <trkpt lat="44.78115" lon="6.86489">
        <ele>1487</ele>
        <time>2020-04-10T13:51:30Z</time>
      </trkpt>
      <trkpt lat="44.78099" lon="6.86428">
        <ele>1487</ele>
        <time>2020-04-10T13:52:07Z</time>
      </trkpt>
      <trkpt lat="44.7807" lon="6.86351">
        <ele>1491</ele>
        <time>2020-04-10T13:52:57Z</time>
      </trkpt>
      <trkpt lat="44.78008" lon="6.86326">
        <ele>1479</ele>
        <time>2020-04-10T13:53:48Z</time>
      </trkpt>
      <trkpt lat="44.77946" lon="6.86081">
        <ele>1495</ele>
        <time>2020-04-10T13:56:16Z</time>
      </trkpt>
      <trkpt lat="44.77928" lon="6.85989">
        <ele>1506</ele>
        <time>2020-04-10T13:57:10Z</time>
      </trkpt>
      <trkpt lat="44.77916" lon="6.85874">
        <ele>1517</ele>
        <time>2020-04-10T13:58:17Z</time>
      </trkpt>
      <trkpt lat="44.77898" lon="6.8577">
        <ele>1525</ele>
        <time>2020-04-10T13:59:17Z</time>
      </trkpt>
      <trkpt lat="44.77914" lon="6.85736">
        <ele>1541</ele>
        <time>2020-04-10T13:59:41Z</time>
      </trkpt>
      <trkpt lat="44.77903" lon="6.85701">
        <ele>1541</ele>
        <time>2020-04-10T14:00:02Z</time>
      </trkpt>
      <trkpt lat="44.77921" lon="6.85719">
        <ele>1548</ele>
        <time>2020-04-10T14:00:20Z</time>
      </trkpt>
      <trkpt lat="44.7791" lon="6.85668">
        <ele>1551</ele>
        <time>2020-04-10T14:00:50Z</time>
      </trkpt>
      <trkpt lat="44.77901" lon="6.85665">
        <ele>1546</ele>
        <time>2020-04-10T14:00:58Z</time>
      </trkpt>
      <trkpt lat="44.77883" lon="6.85586">
        <ele>1552</ele>
        <time>2020-04-10T14:01:45Z</time>
      </trkpt>
      <trkpt lat="44.77896" lon="6.85525">
        <ele>1568</ele>
        <time>2020-04-10T14:02:21Z</time>
      </trkpt>
      <trkpt lat="44.77885" lon="6.85484">
        <ele>1570</ele>
        <time>2020-04-10T14:02:46Z</time>
      </trkpt>
      <trkpt lat="44.77861" lon="6.85471">
        <ele>1562</ele>
        <time>2020-04-10T14:03:07Z</time>
      </trkpt>
      <trkpt lat="44.77841" lon="6.8541">
        <ele>1566</ele>
        <time>2020-04-10T14:03:45Z</time>
      </trkpt>
      <trkpt lat="44.77785" lon="6.85275">
        <ele>1579</ele>
        <time>2020-04-10T14:05:14Z</time>
      </trkpt>
      <trkpt lat="44.77823" lon="6.85216">
        <ele>1599</ele>
        <time>2020-04-10T14:05:59Z</time>
      </trkpt>
      <trkpt lat="44.77789" lon="6.85096">
        <ele>1604</ele>
        <time>2020-04-10T14:07:12Z</time>
      </trkpt>
      <trkpt lat="44.77789" lon="6.85055">
        <ele>1613</ele>
        <time>2020-04-10T14:07:36Z</time>
      </trkpt>
      <trkpt lat="44.77765" lon="6.84953">
        <ele>1626</ele>
        <time>2020-04-10T14:08:37Z</time>
      </trkpt>
      <trkpt lat="44.77762" lon="6.84899">
        <ele>1634</ele>
        <time>2020-04-10T14:09:07Z</time>
      </trkpt>
      <trkpt lat="44.7774" lon="6.84805">
        <ele>1633</ele>
        <time>2020-04-10T14:10:04Z</time>
      </trkpt>
      <trkpt lat="44.77753" lon="6.84767">
        <ele>1642</ele>
        <time>2020-04-10T14:10:28Z</time>
      </trkpt>
      <trkpt lat="44.77749" lon="6.84721">
        <ele>1645</ele>
        <time>2020-04-10T14:10:54Z</time>
      </trkpt>
      <trkpt lat="44.77773" lon="6.84665">
        <ele>1661</ele>
        <time>2020-04-10T14:11:31Z</time>
      </trkpt>
      <trkpt lat="44.77771" lon="6.84621">
        <ele>1664</ele>
        <time>2020-04-10T14:11:56Z</time>
      </trkpt>
      <trkpt lat="44.77756" lon="6.84591">
        <ele>1661</ele>
        <time>2020-04-10T14:12:17Z</time>
      </trkpt>
      <trkpt lat="44.77807" lon="6.84642">
        <ele>1676</ele>
        <time>2020-04-10T14:13:07Z</time>
      </trkpt>
      <trkpt lat="44.77831" lon="6.84514">
        <ele>1698</ele>
        <time>2020-04-10T14:14:22Z</time>
      </trkpt>
      <trkpt lat="44.77829" lon="6.84461">
        <ele>1701</ele>
        <time>2020-04-10T14:14:53Z</time>
      </trkpt>
      <trkpt lat="44.7786" lon="6.84399">
        <ele>1714</ele>
        <time>2020-04-10T14:15:36Z</time>
      </trkpt>
      <trkpt lat="44.77889" lon="6.84302">
        <ele>1730</ele>
        <time>2020-04-10T14:16:36Z</time>
      </trkpt>
      <trkpt lat="44.77821" lon="6.84236">
        <ele>1719</ele>
        <time>2020-04-10T14:17:42Z</time>
      </trkpt>
      <trkpt lat="44.77818" lon="6.84116">
        <ele>1745</ele>
        <time>2020-04-10T14:18:50Z</time>
      </trkpt>
      <trkpt lat="44.77782" lon="6.84096">
        <ele>1738</ele>
        <time>2020-04-10T14:19:21Z</time>
      </trkpt>
      <trkpt lat="44.77769" lon="6.8404">
        <ele>1740</ele>
        <time>2020-04-10T14:19:54Z</time>
      </trkpt>
      <trkpt lat="44.77809" lon="6.83948">
        <ele>1751</ele>
        <time>2020-04-10T14:20:56Z</time>
      </trkpt>
      <trkpt lat="44.7782" lon="6.83863">
        <ele>1751</ele>
        <time>2020-04-10T14:21:45Z</time>
      </trkpt>
      <trkpt lat="44.77843" lon="6.83779">
        <ele>1756</ele>
        <time>2020-04-10T14:22:36Z</time>
      </trkpt>
      <trkpt lat="44.77856" lon="6.83744">
        <ele>1757</ele>
        <time>2020-04-10T14:22:58Z</time>
      </trkpt>
      <trkpt lat="44.77865" lon="6.83705">
        <ele>1757</ele>
        <time>2020-04-10T14:23:22Z</time>
      </trkpt>
      <trkpt lat="44.77921" lon="6.83667">
        <ele>1777</ele>
        <time>2020-04-10T14:24:11Z</time>
      </trkpt>
      <trkpt lat="44.77948" lon="6.83598">
        <ele>1784</ele>
        <time>2020-04-10T14:24:56Z</time>
      </trkpt>
      <trkpt lat="44.77959" lon="6.83539">
        <ele>1781</ele>
        <time>2020-04-10T14:25:31Z</time>
      </trkpt>
      <trkpt lat="44.77992" lon="6.83476">
        <ele>1787</ele>
        <time>2020-04-10T14:26:15Z</time>
      </trkpt>
      <trkpt lat="44.78017" lon="6.83363">
        <ele>1797</ele>
        <time>2020-04-10T14:27:23Z</time>
      </trkpt>
      <trkpt lat="44.77956" lon="6.83374">
        <ele>1780</ele>
        <time>2020-04-10T14:28:12Z</time>
      </trkpt>
      <trkpt lat="44.77925" lon="6.83351">
        <ele>1783</ele>
        <time>2020-04-10T14:28:40Z</time>
      </trkpt>
      <trkpt lat="44.77885" lon="6.83363">
        <ele>1772</ele>
        <time>2020-04-10T14:29:13Z</time>
      </trkpt>
      <trkpt lat="44.77829" lon="6.83351">
        <ele>1767</ele>
        <time>2020-04-10T14:29:58Z</time>
      </trkpt>
      <trkpt lat="44.77791" lon="6.83297">
        <ele>1770</ele>
        <time>2020-04-10T14:30:41Z</time>
      </trkpt>
      <trkpt lat="44.77756" lon="6.83187">
        <ele>1779</ele>
        <time>2020-04-10T14:31:50Z</time>
      </trkpt>
      <trkpt lat="44.77722" lon="6.83174">
        <ele>1772</ele>
        <time>2020-04-10T14:32:18Z</time>
      </trkpt>
      <trkpt lat="44.77691" lon="6.83126">
        <ele>1770</ele>
        <time>2020-04-10T14:32:55Z</time>
      </trkpt>
      <trkpt lat="44.77637" lon="6.8308">
        <ele>1765</ele>
        <time>2020-04-10T14:33:45Z</time>
      </trkpt>
      <trkpt lat="44.7761" lon="6.83014">
        <ele>1768</ele>
        <time>2020-04-10T14:34:29Z</time>
      </trkpt>
      <trkpt lat="44.77588" lon="6.82991">
        <ele>1765</ele>
        <time>2020-04-10T14:34:51Z</time>
      </trkpt>
      <trkpt lat="44.77579" lon="6.82894">
        <ele>1766</ele>
        <time>2020-04-10T14:35:46Z</time>
      </trkpt>
      <trkpt lat="44.77537" lon="6.82761">
        <ele>1749</ele>
        <time>2020-04-10T14:37:09Z</time>
      </trkpt>
      <trkpt lat="44.77572" lon="6.82667">
        <ele>1748</ele>
        <time>2020-04-10T14:38:09Z</time>
      </trkpt>
      <trkpt lat="44.77629" lon="6.82598">
        <ele>1760</ele>
        <time>2020-04-10T14:39:10Z</time>
      </trkpt>
      <trkpt lat="44.77633" lon="6.82544">
        <ele>1769</ele>
        <time>2020-04-10T14:39:40Z</time>
      </trkpt>
      <trkpt lat="44.77591" lon="6.82552">
        <ele>1759</ele>
        <time>2020-04-10T14:40:14Z</time>
      </trkpt>
      <trkpt lat="44.77553" lon="6.82544">
        <ele>1755</ele>
        <time>2020-04-10T14:40:45Z</time>
      </trkpt>
      <trkpt lat="44.77523" lon="6.82552">
        <ele>1748</ele>
        <time>2020-04-10T14:41:10Z</time>
      </trkpt>
      <trkpt lat="44.77497" lon="6.82508">
        <ele>1758</ele>
        <time>2020-04-10T14:41:42Z</time>
      </trkpt>
      <trkpt lat="44.77439" lon="6.82539">
        <ele>1750</ele>
        <time>2020-04-10T14:42:32Z</time>
      </trkpt>
      <trkpt lat="44.77398" lon="6.82516">
        <ele>1758</ele>
        <time>2020-04-10T14:43:07Z</time>
      </trkpt>
      <trkpt lat="44.77349" lon="6.8245">
        <ele>1765</ele>
        <time>2020-04-10T14:44:01Z</time>
      </trkpt>
      <trkpt lat="44.77323" lon="6.82411">
        <ele>1766</ele>
        <time>2020-04-10T14:44:32Z</time>
      </trkpt>
      <trkpt lat="44.7726" lon="6.82309">
        <ele>1769</ele>
        <time>2020-04-10T14:45:49Z</time>
      </trkpt>
      <trkpt lat="44.77238" lon="6.82256">
        <ele>1769</ele>
        <time>2020-04-10T14:46:23Z</time>
      </trkpt>
      <trkpt lat="44.77184" lon="6.82164">
        <ele>1772</ele>
        <time>2020-04-10T14:47:31Z</time>
      </trkpt>
      <trkpt lat="44.77068" lon="6.82026">
        <ele>1767</ele>
        <time>2020-04-10T14:49:33Z</time>
      </trkpt>
      <trkpt lat="44.77032" lon="6.81955">
        <ele>1770</ele>
        <time>2020-04-10T14:50:23Z</time>
      </trkpt>
      <trkpt lat="44.76903" lon="6.81804">
        <ele>1759</ele>
        <time>2020-04-10T14:52:37Z</time>
      </trkpt>
      <trkpt lat="44.76843" lon="6.81674">
        <ele>1751</ele>
        <time>2020-04-10T14:54:05Z</time>
      </trkpt>
      <trkpt lat="44.76827" lon="6.81595">
        <ele>1749</ele>
        <time>2020-04-10T14:54:52Z</time>
      </trkpt>
      <trkpt lat="44.76809" lon="6.81557">
        <ele>1745</ele>
        <time>2020-04-10T14:55:18Z</time>
      </trkpt>
      <trkpt lat="44.76807" lon="6.81516">
        <ele>1749</ele>
        <time>2020-04-10T14:55:41Z</time>
      </trkpt>
      <trkpt lat="44.76778" lon="6.81434">
        <ele>1744</ele>
        <time>2020-04-10T14:56:33Z</time>
      </trkpt>
      <trkpt lat="44.76756" lon="6.81342">
        <ele>1732</ele>
        <time>2020-04-10T14:57:28Z</time>
      </trkpt>
      <trkpt lat="44.76787" lon="6.81187">
        <ele>1733</ele>
        <time>2020-04-10T14:59:00Z</time>
      </trkpt>
      <trkpt lat="44.76758" lon="6.81034">
        <ele>1720</ele>
        <time>2020-04-10T15:00:30Z</time>
      </trkpt>
      <trkpt lat="44.76745" lon="6.80967">
        <ele>1721</ele>
        <time>2020-04-10T15:01:09Z</time>
      </trkpt>
      <trkpt lat="44.76715" lon="6.80924">
        <ele>1714</ele>
        <time>2020-04-10T15:01:44Z</time>
      </trkpt>
      <trkpt lat="44.76691" lon="6.80873">
        <ele>1701</ele>
        <time>2020-04-10T15:02:18Z</time>
      </trkpt>
      <trkpt lat="44.76793" lon="6.80786">
        <ele>1730</ele>
        <time>2020-04-10T15:03:54Z</time>
      </trkpt>
      <trkpt lat="44.76769" lon="6.80753">
        <ele>1721</ele>
        <time>2020-04-10T15:04:21Z</time>
      </trkpt>
      <trkpt lat="44.76729" lon="6.8072">
        <ele>1714</ele>
        <time>2020-04-10T15:04:58Z</time>
      </trkpt>
      <trkpt lat="44.76675" lon="6.80709">
        <ele>1699</ele>
        <time>2020-04-10T15:05:41Z</time>
      </trkpt>
      <trkpt lat="44.7666" lon="6.80498">
        <ele>1709</ele>
        <time>2020-04-10T15:07:42Z</time>
      </trkpt>
      <trkpt lat="44.76646" lon="6.80449">
        <ele>1708</ele>
        <time>2020-04-10T15:08:12Z</time>
      </trkpt>
      <trkpt lat="44.76628" lon="6.80531">
        <ele>1696</ele>
        <time>2020-04-10T15:09:01Z</time>
      </trkpt>
      <trkpt lat="44.76626" lon="6.8047">
        <ele>1697</ele>
        <time>2020-04-10T15:09:36Z</time>
      </trkpt>
      <trkpt lat="44.76602" lon="6.80375">
        <ele>1687</ele>
        <time>2020-04-10T15:10:33Z</time>
      </trkpt>
      <trkpt lat="44.76593" lon="6.80276">
        <ele>1684</ele>
        <time>2020-04-10T15:11:30Z</time>
      </trkpt>
      <trkpt lat="44.76561" lon="6.80181">
        <ele>1676</ele>
        <time>2020-04-10T15:12:29Z</time>
      </trkpt>
      <trkpt lat="44.7651" lon="6.80066">
        <ele>1661</ele>
        <time>2020-04-10T15:13:46Z</time>
      </trkpt>
      <trkpt lat="44.76461" lon="6.79921">
        <ele>1654</ele>
        <time>2020-04-10T15:15:18Z</time>
      </trkpt>
      <trkpt lat="44.76427" lon="6.7977">
        <ele>1640</ele>
        <time>2020-04-10T15:16:48Z</time>
      </trkpt>
      <trkpt lat="44.76423" lon="6.79656">
        <ele>1640</ele>
        <time>2020-04-10T15:17:53Z</time>
      </trkpt>
      <trkpt lat="44.76394" lon="6.79589">
        <ele>1632</ele>
        <time>2020-04-10T15:18:37Z</time>
      </trkpt>
      <trkpt lat="44.76347" lon="6.7951">
        <ele>1639</ele>
        <time>2020-04-10T15:19:36Z</time>
      </trkpt>
      <trkpt lat="44.76285" lon="6.79454">
        <ele>1632</ele>
        <time>2020-04-10T15:20:35Z</time>
      </trkpt>
      <trkpt lat="44.76247" lon="6.79337">
        <ele>1646</ele>
        <time>2020-04-10T15:21:48Z</time>
      </trkpt>
      <trkpt lat="44.76236" lon="6.7927">
        <ele>1665</ele>
        <time>2020-04-10T15:22:27Z</time>
      </trkpt>
      <trkpt lat="44.76186" lon="6.79176">
        <ele>1668</ele>
        <time>2020-04-10T15:23:34Z</time>
      </trkpt>
      <trkpt lat="44.76157" lon="6.79066">
        <ele>1671</ele>
        <time>2020-04-10T15:24:41Z</time>
      </trkpt>
      <trkpt lat="44.76177" lon="6.78954">
        <ele>1684</ele>
        <time>2020-04-10T15:25:46Z</time>
      </trkpt>
      <trkpt lat="44.76193" lon="6.7891">
        <ele>1691</ele>
        <time>2020-04-10T15:26:14Z</time>
      </trkpt>
      <trkpt lat="44.76193" lon="6.78836">
        <ele>1680</ele>
        <time>2020-04-10T15:26:56Z</time>
      </trkpt>
      <trkpt lat="44.76211" lon="6.7876">
        <ele>1672</ele>
        <time>2020-04-10T15:27:42Z</time>
      </trkpt>
      <trkpt lat="44.76256" lon="6.78714">
        <ele>1686</ele>
        <time>2020-04-10T15:28:26Z</time>
      </trkpt>
      <trkpt lat="44.76294" lon="6.78627">
        <ele>1694</ele>
        <time>2020-04-10T15:29:25Z</time>
      </trkpt>
      <trkpt lat="44.76312" lon="6.78566">
        <ele>1691</ele>
        <time>2020-04-10T15:30:02Z</time>
      </trkpt>
      <trkpt lat="44.76412" lon="6.78459">
        <ele>1698</ele>
        <time>2020-04-10T15:31:43Z</time>
      </trkpt>
      <trkpt lat="44.7643" lon="6.7841">
        <ele>1690</ele>
        <time>2020-04-10T15:32:14Z</time>
      </trkpt>
      <trkpt lat="44.76514" lon="6.78347">
        <ele>1688</ele>
        <time>2020-04-10T15:33:30Z</time>
      </trkpt>
      <trkpt lat="44.76613" lon="6.78329">
        <ele>1697</ele>
        <time>2020-04-10T15:34:50Z</time>
      </trkpt>
      <trkpt lat="44.76682" lon="6.78334">
        <ele>1706</ele>
        <time>2020-04-10T15:35:45Z</time>
      </trkpt>
      <trkpt lat="44.76706" lon="6.78306">
        <ele>1699</ele>
        <time>2020-04-10T15:36:10Z</time>
      </trkpt>
      <trkpt lat="44.76756" lon="6.78278">
        <ele>1702</ele>
        <time>2020-04-10T15:36:54Z</time>
      </trkpt>
      <trkpt lat="44.76805" lon="6.78168">
        <ele>1692</ele>
        <time>2020-04-10T15:38:07Z</time>
      </trkpt>
      <trkpt lat="44.76834" lon="6.78188">
        <ele>1704</ele>
        <time>2020-04-10T15:38:33Z</time>
      </trkpt>
      <trkpt lat="44.76865" lon="6.7816">
        <ele>1696</ele>
        <time>2020-04-10T15:39:03Z</time>
      </trkpt>
      <trkpt lat="44.76947" lon="6.78178">
        <ele>1704</ele>
        <time>2020-04-10T15:40:09Z</time>
      </trkpt>
      <trkpt lat="44.77005" lon="6.78094">
        <ele>1676</ele>
        <time>2020-04-10T15:41:16Z</time>
      </trkpt>
      <trkpt lat="44.77095" lon="6.78066">
        <ele>1675</ele>
        <time>2020-04-10T15:42:30Z</time>
      </trkpt>
      <trkpt lat="44.77057" lon="6.77971">
        <ele>1669</ele>
        <time>2020-04-10T15:43:32Z</time>
      </trkpt>
      <trkpt lat="44.77059" lon="6.77933">
        <ele>1679</ele>
        <time>2020-04-10T15:43:53Z</time>
      </trkpt>
      <trkpt lat="44.77012" lon="6.77905">
        <ele>1673</ele>
        <time>2020-04-10T15:44:34Z</time>
      </trkpt>
      <trkpt lat="44.76968" lon="6.77811">
        <ele>1700</ele>
        <time>2020-04-10T15:45:38Z</time>
      </trkpt>
      <trkpt lat="44.76892" lon="6.77757">
        <ele>1705</ele>
        <time>2020-04-10T15:46:46Z</time>
      </trkpt>
      <trkpt lat="44.76865" lon="6.77714">
        <ele>1714</ele>
        <time>2020-04-10T15:47:19Z</time>
      </trkpt>
      <trkpt lat="44.76831" lon="6.77632">
        <ele>1724</ele>
        <time>2020-04-10T15:48:13Z</time>
      </trkpt>
      <trkpt lat="44.76823" lon="6.77543">
        <ele>1723</ele>
        <time>2020-04-10T15:49:04Z</time>
      </trkpt>
      <trkpt lat="44.76854" lon="6.77502">
        <ele>1729</ele>
        <time>2020-04-10T15:49:38Z</time>
      </trkpt>
      <trkpt lat="44.76887" lon="6.7747">
        <ele>1731</ele>
        <time>2020-04-10T15:50:10Z</time>
      </trkpt>
      <trkpt lat="44.76909" lon="6.77417">
        <ele>1727</ele>
        <time>2020-04-10T15:50:45Z</time>
      </trkpt>
      <trkpt lat="44.7691" lon="6.77361">
        <ele>1725</ele>
        <time>2020-04-10T15:51:17Z</time>
      </trkpt>
      <trkpt lat="44.76962" lon="6.77281">
        <ele>1745</ele>
        <time>2020-04-10T15:52:18Z</time>
      </trkpt>
      <trkpt lat="44.76988" lon="6.77181">
        <ele>1743</ele>
        <time>2020-04-10T15:53:19Z</time>
      </trkpt>
      <trkpt lat="44.77041" lon="6.77198">
        <ele>1764</ele>
        <time>2020-04-10T15:54:02Z</time>
      </trkpt>
      <trkpt lat="44.77078" lon="6.77075">
        <ele>1756</ele>
        <time>2020-04-10T15:55:18Z</time>
      </trkpt>
      <trkpt lat="44.77145" lon="6.77069">
        <ele>1779</ele>
        <time>2020-04-10T15:56:12Z</time>
      </trkpt>
      <trkpt lat="44.77241" lon="6.76938">
        <ele>1779</ele>
        <time>2020-04-10T15:57:59Z</time>
      </trkpt>
      <trkpt lat="44.77352" lon="6.7699">
        <ele>1818</ele>
        <time>2020-04-10T15:59:33Z</time>
      </trkpt>
      <trkpt lat="44.77378" lon="6.76962">
        <ele>1817</ele>
        <time>2020-04-10T15:59:59Z</time>
      </trkpt>
      <trkpt lat="44.77376" lon="6.76899">
        <ele>1805</ele>
        <time>2020-04-10T16:00:35Z</time>
      </trkpt>
      <trkpt lat="44.77436" lon="6.76889">
        <ele>1814</ele>
        <time>2020-04-10T16:01:23Z</time>
      </trkpt>
      <trkpt lat="44.77486" lon="6.76923">
        <ele>1833</ele>
        <time>2020-04-10T16:02:08Z</time>
      </trkpt>
      <trkpt lat="44.77513" lon="6.76854">
        <ele>1824</ele>
        <time>2020-04-10T16:02:52Z</time>
      </trkpt>
      <trkpt lat="44.77586" lon="6.76814">
        <ele>1831</ele>
        <time>2020-04-10T16:03:55Z</time>
      </trkpt>
      <trkpt lat="44.77618" lon="6.76766">
        <ele>1828</ele>
        <time>2020-04-10T16:04:33Z</time>
      </trkpt>
      <trkpt lat="44.77618" lon="6.76713">
        <ele>1819</ele>
        <time>2020-04-10T16:05:03Z</time>
      </trkpt>
      <trkpt lat="44.77597" lon="6.7676">
        <ele>1822</ele>
        <time>2020-04-10T16:05:34Z</time>
      </trkpt>
      <trkpt lat="44.77602" lon="6.76653">
        <ele>1807</ele>
        <time>2020-04-10T16:06:35Z</time>
      </trkpt>
      <trkpt lat="44.77672" lon="6.76623">
        <ele>1815</ele>
        <time>2020-04-10T16:07:34Z</time>
      </trkpt>
      <trkpt lat="44.77637" lon="6.76563">
        <ele>1811</ele>
        <time>2020-04-10T16:08:18Z</time>
      </trkpt>
      <trkpt lat="44.77617" lon="6.76543">
        <ele>1812</ele>
        <time>2020-04-10T16:08:38Z</time>
      </trkpt>
      <trkpt lat="44.77608" lon="6.76492">
        <ele>1823</ele>
        <time>2020-04-10T16:09:07Z</time>
      </trkpt>
      <trkpt lat="44.77565" lon="6.76481">
        <ele>1823</ele>
        <time>2020-04-10T16:09:42Z</time>
      </trkpt>
      <trkpt lat="44.77518" lon="6.76505">
        <ele>1815</ele>
        <time>2020-04-10T16:10:22Z</time>
      </trkpt>
      <trkpt lat="44.77509" lon="6.76528">
        <ele>1810</ele>
        <time>2020-04-10T16:10:37Z</time>
      </trkpt>
      <trkpt lat="44.77439" lon="6.76571">
        <ele>1804</ele>
        <time>2020-04-10T16:11:38Z</time>
      </trkpt>
      <trkpt lat="44.77395" lon="6.76539">
        <ele>1810</ele>
        <time>2020-04-10T16:12:18Z</time>
      </trkpt>
      <trkpt lat="44.7735" lon="6.7647">
        <ele>1824</ele>
        <time>2020-04-10T16:13:11Z</time>
      </trkpt>
      <trkpt lat="44.7718" lon="6.76451">
        <ele>1823</ele>
        <time>2020-04-10T16:15:28Z</time>
      </trkpt>
      <trkpt lat="44.77149" lon="6.7647">
        <ele>1819</ele>
        <time>2020-04-10T16:15:55Z</time>
      </trkpt>
      <trkpt lat="44.7712" lon="6.76466">
        <ele>1824</ele>
        <time>2020-04-10T16:16:18Z</time>
      </trkpt>
      <trkpt lat="44.7709" lon="6.76498">
        <ele>1818</ele>
        <time>2020-04-10T16:16:48Z</time>
      </trkpt>
      <trkpt lat="44.77046" lon="6.76517">
        <ele>1825</ele>
        <time>2020-04-10T16:17:25Z</time>
      </trkpt>
      <trkpt lat="44.76944" lon="6.76605">
        <ele>1815</ele>
        <time>2020-04-10T16:19:01Z</time>
      </trkpt>
      <trkpt lat="44.7687" lon="6.7659">
        <ele>1835</ele>
        <time>2020-04-10T16:20:01Z</time>
      </trkpt>
      <trkpt lat="44.76835" lon="6.767">
        <ele>1809</ele>
        <time>2020-04-10T16:21:09Z</time>
      </trkpt>
      <trkpt lat="44.76759" lon="6.76771">
        <ele>1805</ele>
        <time>2020-04-10T16:22:22Z</time>
      </trkpt>
      <trkpt lat="44.76694" lon="6.76784">
        <ele>1810</ele>
        <time>2020-04-10T16:23:15Z</time>
      </trkpt>
      <trkpt lat="44.76619" lon="6.76756">
        <ele>1823</ele>
        <time>2020-04-10T16:24:17Z</time>
      </trkpt>
      <trkpt lat="44.76534" lon="6.76745">
        <ele>1826</ele>
        <time>2020-04-10T16:25:26Z</time>
      </trkpt>
      <trkpt lat="44.76413" lon="6.7679">
        <ele>1828</ele>
        <time>2020-04-10T16:27:06Z</time>
      </trkpt>
      <trkpt lat="44.76468" lon="6.76721">
        <ele>1837</ele>
        <time>2020-04-10T16:28:05Z</time>
      </trkpt>
      <trkpt lat="44.76468" lon="6.76696">
        <ele>1844</ele>
        <time>2020-04-10T16:28:19Z</time>
      </trkpt>
      <trkpt lat="44.76441" lon="6.76689">
        <ele>1846</ele>
        <time>2020-04-10T16:28:41Z</time>
      </trkpt>
      <trkpt lat="44.76406" lon="6.76663">
        <ele>1851</ele>
        <time>2020-04-10T16:29:13Z</time>
      </trkpt>
      <trkpt lat="44.7636" lon="6.76691">
        <ele>1849</ele>
        <time>2020-04-10T16:29:53Z</time>
      </trkpt>
      <trkpt lat="44.76311" lon="6.76681">
        <ele>1851</ele>
        <time>2020-04-10T16:30:32Z</time>
      </trkpt>
      <trkpt lat="44.76287" lon="6.76661">
        <ele>1851</ele>
        <time>2020-04-10T16:30:55Z</time>
      </trkpt>
      <trkpt lat="44.76257" lon="6.76736">
        <ele>1847</ele>
        <time>2020-04-10T16:31:44Z</time>
      </trkpt>
      <trkpt lat="44.76272" lon="6.76833">
        <ele>1847</ele>
        <time>2020-04-10T16:32:40Z</time>
      </trkpt>
      <trkpt lat="44.76212" lon="6.76799">
        <ele>1852</ele>
        <time>2020-04-10T16:33:32Z</time>
      </trkpt>
      <trkpt lat="44.76125" lon="6.76771">
        <ele>1854</ele>
        <time>2020-04-10T16:34:43Z</time>
      </trkpt>
      <trkpt lat="44.76089" lon="6.76741">
        <ele>1853</ele>
        <time>2020-04-10T16:35:17Z</time>
      </trkpt>
      <trkpt lat="44.76048" lon="6.76693">
        <ele>1853</ele>
        <time>2020-04-10T16:35:59Z</time>
      </trkpt>
      <trkpt lat="44.76043" lon="6.76638">
        <ele>1853</ele>
        <time>2020-04-10T16:36:31Z</time>
      </trkpt>
      <trkpt lat="44.76066" lon="6.76558">
        <ele>1853</ele>
        <time>2020-04-10T16:37:20Z</time>
      </trkpt>
      <trkpt lat="44.7611" lon="6.76537">
        <ele>1855</ele>
        <time>2020-04-10T16:37:57Z</time>
      </trkpt>
      <trkpt lat="44.76206" lon="6.76485">
        <ele>1868</ele>
        <time>2020-04-10T16:39:20Z</time>
      </trkpt>
      <trkpt lat="44.76218" lon="6.76438">
        <ele>1874</ele>
        <time>2020-04-10T16:39:48Z</time>
      </trkpt>
      <trkpt lat="44.76212" lon="6.76305">
        <ele>1868</ele>
        <time>2020-04-10T16:41:04Z</time>
      </trkpt>
      <trkpt lat="44.76282" lon="6.76299">
        <ele>1885</ele>
        <time>2020-04-10T16:42:00Z</time>
      </trkpt>
      <trkpt lat="44.76336" lon="6.76273">
        <ele>1897</ele>
        <time>2020-04-10T16:42:46Z</time>
      </trkpt>
      <trkpt lat="44.76371" lon="6.76193">
        <ele>1895</ele>
        <time>2020-04-10T16:43:39Z</time>
      </trkpt>
      <trkpt lat="44.76448" lon="6.76125">
        <ele>1905</ele>
        <time>2020-04-10T16:44:52Z</time>
      </trkpt>
      <trkpt lat="44.76473" lon="6.76054">
        <ele>1899</ele>
        <time>2020-04-10T16:45:37Z</time>
      </trkpt>
      <trkpt lat="44.76532" lon="6.76041">
        <ele>1907</ele>
        <time>2020-04-10T16:46:25Z</time>
      </trkpt>
      <trkpt lat="44.76578" lon="6.7606">
        <ele>1917</ele>
        <time>2020-04-10T16:47:03Z</time>
      </trkpt>
      <trkpt lat="44.76631" lon="6.75985">
        <ele>1908</ele>
        <time>2020-04-10T16:48:03Z</time>
      </trkpt>
      <trkpt lat="44.76675" lon="6.75957">
        <ele>1914</ele>
        <time>2020-04-10T16:48:42Z</time>
      </trkpt>
      <trkpt lat="44.76703" lon="6.75902">
        <ele>1918</ele>
        <time>2020-04-10T16:49:20Z</time>
      </trkpt>
      <trkpt lat="44.76717" lon="6.75846">
        <ele>1918</ele>
        <time>2020-04-10T16:49:54Z</time>
      </trkpt>
      <trkpt lat="44.76743" lon="6.75769">
        <ele>1919</ele>
        <time>2020-04-10T16:50:43Z</time>
      </trkpt>
      <trkpt lat="44.76738" lon="6.75721">
        <ele>1911</ele>
        <time>2020-04-10T16:51:10Z</time>
      </trkpt>
      <trkpt lat="44.76764" lon="6.75616">
        <ele>1909</ele>
        <time>2020-04-10T16:52:13Z</time>
      </trkpt>
      <trkpt lat="44.76791" lon="6.75595">
        <ele>1916</ele>
        <time>2020-04-10T16:52:38Z</time>
      </trkpt>
      <trkpt lat="44.76794" lon="6.75524">
        <ele>1909</ele>
        <time>2020-04-10T16:53:18Z</time>
      </trkpt>
      <trkpt lat="44.7684" lon="6.75442">
        <ele>1920</ele>
        <time>2020-04-10T16:54:18Z</time>
      </trkpt>
      <trkpt lat="44.76837" lon="6.75361">
        <ele>1913</ele>
        <time>2020-04-10T16:55:04Z</time>
      </trkpt>
      <trkpt lat="44.76838" lon="6.75284">
        <ele>1909</ele>
        <time>2020-04-10T16:55:48Z</time>
      </trkpt>
      <trkpt lat="44.76835" lon="6.75219">
        <ele>1904</ele>
        <time>2020-04-10T16:56:25Z</time>
      </trkpt>
      <trkpt lat="44.76902" lon="6.75221">
        <ele>1920</ele>
        <time>2020-04-10T16:57:18Z</time>
      </trkpt>
      <trkpt lat="44.77017" lon="6.75129">
        <ele>1925</ele>
        <time>2020-04-10T16:59:04Z</time>
      </trkpt>
      <trkpt lat="44.77003" lon="6.7503">
        <ele>1915</ele>
        <time>2020-04-10T17:00:02Z</time>
      </trkpt>
      <trkpt lat="44.76979" lon="6.74998">
        <ele>1910</ele>
        <time>2020-04-10T17:00:28Z</time>
      </trkpt>
      <trkpt lat="44.76956" lon="6.74908">
        <ele>1905</ele>
        <time>2020-04-10T17:01:23Z</time>
      </trkpt>
      <trkpt lat="44.76956" lon="6.74792">
        <ele>1903</ele>
        <time>2020-04-10T17:02:29Z</time>
      </trkpt>
      <trkpt lat="44.76985" lon="6.747">
        <ele>1899</ele>
        <time>2020-04-10T17:03:26Z</time>
      </trkpt>
      <trkpt lat="44.77049" lon="6.74631">
        <ele>1898</ele>
        <time>2020-04-10T17:04:30Z</time>
      </trkpt>
      <trkpt lat="44.77145" lon="6.74543">
        <ele>1886</ele>
        <time>2020-04-10T17:06:02Z</time>
      </trkpt>
      <trkpt lat="44.77279" lon="6.7449">
        <ele>1875</ele>
        <time>2020-04-10T17:07:53Z</time>
      </trkpt>
      <trkpt lat="44.77312" lon="6.74397">
        <ele>1861</ele>
        <time>2020-04-10T17:08:53Z</time>
      </trkpt>
      <trkpt lat="44.77382" lon="6.74352">
        <ele>1855</ele>
        <time>2020-04-10T17:09:54Z</time>
      </trkpt>
      <trkpt lat="44.77439" lon="6.74327">
        <ele>1850</ele>
        <time>2020-04-10T17:10:42Z</time>
      </trkpt>
      <trkpt lat="44.77507" lon="6.74322">
        <ele>1847</ele>
        <time>2020-04-10T17:11:36Z</time>
      </trkpt>
      <trkpt lat="44.77669" lon="6.74232">
        <ele>1834</ele>
        <time>2020-04-10T17:13:56Z</time>
      </trkpt>
      <trkpt lat="44.77885" lon="6.74187">
        <ele>1822</ele>
        <time>2020-04-10T17:16:51Z</time>
      </trkpt>
      <trkpt lat="44.77902" lon="6.74155">
        <ele>1809</ele>
        <time>2020-04-10T17:17:13Z</time>
      </trkpt>
      <trkpt lat="44.78028" lon="6.74149">
        <ele>1800</ele>
        <time>2020-04-10T17:18:54Z</time>
      </trkpt>
      <trkpt lat="44.78106" lon="6.74112">
        <ele>1779</ele>
        <time>2020-04-10T17:20:00Z</time>
      </trkpt>
      <trkpt lat="44.78133" lon="6.74155">
        <ele>1790</ele>
        <time>2020-04-10T17:20:33Z</time>
      </trkpt>
      <trkpt lat="44.78211" lon="6.74172">
        <ele>1777</ele>
        <time>2020-04-10T17:21:36Z</time>
      </trkpt>
      <trkpt lat="44.7829" lon="6.74249">
        <ele>1777</ele>
        <time>2020-04-10T17:22:53Z</time>
      </trkpt>
      <trkpt lat="44.78324" lon="6.74219">
        <ele>1767</ele>
        <time>2020-04-10T17:23:25Z</time>
      </trkpt>
      <trkpt lat="44.78314" lon="6.74134">
        <ele>1757</ele>
        <time>2020-04-10T17:24:14Z</time>
      </trkpt>
      <trkpt lat="44.78276" lon="6.74048">
        <ele>1743</ele>
        <time>2020-04-10T17:25:12Z</time>
      </trkpt>
      <trkpt lat="44.78264" lon="6.73996">
        <ele>1736</ele>
        <time>2020-04-10T17:25:43Z</time>
      </trkpt>
      <trkpt lat="44.78275" lon="6.73934">
        <ele>1730</ele>
        <time>2020-04-10T17:26:19Z</time>
      </trkpt>
      <trkpt lat="44.78261" lon="6.73878">
        <ele>1724</ele>
        <time>2020-04-10T17:26:53Z</time>
      </trkpt>
      <trkpt lat="44.78353" lon="6.73874">
        <ele>1724</ele>
        <time>2020-04-10T17:28:06Z</time>
      </trkpt>
      <trkpt lat="44.78426" lon="6.73936">
        <ele>1732</ele>
        <time>2020-04-10T17:29:15Z</time>
      </trkpt>
      <trkpt lat="44.78484" lon="6.73921">
        <ele>1736</ele>
        <time>2020-04-10T17:30:02Z</time>
      </trkpt>
      <trkpt lat="44.78534" lon="6.73936">
        <ele>1744</ele>
        <time>2020-04-10T17:30:43Z</time>
      </trkpt>
      <trkpt lat="44.78587" lon="6.73887">
        <ele>1737</ele>
        <time>2020-04-10T17:31:34Z</time>
      </trkpt>
      <trkpt lat="44.7859" lon="6.73788">
        <ele>1731</ele>
        <time>2020-04-10T17:32:30Z</time>
      </trkpt>
      <trkpt lat="44.78586" lon="6.73713">
        <ele>1730</ele>
        <time>2020-04-10T17:33:13Z</time>
      </trkpt>
      <trkpt lat="44.78727" lon="6.73732">
        <ele>1751</ele>
        <time>2020-04-10T17:35:06Z</time>
      </trkpt>
      <trkpt lat="44.78939" lon="6.73653">
        <ele>1775</ele>
        <time>2020-04-10T17:38:02Z</time>
      </trkpt>
      <trkpt lat="44.79266" lon="6.73554">
        <ele>1800</ele>
        <time>2020-04-10T17:42:29Z</time>
      </trkpt>
      <trkpt lat="44.79307" lon="6.73507">
        <ele>1803</ele>
        <time>2020-04-10T17:43:12Z</time>
      </trkpt>
      <trkpt lat="44.7926" lon="6.73185">
        <ele>1773</ele>
        <time>2020-04-10T17:46:19Z</time>
      </trkpt>
      <trkpt lat="44.7931" lon="6.73134">
        <ele>1778</ele>
        <time>2020-04-10T17:47:08Z</time>
      </trkpt>
      <trkpt lat="44.7925" lon="6.72857">
        <ele>1778</ele>
        <time>2020-04-10T17:49:53Z</time>
      </trkpt>
      <trkpt lat="44.79282" lon="6.72741">
        <ele>1786</ele>
        <time>2020-04-10T17:51:03Z</time>
      </trkpt>
      <trkpt lat="44.79324" lon="6.72668">
        <ele>1792</ele>
        <time>2020-04-10T17:51:57Z</time>
      </trkpt>
      <trkpt lat="44.79399" lon="6.72644">
        <ele>1799</ele>
        <time>2020-04-10T17:52:58Z</time>
      </trkpt>
      <trkpt lat="44.79414" lon="6.72586">
        <ele>1799</ele>
        <time>2020-04-10T17:53:33Z</time>
      </trkpt>
      <trkpt lat="44.79495" lon="6.72447">
        <ele>1808</ele>
        <time>2020-04-10T17:55:16Z</time>
      </trkpt>
      <trkpt lat="44.79557" lon="6.72357">
        <ele>1810</ele>
        <time>2020-04-10T17:56:27Z</time>
      </trkpt>
      <trkpt lat="44.79679" lon="6.72252">
        <ele>1813</ele>
        <time>2020-04-10T17:58:21Z</time>
      </trkpt>
      <trkpt lat="44.79714" lon="6.72174">
        <ele>1819</ele>
        <time>2020-04-10T17:59:14Z</time>
      </trkpt>
      <trkpt lat="44.79789" lon="6.72095">
        <ele>1826</ele>
        <time>2020-04-10T18:00:29Z</time>
      </trkpt>
      <trkpt lat="44.79846" lon="6.72026">
        <ele>1830</ele>
        <time>2020-04-10T18:01:29Z</time>
      </trkpt>
      <trkpt lat="44.79851" lon="6.71902">
        <ele>1834</ele>
        <time>2020-04-10T18:02:39Z</time>
      </trkpt>
      <trkpt lat="44.7995" lon="6.71692">
        <ele>1842</ele>
        <time>2020-04-10T18:05:03Z</time>
      </trkpt>
      <trkpt lat="44.79947" lon="6.71604">
        <ele>1842</ele>
        <time>2020-04-10T18:05:53Z</time>
      </trkpt>
      <trkpt lat="44.79976" lon="6.71533">
        <ele>1848</ele>
        <time>2020-04-10T18:06:39Z</time>
      </trkpt>
      <trkpt lat="44.80028" lon="6.71368">
        <ele>1864</ele>
        <time>2020-04-10T18:08:22Z</time>
      </trkpt>
      <trkpt lat="44.80017" lon="6.71299">
        <ele>1870</ele>
        <time>2020-04-10T18:09:02Z</time>
      </trkpt>
      <trkpt lat="44.80082" lon="6.71172">
        <ele>1889</ele>
        <time>2020-04-10T18:10:31Z</time>
      </trkpt>
      <trkpt lat="44.80107" lon="6.71151">
        <ele>1893</ele>
        <time>2020-04-10T18:10:54Z</time>
      </trkpt>
      <trkpt lat="44.80175" lon="6.7111">
        <ele>1903</ele>
        <time>2020-04-10T18:11:53Z</time>
      </trkpt>
      <trkpt lat="44.80233" lon="6.71037">
        <ele>1913</ele>
        <time>2020-04-10T18:12:56Z</time>
      </trkpt>
      <trkpt lat="44.80379" lon="6.70878">
        <ele>1934</ele>
        <time>2020-04-10T18:15:23Z</time>
      </trkpt>
      <trkpt lat="44.80462" lon="6.70874">
        <ele>1953</ele>
        <time>2020-04-10T18:16:30Z</time>
      </trkpt>
      <trkpt lat="44.80474" lon="6.7082">
        <ele>1952</ele>
        <time>2020-04-10T18:17:02Z</time>
      </trkpt>
      <trkpt lat="44.80536" lon="6.70683">
        <ele>1966</ele>
        <time>2020-04-10T18:18:34Z</time>
      </trkpt>
      <trkpt lat="44.80573" lon="6.70651">
        <ele>1977</ele>
        <time>2020-04-10T18:19:09Z</time>
      </trkpt>
      <trkpt lat="44.80592" lon="6.70533">
        <ele>1993</ele>
        <time>2020-04-10T18:20:18Z</time>
      </trkpt>
      <trkpt lat="44.80672" lon="6.70346">
        <ele>2047</ele>
        <time>2020-04-10T18:22:22Z</time>
      </trkpt>
      <trkpt lat="44.80594" lon="6.70213">
        <ele>2055</ele>
        <time>2020-04-10T18:24:00Z</time>
      </trkpt>
      <trkpt lat="44.80576" lon="6.69973">
        <ele>2087</ele>
        <time>2020-04-10T18:26:17Z</time>
      </trkpt>
      <trkpt lat="44.80617" lon="6.70097">
        <ele>2083</ele>
        <time>2020-04-10T18:27:35Z</time>
      </trkpt>
      <trkpt lat="44.80608" lon="6.69969">
        <ele>2108</ele>
        <time>2020-04-10T18:28:48Z</time>
      </trkpt>
      <trkpt lat="44.80641" lon="6.70033">
        <ele>2104</ele>
        <time>2020-04-10T18:29:33Z</time>
      </trkpt>
      <trkpt lat="44.80606" lon="6.69887">
        <ele>2187</ele>
        <time>2020-04-10T18:31:00Z</time>
      </trkpt>
      <trkpt lat="44.80536" lon="6.69851">
        <ele>2179</ele>
        <time>2020-04-10T18:32:00Z</time>
      </trkpt>
      <trkpt lat="44.80462" lon="6.69769">
        <ele>2164</ele>
        <time>2020-04-10T18:33:15Z</time>
      </trkpt>
      <trkpt lat="44.80427" lon="6.69765">
        <ele>2140</ele>
        <time>2020-04-10T18:33:44Z</time>
      </trkpt>
      <trkpt lat="44.80407" lon="6.69735">
        <ele>2143</ele>
        <time>2020-04-10T18:34:07Z</time>
      </trkpt>
      <trkpt lat="44.80398" lon="6.69615">
        <ele>2149</ele>
        <time>2020-04-10T18:35:15Z</time>
      </trkpt>
      <trkpt lat="44.80378" lon="6.69529">
        <ele>2147</ele>
        <time>2020-04-10T18:36:07Z</time>
      </trkpt>
      <trkpt lat="44.80305" lon="6.69505">
        <ele>2138</ele>
        <time>2020-04-10T18:37:07Z</time>
      </trkpt>
      <trkpt lat="44.80224" lon="6.69482">
        <ele>2143</ele>
        <time>2020-04-10T18:38:13Z</time>
      </trkpt>
      <trkpt lat="44.80117" lon="6.69497">
        <ele>2155</ele>
        <time>2020-04-10T18:39:39Z</time>
      </trkpt>
      <trkpt lat="44.80081" lon="6.69449">
        <ele>2166</ele>
        <time>2020-04-10T18:40:19Z</time>
      </trkpt>
      <trkpt lat="44.80079" lon="6.69443">
        <ele>2167</ele>
        <time>2020-04-10T18:40:23Z</time>
      </trkpt>
      <trkpt lat="44.80026" lon="6.69458">
        <ele>2169</ele>
        <time>2020-04-10T18:41:06Z</time>
      </trkpt>
      <trkpt lat="44.80006" lon="6.69426">
        <ele>2169</ele>
        <time>2020-04-10T18:41:30Z</time>
      </trkpt>
      <trkpt lat="44.80043" lon="6.69402">
        <ele>2173</ele>
        <time>2020-04-10T18:42:03Z</time>
      </trkpt>
      <trkpt lat="44.79976" lon="6.69312">
        <ele>2190</ele>
        <time>2020-04-10T18:43:17Z</time>
      </trkpt>
      <trkpt lat="44.79979" lon="6.69286">
        <ele>2197</ele>
        <time>2020-04-10T18:43:32Z</time>
      </trkpt>
      <trkpt lat="44.79948" lon="6.69284">
        <ele>2200</ele>
        <time>2020-04-10T18:43:57Z</time>
      </trkpt>
      <trkpt lat="44.7997" lon="6.6925">
        <ele>2207</ele>
        <time>2020-04-10T18:44:23Z</time>
      </trkpt>
      <trkpt lat="44.79927" lon="6.69168">
        <ele>2222</ele>
        <time>2020-04-10T18:45:21Z</time>
      </trkpt>
      <trkpt lat="44.79854" lon="6.69093">
        <ele>2225</ele>
        <time>2020-04-10T18:46:33Z</time>
      </trkpt>
      <trkpt lat="44.79786" lon="6.69012">
        <ele>2225</ele>
        <time>2020-04-10T18:47:44Z</time>
      </trkpt>
      <trkpt lat="44.79674" lon="6.68954">
        <ele>2235</ele>
        <time>2020-04-10T18:49:20Z</time>
      </trkpt>
      <trkpt lat="44.7969" lon="6.68904">
        <ele>2236</ele>
        <time>2020-04-10T18:49:51Z</time>
      </trkpt>
      <trkpt lat="44.79648" lon="6.68829">
        <ele>2252</ele>
        <time>2020-04-10T18:50:45Z</time>
      </trkpt>
      <trkpt lat="44.79586" lon="6.68799">
        <ele>2273</ele>
        <time>2020-04-10T18:51:38Z</time>
      </trkpt>
      <trkpt lat="44.79455" lon="6.68743">
        <ele>2297</ele>
        <time>2020-04-10T18:53:27Z</time>
      </trkpt>
      <trkpt lat="44.7942" lon="6.68696">
        <ele>2306</ele>
        <time>2020-04-10T18:54:06Z</time>
      </trkpt>
      <trkpt lat="44.79393" lon="6.6864">
        <ele>2311</ele>
        <time>2020-04-10T18:54:45Z</time>
      </trkpt>
      <trkpt lat="44.79356" lon="6.68589">
        <ele>2310</ele>
        <time>2020-04-10T18:55:26Z</time>
      </trkpt>
      <trkpt lat="44.79327" lon="6.68535">
        <ele>2314</ele>
        <time>2020-04-10T18:56:05Z</time>
      </trkpt>
      <trkpt lat="44.79317" lon="6.68447">
        <ele>2322</ele>
        <time>2020-04-10T18:56:55Z</time>
      </trkpt>
      <trkpt lat="44.7932" lon="6.6834">
        <ele>2340</ele>
        <time>2020-04-10T18:57:56Z</time>
      </trkpt>
      <trkpt lat="44.79301" lon="6.68261">
        <ele>2360</ele>
        <time>2020-04-10T18:58:43Z</time>
      </trkpt>
      <trkpt lat="44.79298" lon="6.68205">
        <ele>2367</ele>
        <time>2020-04-10T18:59:15Z</time>
      </trkpt>
      <trkpt lat="44.79282" lon="6.6814">
        <ele>2371</ele>
        <time>2020-04-10T18:59:54Z</time>
      </trkpt>
      <trkpt lat="44.79274" lon="6.68085">
        <ele>2371</ele>
        <time>2020-04-10T19:00:26Z</time>
      </trkpt>
      <trkpt lat="44.79211" lon="6.67932">
        <ele>2374</ele>
        <time>2020-04-10T19:02:07Z</time>
      </trkpt>
      <trkpt lat="44.79196" lon="6.67698">
        <ele>2375</ele>
        <time>2020-04-10T19:04:20Z</time>
      </trkpt>
      <trkpt lat="44.79179" lon="6.676">
        <ele>2379</ele>
        <time>2020-04-10T19:05:18Z</time>
      </trkpt>
      <trkpt lat="44.7917" lon="6.67516">
        <ele>2382</ele>
        <time>2020-04-10T19:06:06Z</time>
      </trkpt>
      <trkpt lat="44.79183" lon="6.67364">
        <ele>2394</ele>
        <time>2020-04-10T19:07:33Z</time>
      </trkpt>
      <trkpt lat="44.79186" lon="6.67248">
        <ele>2417</ele>
        <time>2020-04-10T19:08:39Z</time>
      </trkpt>
      <trkpt lat="44.79172" lon="6.67138">
        <ele>2447</ele>
        <time>2020-04-10T19:09:42Z</time>
      </trkpt>
      <trkpt lat="44.79106" lon="6.67063">
        <ele>2456</ele>
        <time>2020-04-10T19:10:50Z</time>
      </trkpt>
      <trkpt lat="44.79059" lon="6.6704">
        <ele>2460</ele>
        <time>2020-04-10T19:11:30Z</time>
      </trkpt>
      <trkpt lat="44.79027" lon="6.66997">
        <ele>2469</ele>
        <time>2020-04-10T19:12:05Z</time>
      </trkpt>
      <trkpt lat="44.78886" lon="6.67027">
        <ele>2483</ele>
        <time>2020-04-10T19:14:00Z</time>
      </trkpt>
      <trkpt lat="44.78773" lon="6.67059">
        <ele>2486</ele>
        <time>2020-04-10T19:15:32Z</time>
      </trkpt>
      <trkpt lat="44.78712" lon="6.67108">
        <ele>2488</ele>
        <time>2020-04-10T19:16:28Z</time>
      </trkpt>
      <trkpt lat="44.78683" lon="6.67145">
        <ele>2490</ele>
        <time>2020-04-10T19:16:59Z</time>
      </trkpt>
      <trkpt lat="44.78645" lon="6.67143">
        <ele>2491</ele>
        <time>2020-04-10T19:17:30Z</time>
      </trkpt>
      <trkpt lat="44.78589" lon="6.67196">
        <ele>2492</ele>
        <time>2020-04-10T19:18:24Z</time>
      </trkpt>
      <trkpt lat="44.7856" lon="6.67198">
        <ele>2493</ele>
        <time>2020-04-10T19:18:47Z</time>
      </trkpt>
      <trkpt lat="44.78508" lon="6.67252">
        <ele>2496</ele>
        <time>2020-04-10T19:19:39Z</time>
      </trkpt>
      <trkpt lat="44.78357" lon="6.6737">
        <ele>2502</ele>
        <time>2020-04-10T19:21:57Z</time>
      </trkpt>
      <trkpt lat="44.78342" lon="6.67284">
        <ele>2498</ele>
        <time>2020-04-10T19:22:48Z</time>
      </trkpt>
      <trkpt lat="44.78296" lon="6.67252">
        <ele>2491</ele>
        <time>2020-04-10T19:23:29Z</time>
      </trkpt>
      <trkpt lat="44.78249" lon="6.67228">
        <ele>2486</ele>
        <time>2020-04-10T19:24:09Z</time>
      </trkpt>
      <trkpt lat="44.78196" lon="6.67271">
        <ele>2468</ele>
        <time>2020-04-10T19:24:58Z</time>
      </trkpt>
      <trkpt lat="44.7815" lon="6.67276">
        <ele>2457</ele>
        <time>2020-04-10T19:25:35Z</time>
      </trkpt>
      <trkpt lat="44.7808" lon="6.67226">
        <ele>2454</ele>
        <time>2020-04-10T19:26:37Z</time>
      </trkpt>
      <trkpt lat="44.78042" lon="6.67228">
        <ele>2452</ele>
        <time>2020-04-10T19:27:08Z</time>
      </trkpt>
      <trkpt lat="44.77995" lon="6.67205">
        <ele>2449</ele>
        <time>2020-04-10T19:27:48Z</time>
      </trkpt>
      <trkpt lat="44.77981" lon="6.67183">
        <ele>2446</ele>
        <time>2020-04-10T19:28:04Z</time>
      </trkpt>
      <trkpt lat="44.77935" lon="6.67037">
        <ele>2440</ele>
        <time>2020-04-10T19:29:35Z</time>
      </trkpt>
      <trkpt lat="44.77912" lon="6.67001">
        <ele>2436</ele>
        <time>2020-04-10T19:30:03Z</time>
      </trkpt>
      <trkpt lat="44.77883" lon="6.66902">
        <ele>2430</ele>
        <time>2020-04-10T19:31:04Z</time>
      </trkpt>
      <trkpt lat="44.77903" lon="6.66791">
        <ele>2438</ele>
        <time>2020-04-10T19:32:09Z</time>
      </trkpt>
      <trkpt lat="44.77891" lon="6.66748">
        <ele>2429</ele>
        <time>2020-04-10T19:32:35Z</time>
      </trkpt>
      <trkpt lat="44.77887" lon="6.66698">
        <ele>2426</ele>
        <time>2020-04-10T19:33:04Z</time>
      </trkpt>
      <trkpt lat="44.77879" lon="6.66653">
        <ele>2422</ele>
        <time>2020-04-10T19:33:30Z</time>
      </trkpt>
      <trkpt lat="44.77876" lon="6.66602">
        <ele>2422</ele>
        <time>2020-04-10T19:33:59Z</time>
      </trkpt>
      <trkpt lat="44.77823" lon="6.66744">
        <ele>2389</ele>
        <time>2020-04-10T19:35:30Z</time>
      </trkpt>
      <trkpt lat="44.77751" lon="6.66713">
        <ele>2354</ele>
        <time>2020-04-10T19:36:30Z</time>
      </trkpt>
      <trkpt lat="44.77768" lon="6.66793">
        <ele>2361</ele>
        <time>2020-04-10T19:37:18Z</time>
      </trkpt>
      <trkpt lat="44.77745" lon="6.66814">
        <ele>2348</ele>
        <time>2020-04-10T19:37:40Z</time>
      </trkpt>
      <trkpt lat="44.7773" lon="6.66778">
        <ele>2342</ele>
        <time>2020-04-10T19:38:04Z</time>
      </trkpt>
      <trkpt lat="44.77699" lon="6.66759">
        <ele>2328</ele>
        <time>2020-04-10T19:38:31Z</time>
      </trkpt>
      <trkpt lat="44.77682" lon="6.66701">
        <ele>2320</ele>
        <time>2020-04-10T19:39:06Z</time>
      </trkpt>
      <trkpt lat="44.77663" lon="6.6672">
        <ele>2311</ele>
        <time>2020-04-10T19:39:25Z</time>
      </trkpt>
      <trkpt lat="44.77664" lon="6.66641">
        <ele>2308</ele>
        <time>2020-04-10T19:40:10Z</time>
      </trkpt>
      <trkpt lat="44.77647" lon="6.666">
        <ele>2295</ele>
        <time>2020-04-10T19:40:37Z</time>
      </trkpt>
      <trkpt lat="44.77646" lon="6.66563">
        <ele>2291</ele>
        <time>2020-04-10T19:40:58Z</time>
      </trkpt>
      <trkpt lat="44.77612" lon="6.66585">
        <ele>2277</ele>
        <time>2020-04-10T19:41:28Z</time>
      </trkpt>
      <trkpt lat="44.77602" lon="6.66568">
        <ele>2269</ele>
        <time>2020-04-10T19:41:40Z</time>
      </trkpt>
      <trkpt lat="44.77586" lon="6.66557">
        <ele>2260</ele>
        <time>2020-04-10T19:41:55Z</time>
      </trkpt>
      <trkpt lat="44.77611" lon="6.66501">
        <ele>2265</ele>
        <time>2020-04-10T19:42:32Z</time>
      </trkpt>
      <trkpt lat="44.77588" lon="6.66456">
        <ele>2252</ele>
        <time>2020-04-10T19:43:04Z</time>
      </trkpt>
      <trkpt lat="44.77527" lon="6.66404">
        <ele>2228</ele>
        <time>2020-04-10T19:44:01Z</time>
      </trkpt>
      <trkpt lat="44.77478" lon="6.6631">
        <ele>2216</ele>
        <time>2020-04-10T19:45:07Z</time>
      </trkpt>
      <trkpt lat="44.77455" lon="6.66286">
        <ele>2210</ele>
        <time>2020-04-10T19:45:30Z</time>
      </trkpt>
      <trkpt lat="44.77452" lon="6.66231">
        <ele>2207</ele>
        <time>2020-04-10T19:46:01Z</time>
      </trkpt>
      <trkpt lat="44.7744" lon="6.6616">
        <ele>2201</ele>
        <time>2020-04-10T19:46:43Z</time>
      </trkpt>
      <trkpt lat="44.77401" lon="6.66108">
        <ele>2190</ele>
        <time>2020-04-10T19:47:26Z</time>
      </trkpt>
      <trkpt lat="44.77343" lon="6.65898">
        <ele>2168</ele>
        <time>2020-04-10T19:49:34Z</time>
      </trkpt>
      <trkpt lat="44.77321" lon="6.65806">
        <ele>2149</ele>
        <time>2020-04-10T19:50:29Z</time>
      </trkpt>
      <trkpt lat="44.77245" lon="6.65782">
        <ele>2137</ele>
        <time>2020-04-10T19:51:32Z</time>
      </trkpt>
      <trkpt lat="44.77251" lon="6.65756">
        <ele>2124</ele>
        <time>2020-04-10T19:51:47Z</time>
      </trkpt>
      <trkpt lat="44.77238" lon="6.65748">
        <ele>2118</ele>
        <time>2020-04-10T19:51:58Z</time>
      </trkpt>
      <trkpt lat="44.77239" lon="6.65731">
        <ele>2109</ele>
        <time>2020-04-10T19:52:08Z</time>
      </trkpt>
      <trkpt lat="44.77175" lon="6.65739">
        <ele>2105</ele>
        <time>2020-04-10T19:53:00Z</time>
      </trkpt>
      <trkpt lat="44.77134" lon="6.65731">
        <ele>2100</ele>
        <time>2020-04-10T19:53:33Z</time>
      </trkpt>
      <trkpt lat="44.77117" lon="6.65703">
        <ele>2084</ele>
        <time>2020-04-10T19:53:54Z</time>
      </trkpt>
      <trkpt lat="44.77155" lon="6.65684">
        <ele>2071</ele>
        <time>2020-04-10T19:54:26Z</time>
      </trkpt>
      <trkpt lat="44.77096" lon="6.65598">
        <ele>2033</ele>
        <time>2020-04-10T19:55:34Z</time>
      </trkpt>
      <trkpt lat="44.77134" lon="6.65602">
        <ele>2033</ele>
        <time>2020-04-10T19:56:04Z</time>
      </trkpt>
      <trkpt lat="44.77125" lon="6.65563">
        <ele>2018</ele>
        <time>2020-04-10T19:56:28Z</time>
      </trkpt>
      <trkpt lat="44.7719" lon="6.65563">
        <ele>2020</ele>
        <time>2020-04-10T19:57:20Z</time>
      </trkpt>
      <trkpt lat="44.77101" lon="6.65375">
        <ele>1970</ele>
        <time>2020-04-10T19:59:28Z</time>
      </trkpt>
      <trkpt lat="44.77093" lon="6.65291">
        <ele>1958</ele>
        <time>2020-04-10T20:00:16Z</time>
      </trkpt>
      <trkpt lat="44.77101" lon="6.65173">
        <ele>1942</ele>
        <time>2020-04-10T20:01:24Z</time>
      </trkpt>
      <trkpt lat="44.77107" lon="6.65134">
        <ele>1938</ele>
        <time>2020-04-10T20:01:47Z</time>
      </trkpt>
      <trkpt lat="44.77096" lon="6.65104">
        <ele>1939</ele>
        <time>2020-04-10T20:02:06Z</time>
      </trkpt>
      <trkpt lat="44.77122" lon="6.65014">
        <ele>1925</ele>
        <time>2020-04-10T20:03:01Z</time>
      </trkpt>
      <trkpt lat="44.77085" lon="6.64945">
        <ele>1926</ele>
        <time>2020-04-10T20:03:50Z</time>
      </trkpt>
      <trkpt lat="44.77079" lon="6.6486">
        <ele>1913</ele>
        <time>2020-04-10T20:04:39Z</time>
      </trkpt>
      <trkpt lat="44.77062" lon="6.64752">
        <ele>1896</ele>
        <time>2020-04-10T20:05:42Z</time>
      </trkpt>
      <trkpt lat="44.77018" lon="6.64587">
        <ele>1885</ele>
        <time>2020-04-10T20:07:22Z</time>
      </trkpt>
      <trkpt lat="44.76982" lon="6.64497">
        <ele>1874</ele>
        <time>2020-04-10T20:08:20Z</time>
      </trkpt>
      <trkpt lat="44.76939" lon="6.64413">
        <ele>1868</ele>
        <time>2020-04-10T20:09:19Z</time>
      </trkpt>
      <trkpt lat="44.76896" lon="6.64304">
        <ele>1863</ele>
        <time>2020-04-10T20:10:30Z</time>
      </trkpt>
      <trkpt lat="44.76828" lon="6.64171">
        <ele>1853</ele>
        <time>2020-04-10T20:12:03Z</time>
      </trkpt>
      <trkpt lat="44.76794" lon="6.64117">
        <ele>1849</ele>
        <time>2020-04-10T20:12:44Z</time>
      </trkpt>
      <trkpt lat="44.76744" lon="6.64023">
        <ele>1839</ele>
        <time>2020-04-10T20:13:51Z</time>
      </trkpt>
      <trkpt lat="44.76665" lon="6.63849">
        <ele>1829</ele>
        <time>2020-04-10T20:15:49Z</time>
      </trkpt>
      <trkpt lat="44.76535" lon="6.63649">
        <ele>1822</ele>
        <time>2020-04-10T20:18:23Z</time>
      </trkpt>
      <trkpt lat="44.76455" lon="6.63533">
        <ele>1819</ele>
        <time>2020-04-10T20:19:55Z</time>
      </trkpt>
      <trkpt lat="44.76409" lon="6.63426">
        <ele>1811</ele>
        <time>2020-04-10T20:21:06Z</time>
      </trkpt>
      <trkpt lat="44.76392" lon="6.63353">
        <ele>1809</ele>
        <time>2020-04-10T20:21:49Z</time>
      </trkpt>
      <trkpt lat="44.76333" lon="6.63246">
        <ele>1801</ele>
        <time>2020-04-10T20:23:06Z</time>
      </trkpt>
      <trkpt lat="44.76278" lon="6.63182">
        <ele>1801</ele>
        <time>2020-04-10T20:24:04Z</time>
      </trkpt>
      <trkpt lat="44.76215" lon="6.63059">
        <ele>1795</ele>
        <time>2020-04-10T20:25:30Z</time>
      </trkpt>
      <trkpt lat="44.76145" lon="6.62943">
        <ele>1796</ele>
        <time>2020-04-10T20:26:56Z</time>
      </trkpt>
      <trkpt lat="44.761" lon="6.62858">
        <ele>1796</ele>
        <time>2020-04-10T20:27:57Z</time>
      </trkpt>
      <trkpt lat="44.76065" lon="6.62765">
        <ele>1795</ele>
        <time>2020-04-10T20:28:56Z</time>
      </trkpt>
      <trkpt lat="44.76023" lon="6.62692">
        <ele>1803</ele>
        <time>2020-04-10T20:29:50Z</time>
      </trkpt>
      <trkpt lat="44.76055" lon="6.62482">
        <ele>1793</ele>
        <time>2020-04-10T20:31:52Z</time>
      </trkpt>
      <trkpt lat="44.76034" lon="6.6239">
        <ele>1799</ele>
        <time>2020-04-10T20:32:47Z</time>
      </trkpt>
      <trkpt lat="44.76008" lon="6.62345">
        <ele>1801</ele>
        <time>2020-04-10T20:33:20Z</time>
      </trkpt>
      <trkpt lat="44.75981" lon="6.62188">
        <ele>1794</ele>
        <time>2020-04-10T20:34:52Z</time>
      </trkpt>
      <trkpt lat="44.75874" lon="6.62057">
        <ele>1799</ele>
        <time>2020-04-10T20:36:45Z</time>
      </trkpt>
      <trkpt lat="44.75828" lon="6.62031">
        <ele>1805</ele>
        <time>2020-04-10T20:37:25Z</time>
      </trkpt>
      <trkpt lat="44.75777" lon="6.62034">
        <ele>1812</ele>
        <time>2020-04-10T20:38:06Z</time>
      </trkpt>
      <trkpt lat="44.75749" lon="6.62016">
        <ele>1814</ele>
        <time>2020-04-10T20:38:30Z</time>
      </trkpt>
      <trkpt lat="44.75729" lon="6.61973">
        <ele>1813</ele>
        <time>2020-04-10T20:39:00Z</time>
      </trkpt>
      <trkpt lat="44.75726" lon="6.61946">
        <ele>1810</ele>
        <time>2020-04-10T20:39:15Z</time>
      </trkpt>
      <trkpt lat="44.7569" lon="6.61909">
        <ele>1814</ele>
        <time>2020-04-10T20:39:51Z</time>
      </trkpt>
      <trkpt lat="44.75621" lon="6.61815">
        <ele>1812</ele>
        <time>2020-04-10T20:41:08Z</time>
      </trkpt>
      <trkpt lat="44.75594" lon="6.6175">
        <ele>1803</ele>
        <time>2020-04-10T20:41:51Z</time>
      </trkpt>
      <trkpt lat="44.75528" lon="6.61705">
        <ele>1814</ele>
        <time>2020-04-10T20:42:49Z</time>
      </trkpt>
      <trkpt lat="44.7551" lon="6.6166">
        <ele>1807</ele>
        <time>2020-04-10T20:43:19Z</time>
      </trkpt>
      <trkpt lat="44.75434" lon="6.61634">
        <ele>1832</ele>
        <time>2020-04-10T20:44:21Z</time>
      </trkpt>
      <trkpt lat="44.75419" lon="6.61589">
        <ele>1826</ele>
        <time>2020-04-10T20:44:50Z</time>
      </trkpt>
      <trkpt lat="44.7538" lon="6.61534">
        <ele>1844</ele>
        <time>2020-04-10T20:45:34Z</time>
      </trkpt>
      <trkpt lat="44.75361" lon="6.61465">
        <ele>1846</ele>
        <time>2020-04-10T20:46:16Z</time>
      </trkpt>
      <trkpt lat="44.7538" lon="6.61398">
        <ele>1817</ele>
        <time>2020-04-10T20:46:57Z</time>
      </trkpt>
      <trkpt lat="44.75367" lon="6.61355">
        <ele>1823</ele>
        <time>2020-04-10T20:47:23Z</time>
      </trkpt>
      <trkpt lat="44.75309" lon="6.61291">
        <ele>1846</ele>
        <time>2020-04-10T20:48:22Z</time>
      </trkpt>
      <trkpt lat="44.75297" lon="6.6124">
        <ele>1833</ele>
        <time>2020-04-10T20:48:53Z</time>
      </trkpt>
      <trkpt lat="44.75271" lon="6.61227">
        <ele>1839</ele>
        <time>2020-04-10T20:49:15Z</time>
      </trkpt>
      <trkpt lat="44.7522" lon="6.6125">
        <ele>1862</ele>
        <time>2020-04-10T20:49:58Z</time>
      </trkpt>
      <trkpt lat="44.75123" lon="6.61184">
        <ele>1855</ele>
        <time>2020-04-10T20:51:24Z</time>
      </trkpt>
      <trkpt lat="44.75077" lon="6.61167">
        <ele>1857</ele>
        <time>2020-04-10T20:52:02Z</time>
      </trkpt>
      <trkpt lat="44.75012" lon="6.61104">
        <ele>1847</ele>
        <time>2020-04-10T20:53:05Z</time>
      </trkpt>
      <trkpt lat="44.74937" lon="6.61036">
        <ele>1844</ele>
        <time>2020-04-10T20:54:17Z</time>
      </trkpt>
      <trkpt lat="44.74874" lon="6.61012">
        <ele>1834</ele>
        <time>2020-04-10T20:55:09Z</time>
      </trkpt>
      <trkpt lat="44.74827" lon="6.61016">
        <ele>1830</ele>
        <time>2020-04-10T20:55:47Z</time>
      </trkpt>
      <trkpt lat="44.74778" lon="6.61025">
        <ele>1826</ele>
        <time>2020-04-10T20:56:26Z</time>
      </trkpt>
      <trkpt lat="44.74698" lon="6.61031">
        <ele>1809</ele>
        <time>2020-04-10T20:57:31Z</time>
      </trkpt>
      <trkpt lat="44.74597" lon="6.61092">
        <ele>1801</ele>
        <time>2020-04-10T20:58:59Z</time>
      </trkpt>
      <trkpt lat="44.74548" lon="6.61128">
        <ele>1803</ele>
        <time>2020-04-10T20:59:43Z</time>
      </trkpt>
      <trkpt lat="44.74483" lon="6.61145">
        <ele>1794</ele>
        <time>2020-04-10T21:00:36Z</time>
      </trkpt>
      <trkpt lat="44.74446" lon="6.61158">
        <ele>1791</ele>
        <time>2020-04-10T21:01:06Z</time>
      </trkpt>
      <trkpt lat="44.7441" lon="6.61145">
        <ele>1779</ele>
        <time>2020-04-10T21:01:36Z</time>
      </trkpt>
      <trkpt lat="44.74367" lon="6.6118">
        <ele>1784</ele>
        <time>2020-04-10T21:02:16Z</time>
      </trkpt>
      <trkpt lat="44.74315" lon="6.6118">
        <ele>1774</ele>
        <time>2020-04-10T21:02:57Z</time>
      </trkpt>
      <trkpt lat="44.74269" lon="6.61192">
        <ele>1772</ele>
        <time>2020-04-10T21:03:35Z</time>
      </trkpt>
      <trkpt lat="44.74184" lon="6.61186">
        <ele>1759</ele>
        <time>2020-04-10T21:04:43Z</time>
      </trkpt>
      <trkpt lat="44.74068" lon="6.61212">
        <ele>1749</ele>
        <time>2020-04-10T21:06:17Z</time>
      </trkpt>
      <trkpt lat="44.74044" lon="6.6119">
        <ele>1742</ele>
        <time>2020-04-10T21:06:40Z</time>
      </trkpt>
      <trkpt lat="44.74091" lon="6.61165">
        <ele>1745</ele>
        <time>2020-04-10T21:07:20Z</time>
      </trkpt>
      <trkpt lat="44.7414" lon="6.61126">
        <ele>1739</ele>
        <time>2020-04-10T21:08:05Z</time>
      </trkpt>
      <trkpt lat="44.74231" lon="6.61122">
        <ele>1740</ele>
        <time>2020-04-10T21:09:18Z</time>
      </trkpt>
      <trkpt lat="44.74271" lon="6.61027">
        <ele>1726</ele>
        <time>2020-04-10T21:10:21Z</time>
      </trkpt>
      <trkpt lat="44.7426" lon="6.60937">
        <ele>1717</ele>
        <time>2020-04-10T21:11:13Z</time>
      </trkpt>
      <trkpt lat="44.74254" lon="6.60911">
        <ele>1716</ele>
        <time>2020-04-10T21:11:28Z</time>
      </trkpt>
      <trkpt lat="44.7419" lon="6.60883">
        <ele>1716</ele>
        <time>2020-04-10T21:12:22Z</time>
      </trkpt>
      <trkpt lat="44.74141" lon="6.60832">
        <ele>1712</ele>
        <time>2020-04-10T21:13:11Z</time>
      </trkpt>
      <trkpt lat="44.74079" lon="6.60802">
        <ele>1713</ele>
        <time>2020-04-10T21:14:03Z</time>
      </trkpt>
      <trkpt lat="44.74047" lon="6.60763">
        <ele>1712</ele>
        <time>2020-04-10T21:14:37Z</time>
      </trkpt>
      <trkpt lat="44.73992" lon="6.60763">
        <ele>1712</ele>
        <time>2020-04-10T21:15:21Z</time>
      </trkpt>
      <trkpt lat="44.73949" lon="6.60791">
        <ele>1708</ele>
        <time>2020-04-10T21:15:59Z</time>
      </trkpt>
      <trkpt lat="44.73844" lon="6.60849">
        <ele>1690</ele>
        <time>2020-04-10T21:17:30Z</time>
      </trkpt>
      <trkpt lat="44.73794" lon="6.60907">
        <ele>1674</ele>
        <time>2020-04-10T21:18:21Z</time>
      </trkpt>
      <trkpt lat="44.7384" lon="6.61173">
        <ele>1655</ele>
        <time>2020-04-10T21:20:57Z</time>
      </trkpt>
      <trkpt lat="44.73853" lon="6.61268">
        <ele>1642</ele>
        <time>2020-04-10T21:21:52Z</time>
      </trkpt>
      <trkpt lat="44.73875" lon="6.61321">
        <ele>1642</ele>
        <time>2020-04-10T21:22:27Z</time>
      </trkpt>
      <trkpt lat="44.73875" lon="6.61334">
        <ele>1638</ele>
        <time>2020-04-10T21:22:35Z</time>
      </trkpt>
      <trkpt lat="44.73891" lon="6.61383">
        <ele>1641</ele>
        <time>2020-04-10T21:23:05Z</time>
      </trkpt>
      <trkpt lat="44.73895" lon="6.61426">
        <ele>1637</ele>
        <time>2020-04-10T21:23:30Z</time>
      </trkpt>
      <trkpt lat="44.73917" lon="6.61512">
        <ele>1636</ele>
        <time>2020-04-10T21:24:22Z</time>
      </trkpt>
      <trkpt lat="44.7396" lon="6.61568">
        <ele>1644</ele>
        <time>2020-04-10T21:25:09Z</time>
      </trkpt>
      <trkpt lat="44.73962" lon="6.61592">
        <ele>1638</ele>
        <time>2020-04-10T21:25:22Z</time>
      </trkpt>
      <trkpt lat="44.74006" lon="6.61641">
        <ele>1652</ele>
        <time>2020-04-10T21:26:07Z</time>
      </trkpt>
      <trkpt lat="44.73998" lon="6.61703">
        <ele>1642</ele>
        <time>2020-04-10T21:26:43Z</time>
      </trkpt>
      <trkpt lat="44.7394" lon="6.61855">
        <ele>1632</ele>
        <time>2020-04-10T21:28:21Z</time>
      </trkpt>
      <trkpt lat="44.7393" lon="6.61961">
        <ele>1632</ele>
        <time>2020-04-10T21:29:22Z</time>
      </trkpt>
      <trkpt lat="44.73914" lon="6.62057">
        <ele>1626</ele>
        <time>2020-04-10T21:30:18Z</time>
      </trkpt>
      <trkpt lat="44.73899" lon="6.62089">
        <ele>1620</ele>
        <time>2020-04-10T21:30:40Z</time>
      </trkpt>
      <trkpt lat="44.73893" lon="6.6216">
        <ele>1622</ele>
        <time>2020-04-10T21:31:21Z</time>
      </trkpt>
      <trkpt lat="44.73882" lon="6.62222">
        <ele>1620</ele>
        <time>2020-04-10T21:31:57Z</time>
      </trkpt>
      <trkpt lat="44.73901" lon="6.6234">
        <ele>1622</ele>
        <time>2020-04-10T21:33:06Z</time>
      </trkpt>
      <trkpt lat="44.7392" lon="6.6239">
        <ele>1622</ele>
        <time>2020-04-10T21:33:38Z</time>
      </trkpt>
      <trkpt lat="44.73972" lon="6.62443">
        <ele>1638</ele>
        <time>2020-04-10T21:34:30Z</time>
      </trkpt>
      <trkpt lat="44.7396" lon="6.62491">
        <ele>1632</ele>
        <time>2020-04-10T21:34:58Z</time>
      </trkpt>
      <trkpt lat="44.73951" lon="6.62544">
        <ele>1628</ele>
        <time>2020-04-10T21:35:29Z</time>
      </trkpt>
      <trkpt lat="44.73952" lon="6.62611">
        <ele>1629</ele>
        <time>2020-04-10T21:36:08Z</time>
      </trkpt>
      <trkpt lat="44.73934" lon="6.62667">
        <ele>1620</ele>
        <time>2020-04-10T21:36:43Z</time>
      </trkpt>
      <trkpt lat="44.73913" lon="6.62611">
        <ele>1609</ele>
        <time>2020-04-10T21:37:19Z</time>
      </trkpt>
      <trkpt lat="44.73888" lon="6.62516">
        <ele>1602</ele>
        <time>2020-04-10T21:38:16Z</time>
      </trkpt>
      <trkpt lat="44.73896" lon="6.62467">
        <ele>1606</ele>
        <time>2020-04-10T21:38:45Z</time>
      </trkpt>
      <trkpt lat="44.73858" lon="6.62394">
        <ele>1596</ele>
        <time>2020-04-10T21:39:36Z</time>
      </trkpt>
      <trkpt lat="44.73791" lon="6.62255">
        <ele>1575</ele>
        <time>2020-04-10T21:41:12Z</time>
      </trkpt>
      <trkpt lat="44.73792" lon="6.62192">
        <ele>1573</ele>
        <time>2020-04-10T21:41:48Z</time>
      </trkpt>
      <trkpt lat="44.73811" lon="6.62122">
        <ele>1579</ele>
        <time>2020-04-10T21:42:30Z</time>
      </trkpt>
      <trkpt lat="44.73756" lon="6.62235">
        <ele>1557</ele>
        <time>2020-04-10T21:43:48Z</time>
      </trkpt>
      <trkpt lat="44.73762" lon="6.62319">
        <ele>1562</ele>
        <time>2020-04-10T21:44:36Z</time>
      </trkpt>
      <trkpt lat="44.73718" lon="6.62379">
        <ele>1564</ele>
        <time>2020-04-10T21:45:25Z</time>
      </trkpt>
      <trkpt lat="44.73718" lon="6.62334">
        <ele>1560</ele>
        <time>2020-04-10T21:45:51Z</time>
      </trkpt>
      <trkpt lat="44.73724" lon="6.62274">
        <ele>1555</ele>
        <time>2020-04-10T21:46:25Z</time>
      </trkpt>
      <trkpt lat="44.73695" lon="6.62261">
        <ele>1553</ele>
        <time>2020-04-10T21:46:50Z</time>
      </trkpt>
      <trkpt lat="44.73658" lon="6.62188">
        <ele>1546</ele>
        <time>2020-04-10T21:47:41Z</time>
      </trkpt>
      <trkpt lat="44.73608" lon="6.62066">
        <ele>1551</ele>
        <time>2020-04-10T21:49:01Z</time>
      </trkpt>
      <trkpt lat="44.73632" lon="6.61995">
        <ele>1534</ele>
        <time>2020-04-10T21:49:45Z</time>
      </trkpt>
      <trkpt lat="44.73606" lon="6.61941">
        <ele>1536</ele>
        <time>2020-04-10T21:50:23Z</time>
      </trkpt>
      <trkpt lat="44.73571" lon="6.6181">
        <ele>1530</ele>
        <time>2020-04-10T21:51:42Z</time>
      </trkpt>
      <trkpt lat="44.73524" lon="6.61742">
        <ele>1540</ele>
        <time>2020-04-10T21:52:36Z</time>
      </trkpt>
      <trkpt lat="44.73463" lon="6.61613">
        <ele>1531</ele>
        <time>2020-04-10T21:54:04Z</time>
      </trkpt>
      <trkpt lat="44.73434" lon="6.61544">
        <ele>1526</ele>
        <time>2020-04-10T21:54:50Z</time>
      </trkpt>
      <trkpt lat="44.7339" lon="6.61542">
        <ele>1533</ele>
        <time>2020-04-10T21:55:25Z</time>
      </trkpt>
      <trkpt lat="44.73347" lon="6.61529">
        <ele>1531</ele>
        <time>2020-04-10T21:56:00Z</time>
      </trkpt>
      <trkpt lat="44.73274" lon="6.61546">
        <ele>1528</ele>
        <time>2020-04-10T21:57:00Z</time>
      </trkpt>
      <trkpt lat="44.73216" lon="6.61542">
        <ele>1518</ele>
        <time>2020-04-10T21:57:46Z</time>
      </trkpt>
      <trkpt lat="44.73142" lon="6.61566">
        <ele>1509</ele>
        <time>2020-04-10T21:58:47Z</time>
      </trkpt>
      <trkpt lat="44.73097" lon="6.61628">
        <ele>1522</ele>
        <time>2020-04-10T21:59:37Z</time>
      </trkpt>
      <trkpt lat="44.73068" lon="6.61617">
        <ele>1514</ele>
        <time>2020-04-10T22:00:01Z</time>
      </trkpt>
      <trkpt lat="44.73042" lon="6.61622">
        <ele>1515</ele>
        <time>2020-04-10T22:00:22Z</time>
      </trkpt>
      <trkpt lat="44.73012" lon="6.61585">
        <ele>1503</ele>
        <time>2020-04-10T22:00:54Z</time>
      </trkpt>
      <trkpt lat="44.72888" lon="6.61613">
        <ele>1502</ele>
        <time>2020-04-10T22:02:35Z</time>
      </trkpt>
      <trkpt lat="44.72835" lon="6.61587">
        <ele>1489</ele>
        <time>2020-04-10T22:03:20Z</time>
      </trkpt>
      <trkpt lat="44.72786" lon="6.61557">
        <ele>1477</ele>
        <time>2020-04-10T22:04:03Z</time>
      </trkpt>
      <trkpt lat="44.72748" lon="6.61589">
        <ele>1482</ele>
        <time>2020-04-10T22:04:38Z</time>
      </trkpt>
      <trkpt lat="44.72721" lon="6.61583">
        <ele>1484</ele>
        <time>2020-04-10T22:05:00Z</time>
      </trkpt>
      <trkpt lat="44.72709" lon="6.61529">
        <ele>1470</ele>
        <time>2020-04-10T22:05:32Z</time>
      </trkpt>
      <trkpt lat="44.72672" lon="6.61508">
        <ele>1468</ele>
        <time>2020-04-10T22:06:04Z</time>
      </trkpt>
      <trkpt lat="44.72629" lon="6.61516">
        <ele>1482</ele>
        <time>2020-04-10T22:06:39Z</time>
      </trkpt>
      <trkpt lat="44.72606" lon="6.61448">
        <ele>1468</ele>
        <time>2020-04-10T22:07:22Z</time>
      </trkpt>
      <trkpt lat="44.72565" lon="6.6145">
        <ele>1487</ele>
        <time>2020-04-10T22:07:54Z</time>
      </trkpt>
      <trkpt lat="44.72553" lon="6.61388">
        <ele>1483</ele>
        <time>2020-04-10T22:08:31Z</time>
      </trkpt>
      <trkpt lat="44.72536" lon="6.61203">
        <ele>1463</ele>
        <time>2020-04-10T22:10:17Z</time>
      </trkpt>
      <trkpt lat="44.72486" lon="6.61197">
        <ele>1485</ele>
        <time>2020-04-10T22:10:57Z</time>
      </trkpt>
      <trkpt lat="44.72454" lon="6.6115">
        <ele>1477</ele>
        <time>2020-04-10T22:11:34Z</time>
      </trkpt>
      <trkpt lat="44.72431" lon="6.61167">
        <ele>1481</ele>
        <time>2020-04-10T22:11:55Z</time>
      </trkpt>
      <trkpt lat="44.72408" lon="6.61201">
        <ele>1485</ele>
        <time>2020-04-10T22:12:22Z</time>
      </trkpt>
      <trkpt lat="44.72292" lon="6.61246">
        <ele>1475</ele>
        <time>2020-04-10T22:13:58Z</time>
      </trkpt>
      <trkpt lat="44.72245" lon="6.61259">
        <ele>1473</ele>
        <time>2020-04-10T22:14:37Z</time>
      </trkpt>
      <trkpt lat="44.7221" lon="6.61252">
        <ele>1467</ele>
        <time>2020-04-10T22:15:05Z</time>
      </trkpt>
      <trkpt lat="44.72148" lon="6.61285">
        <ele>1470</ele>
        <time>2020-04-10T22:15:58Z</time>
      </trkpt>
      <trkpt lat="44.72111" lon="6.61263">
        <ele>1460</ele>
        <time>2020-04-10T22:16:30Z</time>
      </trkpt>
      <trkpt lat="44.72065" lon="6.6125">
        <ele>1453</ele>
        <time>2020-04-10T22:17:08Z</time>
      </trkpt>
      <trkpt lat="44.72016" lon="6.61261">
        <ele>1449</ele>
        <time>2020-04-10T22:17:47Z</time>
      </trkpt>
      <trkpt lat="44.71907" lon="6.6142">
        <ele>1427</ele>
        <time>2020-04-10T22:19:53Z</time>
      </trkpt>
      <trkpt lat="44.71896" lon="6.61454">
        <ele>1425</ele>
        <time>2020-04-10T22:20:14Z</time>
      </trkpt>
      <trkpt lat="44.71907" lon="6.61325">
        <ele>1420</ele>
        <time>2020-04-10T22:21:28Z</time>
      </trkpt>
      <trkpt lat="44.71875" lon="6.6139">
        <ele>1413</ele>
        <time>2020-04-10T22:22:13Z</time>
      </trkpt>
      <trkpt lat="44.71881" lon="6.61323">
        <ele>1410</ele>
        <time>2020-04-10T22:22:52Z</time>
      </trkpt>
      <trkpt lat="44.71849" lon="6.61375">
        <ele>1402</ele>
        <time>2020-04-10T22:23:31Z</time>
      </trkpt>
      <trkpt lat="44.71846" lon="6.61452">
        <ele>1407</ele>
        <time>2020-04-10T22:24:15Z</time>
      </trkpt>
      <trkpt lat="44.71814" lon="6.61398">
        <ele>1391</ele>
        <time>2020-04-10T22:24:55Z</time>
      </trkpt>
      <trkpt lat="44.71815" lon="6.61358">
        <ele>1388</ele>
        <time>2020-04-10T22:25:17Z</time>
      </trkpt>
      <trkpt lat="44.71789" lon="6.61443">
        <ele>1389</ele>
        <time>2020-04-10T22:26:10Z</time>
      </trkpt>
      <trkpt lat="44.71708" lon="6.61474">
        <ele>1375</ele>
        <time>2020-04-10T22:27:17Z</time>
      </trkpt>
      <trkpt lat="44.71689" lon="6.61512">
        <ele>1376</ele>
        <time>2020-04-10T22:27:44Z</time>
      </trkpt>
      <trkpt lat="44.71631" lon="6.61501">
        <ele>1366</ele>
        <time>2020-04-10T22:28:31Z</time>
      </trkpt>
      <trkpt lat="44.71623" lon="6.61497">
        <ele>1364</ele>
        <time>2020-04-10T22:28:37Z</time>
      </trkpt>
      <trkpt lat="44.71626" lon="6.61544">
        <ele>1368</ele>
        <time>2020-04-10T22:29:04Z</time>
      </trkpt>
      <trkpt lat="44.71611" lon="6.61607">
        <ele>1371</ele>
        <time>2020-04-10T22:29:42Z</time>
      </trkpt>
      <trkpt lat="44.71615" lon="6.61643">
        <ele>1380</ele>
        <time>2020-04-10T22:30:03Z</time>
      </trkpt>
      <trkpt lat="44.71602" lon="6.61662">
        <ele>1381</ele>
        <time>2020-04-10T22:30:18Z</time>
      </trkpt>
      <trkpt lat="44.71571" lon="6.61656">
        <ele>1372</ele>
        <time>2020-04-10T22:30:43Z</time>
      </trkpt>
      <trkpt lat="44.71535" lon="6.6171">
        <ele>1379</ele>
        <time>2020-04-10T22:31:25Z</time>
      </trkpt>
      <trkpt lat="44.71277" lon="6.61922">
        <ele>1367</ele>
        <time>2020-04-10T22:35:24Z</time>
      </trkpt>
      <trkpt lat="44.71239" lon="6.61963">
        <ele>1367</ele>
        <time>2020-04-10T22:36:03Z</time>
      </trkpt>
      <trkpt lat="44.71208" lon="6.61986">
        <ele>1367</ele>
        <time>2020-04-10T22:36:31Z</time>
      </trkpt>
      <trkpt lat="44.7119" lon="6.61978">
        <ele>1363</ele>
        <time>2020-04-10T22:36:46Z</time>
      </trkpt>
      <trkpt lat="44.71169" lon="6.62029">
        <ele>1369</ele>
        <time>2020-04-10T22:37:19Z</time>
      </trkpt>
      <trkpt lat="44.7114" lon="6.62061">
        <ele>1369</ele>
        <time>2020-04-10T22:37:49Z</time>
      </trkpt>
      <trkpt lat="44.71065" lon="6.62143">
        <ele>1377</ele>
        <time>2020-04-10T22:39:05Z</time>
      </trkpt>
      <trkpt lat="44.71007" lon="6.62173">
        <ele>1374</ele>
        <time>2020-04-10T22:39:54Z</time>
      </trkpt>
      <trkpt lat="44.70981" lon="6.62197">
        <ele>1374</ele>
        <time>2020-04-10T22:40:19Z</time>
      </trkpt>
      <trkpt lat="44.70871" lon="6.6233">
        <ele>1374</ele>
        <time>2020-04-10T22:42:15Z</time>
      </trkpt>
      <trkpt lat="44.70827" lon="6.62364">
        <ele>1371</ele>
        <time>2020-04-10T22:42:56Z</time>
      </trkpt>
      <trkpt lat="44.70754" lon="6.62405">
        <ele>1362</ele>
        <time>2020-04-10T22:43:58Z</time>
      </trkpt>
      <trkpt lat="44.70717" lon="6.62407">
        <ele>1356</ele>
        <time>2020-04-10T22:44:28Z</time>
      </trkpt>
      <trkpt lat="44.70676" lon="6.62454">
        <ele>1360</ele>
        <time>2020-04-10T22:45:10Z</time>
      </trkpt>
      <trkpt lat="44.70568" lon="6.62503">
        <ele>1350</ele>
        <time>2020-04-10T22:46:41Z</time>
      </trkpt>
      <trkpt lat="44.70441" lon="6.62572">
        <ele>1338</ele>
        <time>2020-04-10T22:48:30Z</time>
      </trkpt>
      <trkpt lat="44.70522" lon="6.62458">
        <ele>1324</ele>
        <time>2020-04-10T22:50:02Z</time>
      </trkpt>
      <trkpt lat="44.7063" lon="6.62328">
        <ele>1315</ele>
        <time>2020-04-10T22:51:56Z</time>
      </trkpt>
      <trkpt lat="44.70664" lon="6.62295">
        <ele>1315</ele>
        <time>2020-04-10T22:52:29Z</time>
      </trkpt>
      <trkpt lat="44.70755" lon="6.62158">
        <ele>1303</ele>
        <time>2020-04-10T22:54:16Z</time>
      </trkpt>
      <trkpt lat="44.70699" lon="6.62197">
        <ele>1296</ele>
        <time>2020-04-10T22:55:06Z</time>
      </trkpt>
      <trkpt lat="44.70693" lon="6.62164">
        <ele>1286</ele>
        <time>2020-04-10T22:55:25Z</time>
      </trkpt>
      <trkpt lat="44.70653" lon="6.62231">
        <ele>1291</ele>
        <time>2020-04-10T22:56:15Z</time>
      </trkpt>
      <trkpt lat="44.70594" lon="6.62257">
        <ele>1278</ele>
        <time>2020-04-10T22:57:04Z</time>
      </trkpt>
      <trkpt lat="44.70507" lon="6.62317">
        <ele>1268</ele>
        <time>2020-04-10T22:58:22Z</time>
      </trkpt>
      <trkpt lat="44.70434" lon="6.62362">
        <ele>1257</ele>
        <time>2020-04-10T22:59:26Z</time>
      </trkpt>
      <trkpt lat="44.70455" lon="6.62306">
        <ele>1246</ele>
        <time>2020-04-10T23:00:02Z</time>
      </trkpt>
      <trkpt lat="44.70373" lon="6.62379">
        <ele>1241</ele>
        <time>2020-04-10T23:01:19Z</time>
      </trkpt>
      <trkpt lat="44.70339" lon="6.6239">
        <ele>1232</ele>
        <time>2020-04-10T23:01:47Z</time>
      </trkpt>
      <trkpt lat="44.70275" lon="6.62426">
        <ele>1223</ele>
        <time>2020-04-10T23:02:43Z</time>
      </trkpt>
      <trkpt lat="44.70222" lon="6.62467">
        <ele>1220</ele>
        <time>2020-04-10T23:03:31Z</time>
      </trkpt>
      <trkpt lat="44.70191" lon="6.62503">
        <ele>1220</ele>
        <time>2020-04-10T23:04:03Z</time>
      </trkpt>
      <trkpt lat="44.70072" lon="6.62542">
        <ele>1194</ele>
        <time>2020-04-10T23:05:41Z</time>
      </trkpt>
      <trkpt lat="44.70133" lon="6.6248">
        <ele>1195</ele>
        <time>2020-04-10T23:06:41Z</time>
      </trkpt>
      <trkpt lat="44.7013" lon="6.62437">
        <ele>1184</ele>
        <time>2020-04-10T23:07:06Z</time>
      </trkpt>
      <trkpt lat="44.70164" lon="6.62366">
        <ele>1178</ele>
        <time>2020-04-10T23:07:55Z</time>
      </trkpt>
      <trkpt lat="44.70115" lon="6.62396">
        <ele>1169</ele>
        <time>2020-04-10T23:08:37Z</time>
      </trkpt>
      <trkpt lat="44.7009" lon="6.62416">
        <ele>1165</ele>
        <time>2020-04-10T23:09:00Z</time>
      </trkpt>
      <trkpt lat="44.70129" lon="6.62323">
        <ele>1156</ele>
        <time>2020-04-10T23:10:02Z</time>
      </trkpt>
      <trkpt lat="44.70153" lon="6.62257">
        <ele>1148</ele>
        <time>2020-04-10T23:10:44Z</time>
      </trkpt>
      <trkpt lat="44.70052" lon="6.62375">
        <ele>1144</ele>
        <time>2020-04-10T23:12:29Z</time>
      </trkpt>
      <trkpt lat="44.70025" lon="6.62424">
        <ele>1148</ele>
        <time>2020-04-10T23:13:04Z</time>
      </trkpt>
      <trkpt lat="44.70002" lon="6.624">
        <ele>1136</ele>
        <time>2020-04-10T23:13:27Z</time>
      </trkpt>
      <trkpt lat="44.69938" lon="6.6231">
        <ele>1115</ele>
        <time>2020-04-10T23:14:40Z</time>
      </trkpt>
      <trkpt lat="44.69903" lon="6.62325">
        <ele>1114</ele>
        <time>2020-04-10T23:15:09Z</time>
      </trkpt>
      <trkpt lat="44.69891" lon="6.62422">
        <ele>1119</ele>
        <time>2020-04-10T23:16:05Z</time>
      </trkpt>
      <trkpt lat="44.6988" lon="6.62465">
        <ele>1123</ele>
        <time>2020-04-10T23:16:31Z</time>
      </trkpt>
      <trkpt lat="44.69831" lon="6.62439">
        <ele>1107</ele>
        <time>2020-04-10T23:17:13Z</time>
      </trkpt>
      <trkpt lat="44.69756" lon="6.62426">
        <ele>1094</ele>
        <time>2020-04-10T23:18:14Z</time>
      </trkpt>
      <trkpt lat="44.69732" lon="6.62446">
        <ele>1097</ele>
        <time>2020-04-10T23:18:36Z</time>
      </trkpt>
      <trkpt lat="44.69706" lon="6.62433">
        <ele>1094</ele>
        <time>2020-04-10T23:18:58Z</time>
      </trkpt>
      <trkpt lat="44.69616" lon="6.62407">
        <ele>1087</ele>
        <time>2020-04-10T23:20:12Z</time>
      </trkpt>
      <trkpt lat="44.69583" lon="6.62381">
        <ele>1082</ele>
        <time>2020-04-10T23:20:42Z</time>
      </trkpt>
      <trkpt lat="44.69499" lon="6.62418">
        <ele>1077</ele>
        <time>2020-04-10T23:21:52Z</time>
      </trkpt>
      <trkpt lat="44.69483" lon="6.62469">
        <ele>1069</ele>
        <time>2020-04-10T23:22:24Z</time>
      </trkpt>
      <trkpt lat="44.69528" lon="6.62544">
        <ele>1074</ele>
        <time>2020-04-10T23:23:20Z</time>
      </trkpt>
      <trkpt lat="44.69503" lon="6.6254">
        <ele>1069</ele>
        <time>2020-04-10T23:23:40Z</time>
      </trkpt>
      <trkpt lat="44.6947" lon="6.62501">
        <ele>1064</ele>
        <time>2020-04-10T23:24:15Z</time>
      </trkpt>
      <trkpt lat="44.69435" lon="6.62351">
        <ele>1051</ele>
        <time>2020-04-10T23:25:44Z</time>
      </trkpt>
      <trkpt lat="44.69413" lon="6.62319">
        <ele>1042</ele>
        <time>2020-04-10T23:26:10Z</time>
      </trkpt>
      <trkpt lat="44.69393" lon="6.62407">
        <ele>1044</ele>
        <time>2020-04-10T23:27:02Z</time>
      </trkpt>
      <trkpt lat="44.69358" lon="6.62426">
        <ele>1037</ele>
        <time>2020-04-10T23:27:32Z</time>
      </trkpt>
      <trkpt lat="44.69332" lon="6.62362">
        <ele>1027</ele>
        <time>2020-04-10T23:28:14Z</time>
      </trkpt>
      <trkpt lat="44.69323" lon="6.6233">
        <ele>1024</ele>
        <time>2020-04-10T23:28:34Z</time>
      </trkpt>
      <trkpt lat="44.6932" lon="6.62246">
        <ele>1016</ele>
        <time>2020-04-10T23:29:22Z</time>
      </trkpt>
      <trkpt lat="44.69291" lon="6.62179">
        <ele>1009</ele>
        <time>2020-04-10T23:30:06Z</time>
      </trkpt>
      <trkpt lat="44.69276" lon="6.62025">
        <ele>991</ele>
        <time>2020-04-10T23:31:35Z</time>
      </trkpt>
      <trkpt lat="44.69271" lon="6.62014">
        <ele>990</ele>
        <time>2020-04-10T23:31:42Z</time>
      </trkpt>
      <trkpt lat="44.69233" lon="6.62001">
        <ele>987</ele>
        <time>2020-04-10T23:32:14Z</time>
      </trkpt>
      <trkpt lat="44.69198" lon="6.61958">
        <ele>982</ele>
        <time>2020-04-10T23:32:51Z</time>
      </trkpt>
      <trkpt lat="44.69166" lon="6.61958">
        <ele>981</ele>
        <time>2020-04-10T23:33:17Z</time>
      </trkpt>
      <trkpt lat="44.69131" lon="6.61971">
        <ele>979</ele>
        <time>2020-04-10T23:33:45Z</time>
      </trkpt>
      <trkpt lat="44.69108" lon="6.61973">
        <ele>978</ele>
        <time>2020-04-10T23:34:04Z</time>
      </trkpt>
      <trkpt lat="44.69073" lon="6.62016">
        <ele>978</ele>
        <time>2020-04-10T23:34:41Z</time>
      </trkpt>
      <trkpt lat="44.69047" lon="6.62066">
        <ele>978</ele>
        <time>2020-04-10T23:35:16Z</time>
      </trkpt>
    </trkseg>
  </trk>
</gpx>